GFSSGP_con_mucape_000.txt.gz
CAPE
1850 1049 1098 1389 742 20 39 115 69 72 94 179 190 219 110 169 21 4 68 373 848 1159 1324 1556 2043 2313 2183 2161 2215 2243 2525 2796 2662 2915 3075 3365 3436 3574 3490 3455 2861 2884 2527 2318 2425 2466 2423 2179 2292
935 1062 1228 1123 311 0 13 104 106 44 133 229 456 377 239 197 128 87 328 634 978 1137 1274 1756 2496 2686 2346 2435 2477 2595 2835 2975 3318 3473 3480 3618 3856 3745 3299 2354 2347 2377 2377 2300 2191 2134 2167 2069 2141
626 1097 1139 1218 183 2 63 175 188 0 106 350 405 324 257 425 382 315 346 675 1084 1253 1435 1763 2583 2714 2468 2820 3050 3106 3107 3064 3345 3551 3590 3809 3484 2919 2469 2275 2199 2313 2286 2139 2069 1989 2009 1951 1922
517 650 823 880 0 0 131 283 299 236 419 628 728 519 483 551 480 423 507 693 1078 1523 1797 2747 2891 2525 2809 3122 3250 2962 2961 2936 3344 3589 3199 2996 2753 2129 2254 2294 2361 2359 2252 2102 2028 2015 2018 2037 2081
351 207 78 19 0 11 165 248 296 478 614 671 642 732 593 537 698 775 819 805 1043 1814 2188 2130 2698 2764 2641 3214 3619 3552 3422 3248 3213 3247 2902 3209 2981 2320 2371 2261 2107 2041 1944 1906 1912 1996 2059 2121 2155
60 29 17 37 15 2 186 213 411 1080 1014 852 730 719 610 707 1040 1083 964 1004 1201 1838 2369 2246 2528 2725 2947 3038 3128 3606 3443 3149 3168 3033 2956 3221 2914 2612 2336 2143 2038 1875 1708 1800 1831 2002 2169 2232 2314
22 10 36 27 12 55 231 319 699 1151 1090 1000 876 823 609 806 1006 1151 1078 1169 1566 2300 2608 2646 2406 2305 2929 3489 3446 3221 3278 3094 3078 3129 3087 2709 2576 2233 2158 2133 2141 2003 1946 1939 2024 2306 2329 2491 2669
79 0 33 12 0 24 288 299 559 873 776 1141 817 980 713 622 967 1166 1127 1378 1636 2157 2589 2705 2692 2518 2692 2918 3245 2640 3201 3042 2772 2861 2619 2699 2308 2067 2117 1994 2583 2110 2195 2115 2003 2409 2556 2533 2463
96 105 13 27 0 4 0 142 378 496 1139 673 619 756 970 963 1042 1265 1285 1386 1661 1755 2234 2472 2670 2623 2574 2871 2828 3217 2725 3025 2898 2667 2849 3069 1948 1567 643 1035 1064 1652 2153 2280 1969 2206 2404 2619 2279
35 113 53 16 29 27 0 91 207 528 630 608 778 820 1170 1191 1268 1286 1421 1457 1522 1730 1809 2138 2233 2436 2511 3002 2597 2651 2519 2613 2485 2486 2302 1807 1213 1106 1163 756 639 859 1980 2168 1947 2097 1979 1926 1097
4 10 23 17 81 111 234 328 310 416 563 585 554 929 1313 1241 1377 1380 1440 1489 1642 1646 1689 1746 2188 2183 2279 2438 2362 2196 2185 2368 2208 1916 1610 1596 1361 1267 1006 886 938 928 1422 1535 1766 1856 1485 1318 1079
32 1 26 65 165 123 199 170 233 253 425 528 542 846 1267 1230 1262 1485 1341 1375 1507 1755 1828 1887 2218 2097 2043 2074 2125 1897 1804 1791 2015 1734 1641 1480 1606 983 801 1152 1416 1227 1235 1102 1144 1115 1018 1042 940
4 4 41 61 51 114 162 108 311 366 424 373 589 639 760 1042 1175 1435 1252 1285 1483 1439 1454 1823 2001 1815 1975 1945 1810 1849 1869 1883 1798 1722 1626 1678 1565 1126 1464 1502 1350 1225 1088 1009 1128 1089 972 800 654
57 37 69 107 268 285 0 172 408 519 429 331 490 526 826 867 1007 853 777 1173 1354 1435 1768 1951 2053 2007 2035 1755 1869 1866 1912 1892 1879 1779 1645 1673 1517 1211 1473 1162 967 682 1096 897 965 891 769 773 725
50 23 15 144 299 352 435 365 432 455 453 413 397 417 414 494 636 837 673 1012 1125 1497 1831 1976 1944 2233 2033 2112 1815 1382 1635 1511 1572 1579 1604 1446 1405 1449 1343 1136 988 645 677 708 777 573 348 376 477
24 0 0 70 127 295 342 390 346 445 423 392 418 406 447 494 395 631 796 796 672 902 1734 1792 1958 2277 1985 1958 1984 2201 1851 1752 1621 1451 1342 1192 1178 1305 1249 1207 910 806 779 683 614 545 535 421 366
6 0 0 9 8 124 233 301 313 206 336 360 361 360 373 372 373 314 604 653 622 1025 1571 1778 2057 2116 1927 2038 2233 2159 2017 1699 1527 1684 1410 1377 1185 1114 1268 968 1014 1022 863 758 805 694 634 444 358
0 0 0 0 0 56 160 235 234 218 159 209 275 259 298 345 341 330 407 416 526 525 950 1330 1763 2130 2188 2226 2217 2075 1898 1964 1944 1520 1328 1215 1100 1142 1278 1050 962 924 951 876 774 653 417 499 395
0 0 0 0 0 104 79 233 248 291 305 386 518 504 470 425 507 493 750 480 488 634 834 851 1007 1624 2212 1869 1948 2189 2164 1790 1347 1110 1071 1313 1143 1086 1096 1042 940 949 853 782 792 759 792 627 356
0 0 0 1 11 7 175 196 196 299 440 542 660 638 687 823 722 748 837 679 670 705 828 1177 1095 1763 1879 1759 1771 1701 1766 1525 1415 1608 1755 1400 1062 1043 965 1145 1115 788 584 514 395 342 488 428 575
0 0 0 7 23 27 140 165 232 296 414 579 665 721 855 913 910 926 848 719 858 833 1181 1301 1460 1819 1674 1756 1736 1919 2033 1774 1615 1761 1734 1194 1041 721 274 263 179 193 326 237 386 416 503 411 452
0 0 1 17 31 15 73 64 171 225 229 304 396 658 764 791 920 851 902 682 867 1134 1596 1615 1914 2044 2099 2149 1974 1910 1074 716 275 1163 1332 531 0 0 1 23 193 313 152 243 309 548 496 411 290
0 0 0 44 46 38 23 26 47 65 131 162 234 446 505 640 890 964 971 727 991 1388 1934 1841 2112 2351 2320 2051 1932 2111 742 21 185 386 0 0 0 0 0 168 284 130 13 28 298 115 350 326 410
0 0 0 50 51 40 28 29 23 33 78 68 114 309 489 418 815 1041 1110 915 1267 1566 1982 2153 2225 2087 2223 2307 2067 1480 0 0 48 2 0 0 0 19 47 86 0 0 0 12 56 182 193 148 228
0 0 0 0 6 1 11 49 0 13 45 52 28 166 400 396 397 853 957 952 1507 1760 1797 2122 2169 1633 1848 1975 1120 0 0 0 0 0 0 0 0 6 11 0 0 0 0 0 84 130 10 80 107
0 0 0 0 0 0 0 0 0 10 30 43 19 113 260 366 337 556 410 490 1302 1654 1722 1799 2024 1760 2097 1840 1453 0 0 0 0 0 0 0 0 0 0 0 0 0 0 19 44 121 1 131 169
0 0 0 0 0 0 0 0 0 3 20 21 8 40 149 348 292 419 297 485 960 1354 1572 1710 1678 1883 1645 1193 51 0 6 1 26 43 48 0 0 0 0 0 0 0 15 0 41 65 223 100 66
0 0 0 0 0 0 0 0 0 38 38 44 30 27 35 132 233 299 308 501 1080 1211 1585 1740 1497 1690 1577 1046 39 0 17 25 41 10 0 0 0 0 0 0 0 0 0 0 0 17 52 0 34
0 0 0 0 0 0 0 0 0 49 55 57 73 61 38 56 98 313 354 449 1115 1238 1477 1772 1659 1725 1753 1292 116 121 248 130 23 6 0 0 0 0 72 121 79 12 0 33 151 139 192 101 120
0 0 0 0 0 0 0 0 0 25 40 58 82 57 74 69 100 171 300 370 843 1161 1498 1704 1728 1795 1833 1197 325 308 445 417 200 57 29 5 16 12 0 0 0 0 1 47 65 139 227 240 110

GFSSGP_con_mucape_003.txt.gz
CAPE
1557 854 993 1261 639 97 74 59 53 66 100 181 241 121 128 112 15 0 14 201 461 621 465 873 1601 1566 1918 1933 2015 1960 1815 1834 2743 2783 3063 3197 2894 2863 2812 2689 2468 2236 2155 2239 2327 2287 2166 2158 1989
1018 911 1134 1097 73 89 96 47 21 18 198 346 393 258 217 163 95 216 288 870 1065 1111 1132 1304 1778 2349 1920 1847 2013 2479 2147 2107 2911 3115 3398 3325 3122 3374 2902 2333 2197 2111 2095 2046 1966 1940 1859 1893 2003
738 988 1024 1264 50 74 119 37 0 118 486 461 283 260 267 186 232 268 332 843 1066 1275 1594 1791 2406 2151 2264 2414 2787 3023 2973 2849 3274 3260 3310 3376 3272 2632 2082 1892 1865 1964 1919 1857 1815 1785 1809 1822 1898
641 739 747 430 22 106 173 118 68 193 268 549 446 421 485 461 345 358 593 1015 1107 1488 1729 2345 2612 2360 2648 2492 3241 3201 3224 3253 3334 3551 3403 3021 2600 2219 2042 1938 2060 2009 1836 1725 1670 1677 1695 1766 1840
487 284 0 0 13 170 226 141 147 305 547 606 558 557 573 500 442 470 689 898 1224 1938 2004 2079 2910 3095 3350 3341 3062 3086 2986 3231 3458 3291 2657 2679 2304 2078 2073 2066 2029 1881 1808 1743 1759 1817 1845 1936 1847
35 4 0 0 33 249 248 211 357 743 844 627 551 546 632 686 495 689 781 982 1590 2142 2208 2356 2839 2928 3253 3077 3245 3319 3003 2548 2976 2500 2510 2535 2546 2457 2132 1928 1773 1653 1526 1625 1638 1802 1929 1988 2167
42 1 1 0 3 260 303 446 868 773 595 640 602 609 881 886 801 866 797 970 1626 2344 2301 2213 2339 2431 2772 3434 3424 3198 2910 2738 2417 2565 2516 2430 2452 2338 2095 1917 1792 1677 1691 1734 1804 2068 2200 2215 2433
1 0 0 0 23 177 242 503 895 726 915 810 587 455 633 953 1136 1016 1075 1335 2147 2344 2449 2347 2350 2410 2621 2925 2973 2607 2868 2484 2266 2363 2260 2336 2262 1899 1901 2061 2320 1927 2133 2103 2054 1885 2113 2302 2269
106 25 9 2 8 103 269 608 970 1068 890 547 683 580 577 1041 1161 1087 1264 1538 1783 2196 2372 2457 2514 2423 2713 2896 2491 2579 2376 2535 2568 2439 2596 2998 2002 1714 1578 1135 1426 1393 1926 2092 1865 1893 1830 1799 1988
34 38 22 1 4 168 217 476 626 836 665 750 783 712 816 1066 1215 1154 1228 1409 1562 1830 2165 2176 2398 2408 2546 2888 2726 2425 2025 2302 2144 2202 2323 1887 1256 1116 670 923 842 808 1465 1828 1722 1739 1774 1677 978
1 18 5 36 20 92 75 236 371 663 639 672 905 845 839 989 1228 1204 1317 1406 1266 1464 1840 1999 2065 2203 2249 2641 2585 2312 2051 1952 1874 1904 1925 1572 903 915 1050 634 653 723 1144 1441 1186 1477 1151 970 940
0 12 4 21 60 2 78 208 551 464 556 595 991 955 952 1065 1263 1272 1411 1380 1333 1509 1580 1829 2008 2264 2196 2244 2268 2115 2038 1972 1821 1650 1607 1281 1266 1035 857 636 855 1084 1059 843 735 859 712 867 776
0 8 15 25 1 53 156 195 345 373 496 661 1081 1220 1154 1242 1350 1345 1483 1427 1486 1565 1669 1782 2133 2154 2075 1879 2021 1936 1746 1655 1639 1733 1457 1398 1212 1072 745 920 881 898 768 838 804 825 734 514 509
6 21 39 34 29 32 164 376 442 467 513 581 1197 1255 1240 1362 1408 1439 1471 1404 1484 1545 1603 1832 2087 2127 1994 1939 1960 1643 1638 1465 1491 1405 1564 1442 1466 1237 987 863 767 669 586 709 733 651 465 324 298
18 8 31 43 54 50 161 240 511 409 457 647 1060 1163 1246 1257 1346 1422 1329 1292 1446 1481 1559 1784 2047 1935 1858 1981 1832 1580 1676 1644 1641 1621 1582 1527 1521 1515 1274 1161 825 724 521 454 403 346 263 318 204
8 16 22 61 66 90 205 211 511 352 332 463 565 740 950 1031 1166 1233 1211 1186 1260 1321 1568 1749 2094 2077 1986 2204 1921 1725 1667 1558 1403 1425 1370 1388 1180 1153 1162 996 841 737 627 605 557 566 424 329 163
1 0 13 72 118 161 172 242 461 341 229 297 400 482 706 783 869 894 703 868 1138 1229 1586 1804 2080 2065 2133 2216 2238 1670 1556 1440 1326 1271 1178 1211 1057 899 944 821 718 651 747 667 630 504 451 265 162
0 0 0 34 124 67 90 179 343 334 225 188 193 225 308 395 465 692 633 662 928 1011 1502 1935 1986 2108 2178 1989 1831 1723 1833 1721 1409 1441 1241 1022 874 853 809 963 1093 760 785 690 613 611 521 401 304
0 0 3 0 7 11 55 125 219 319 220 163 208 206 201 244 347 332 522 626 676 493 1151 1582 1804 1984 1929 1888 1934 1937 1803 1665 1638 1527 1353 1175 1087 1071 843 777 590 659 676 524 565 533 491 542 498
0 1 0 0 0 32 59 113 91 162 167 115 149 214 250 269 309 333 319 569 523 505 844 1266 1587 1695 2037 2031 1884 1811 1927 1900 1639 1172 1077 1398 1118 901 772 657 644 890 506 318 259 216 315 424 510
0 0 0 0 0 48 78 103 118 88 105 114 143 245 271 342 327 351 322 645 487 384 528 753 1104 1116 1618 2119 1854 1666 1680 1804 1818 1787 1878 1553 1166 1007 683 594 659 146 139 121 199 289 376 365 466
0 0 0 0 0 1 63 22 131 172 187 218 276 432 509 412 453 561 424 720 653 360 539 789 866 1204 1586 1835 1659 1630 1780 1750 1104 941 1701 1502 1386 583 64 14 2 94 157 92 144 477 413 288 197
0 0 0 0 0 7 49 9 94 124 172 231 328 490 616 546 552 756 560 761 714 503 837 903 1159 1500 1767 1799 1754 1736 1699 934 344 348 1337 1453 20 0 0 0 31 141 54 0 110 36 185 194 277
0 0 0 0 0 0 9 10 0 93 147 178 276 457 544 706 689 832 726 766 762 738 1132 1428 1484 1691 1896 1932 2220 1944 1889 1137 40 613 816 9 0 0 0 19 147 3 0 0 1 11 60 36 136
0 0 0 0 0 0 0 11 0 23 78 105 124 270 423 603 759 833 798 752 798 991 1306 1636 1711 1802 2069 2366 2419 2055 2424 850 112 213 1 0 0 0 0 4 0 0 0 0 0 13 0 0 68
0 0 0 0 0 0 0 0 0 6 24 52 69 93 241 442 667 727 791 820 842 1168 1409 1714 1819 1800 1933 2309 2372 2542 1448 0 6 18 0 0 0 0 0 0 0 0 0 0 0 0 0 0 33
0 0 0 0 0 0 0 0 0 4 2 11 39 46 105 235 401 706 859 910 922 1179 1464 1698 1876 1835 1905 1870 2107 1992 111 0 0 0 1 0 0 0 0 0 0 0 0 0 0 0 0 32 18
0 0 0 0 0 0 0 0 0 0 0 5 10 43 31 148 278 483 847 892 972 1198 1471 1584 1780 1867 1847 1713 1759 1686 901 0 0 8 16 18 0 0 0 0 0 0 0 0 0 0 0 0 0
0 0 0 0 0 0 0 0 0 0 0 0 16 21 28 119 220 340 587 729 858 1174 1458 1567 1665 1825 1775 1704 1821 1401 999 0 11 44 40 21 0 0 0 0 0 0 0 0 0 0 0 0 52
0 0 0 0 0 0 0 0 0 0 0 3 11 34 36 69 143 241 397 556 700 744 1161 1442 1536 1587 1564 1659 1738 1333 435 17 133 47 10 0 0 0 0 6 6 0 0 0 0 0 0 25 40

GFSSGP_con_mucape_006.txt.gz
CAPE
1584 1060 893 1100 310 37 13 18 66 88 95 142 111 91 86 58 16 1 3 95 280 265 347 950 1882 1184 1088 1195 1198 1107 1251 1847 2325 2701 2658 2351 2326 2442 2172 2165 2275 2190 2030 2025 2134 2161 2145 2096 1819
888 793 1019 973 46 35 31 14 62 65 177 230 208 148 170 96 140 135 136 562 629 518 514 773 1685 1669 1344 1440 1937 1669 1539 1946 2444 2667 2907 2652 2581 2331 2203 2159 2036 1942 1972 1972 1979 1895 1766 1811 1812
837 918 1029 918 72 36 47 23 108 273 348 336 259 263 191 158 206 185 308 810 954 876 907 1178 1705 1866 1840 1986 2058 2645 2494 2372 2426 2689 2559 2703 2712 2358 2019 1889 1909 1955 1876 1767 1688 1691 1732 1722 1767
653 667 755 144 18 68 53 28 240 407 461 369 284 433 435 241 252 329 740 972 1022 1101 1138 1957 1968 1877 2009 2108 2556 2296 2468 2821 2908 3103 2497 2556 2214 1936 1833 1701 1831 1819 1703 1607 1529 1555 1617 1727 1771
546 200 31 4 40 180 91 64 237 320 559 460 437 439 341 387 383 572 846 898 1203 1415 1645 1710 2446 2416 2232 2235 2320 2834 2773 2735 2960 2966 2394 2346 2098 2019 1975 1998 1958 1829 1723 1677 1650 1683 1678 1745 1778
30 19 8 5 166 250 146 97 213 680 637 461 382 349 516 457 350 680 775 852 1530 1693 1769 1984 2290 2358 2464 2621 2473 2788 2897 2826 3000 2256 2309 2199 2182 2059 1997 1879 1700 1581 1521 1600 1591 1734 1842 2024 2127
99 0 9 6 238 265 184 264 647 687 542 485 430 335 641 449 543 706 777 1203 1843 1976 2021 2098 2135 2280 2497 2959 2713 2625 2588 2374 2455 2183 2448 2405 2051 2262 2103 1936 1780 1645 1636 1728 1880 1847 2120 2140 2283
13 0 8 2 219 286 253 578 739 515 642 534 341 337 406 533 740 720 836 1306 1893 2032 2006 2057 2165 2045 2294 2118 2221 2134 2219 1889 2226 2354 2347 2411 2353 2139 1919 1784 2048 1942 1994 2243 2156 1674 1843 2013 1866
32 19 16 18 92 151 278 699 633 836 634 568 518 346 501 819 865 827 999 1469 1657 1818 2011 2080 2097 2112 2189 2371 2096 2070 2201 2044 1998 2017 2201 2326 1695 1575 1881 1375 1634 1774 1725 1877 2051 1721 1713 1893 1555
28 18 24 29 3 130 256 704 744 659 521 629 573 683 943 1020 938 875 805 887 1183 1422 1828 1935 2000 2166 2208 2682 2160 1917 1743 1769 1856 1835 1794 1741 1402 1390 966 1198 1179 1133 995 1849 1948 1661 1843 1406 1017
1 0 0 1 0 111 195 579 635 378 445 602 493 822 1050 1051 971 954 814 761 997 1336 1689 1861 1962 2076 2166 2416 2194 1832 1737 1552 1708 1709 1731 1596 982 808 1091 575 538 668 1291 1190 1254 1018 904 855 809
6 7 0 0 0 88 136 303 454 231 284 505 486 767 1051 1092 1065 999 868 996 1051 1320 1589 1780 1846 1926 1983 1856 1982 1707 1750 1687 1543 1456 1474 1486 990 894 738 540 684 981 912 859 646 706 766 749 601
0 0 1 0 0 20 41 167 397 161 416 595 551 842 922 1010 1109 1060 1004 1145 1013 1159 1407 1493 1694 1929 1905 1802 1774 1738 1625 1718 1655 1358 1249 1225 972 905 770 656 800 810 716 743 756 844 768 517 502
0 2 16 12 0 3 50 224 323 293 692 797 638 743 837 884 1082 1091 1233 1235 1148 1159 1261 1413 1558 1778 1912 1921 1746 1736 1465 1478 1376 1210 1190 1221 1091 1067 860 772 735 700 638 580 731 737 533 208 231
0 1 9 9 6 71 126 228 206 391 699 934 914 896 889 985 1187 1115 1253 1298 1211 1253 1288 1424 1552 1889 1812 1820 1523 1202 1381 1203 1275 1290 1115 1335 1289 1232 1145 964 838 685 601 470 396 445 432 372 234
12 1 17 13 19 73 81 83 386 450 546 867 1034 1037 1036 1082 1208 1197 1204 1240 1194 1249 1316 1354 1719 1833 1643 1620 1566 1461 1354 1369 1446 1402 1390 1410 1352 1372 1352 1027 659 606 544 532 528 493 353 265 149
0 0 16 8 4 49 54 54 360 414 454 738 1003 976 974 1039 1113 1171 1212 1202 1102 1241 1272 1326 1636 1878 1739 1582 1626 1652 1595 1519 1417 1301 1202 1234 1239 1061 908 821 700 633 659 655 523 386 349 297 224
0 0 12 18 27 49 60 101 346 330 337 440 621 712 847 881 944 1003 1024 1084 1015 1090 1161 1254 1497 1784 1883 1576 1680 1758 1549 1318 1277 1176 1138 1022 1065 899 712 743 766 803 638 514 370 360 325 281 284
0 27 25 15 33 52 86 92 330 242 252 256 283 343 452 607 622 741 808 929 803 906 1052 1274 1441 1688 1828 1667 1718 1847 1502 1476 1514 1362 1161 1166 939 893 846 783 636 468 466 318 359 319 280 216 247
0 1 11 14 4 66 58 69 246 240 172 163 170 198 236 364 476 526 581 737 551 572 891 1097 1495 1792 1845 1807 1719 1648 1672 1667 1661 1519 1384 1131 938 1001 894 539 338 490 477 182 108 131 143 219 301
0 0 0 0 0 10 36 47 92 233 230 177 117 90 88 114 187 230 274 312 578 461 724 861 1325 1646 1725 1716 1683 1756 1605 1570 1447 1435 1154 1290 1149 916 659 446 434 427 64 46 33 54 144 245 256
0 0 0 0 7 2 48 0 58 105 187 184 147 101 84 102 105 145 179 236 372 416 562 491 874 1277 1457 1537 1793 1823 1570 1420 1361 1316 1456 1549 1163 911 607 24 30 8 8 62 26 156 234 202 61
0 0 0 0 2 5 36 3 0 63 67 119 124 125 108 102 138 203 228 244 290 459 407 390 585 851 1087 1220 1514 1895 1622 1358 946 586 622 1454 1093 1004 0 0 0 9 85 18 0 30 59 85 87
0 0 1 2 0 0 0 0 0 14 88 113 132 137 138 135 243 251 300 335 284 570 458 352 464 588 868 1134 1389 1681 1571 1350 1005 356 485 1305 1233 6 0 0 0 51 38 0 0 0 1 6 33
0 0 0 0 0 0 0 0 0 1 61 95 111 147 184 190 313 478 413 533 446 566 597 567 576 711 1055 1285 1517 1652 1659 1400 1172 114 587 1088 221 0 0 0 0 11 0 0 0 0 0 0 0
0 0 0 0 0 0 0 0 3 6 5 55 61 107 138 221 360 503 609 543 674 584 671 693 800 846 1157 1450 1628 1754 1964 1693 1749 237 312 353 0 0 0 11 1 0 0 0 0 0 0 0 0
0 0 0 0 0 0 0 0 0 0 0 4 25 87 119 141 329 483 616 691 836 731 736 783 1015 1068 1197 1461 1676 1877 2175 1898 2014 9 110 26 0 0 0 0 0 0 0 0 0 0 0 0 0
0 0 0 0 0 0 0 0 0 0 0 0 0 28 83 98 295 401 550 690 899 871 802 843 1084 1235 1265 1432 1618 1828 2060 2215 536 2 21 7 0 0 0 0 0 0 0 0 0 0 0 0 0
0 0 0 0 0 0 0 0 0 0 0 0 0 12 17 65 156 350 608 751 918 908 834 897 1178 1397 1454 1409 1536 1578 1921 1830 135 0 0 0 0 0 0 0 0 0 0 0 0 0 0 0 0
0 0 0 0 0 0 0 0 0 0 0 0 0 1 0 36 109 229 576 755 856 863 857 984 1231 1448 1572 1506 1607 1498 1649 1549 736 0 0 3 15 0 0 0 0 0 0 0 0 0 0 0 0

GFSSGP_con_mucape_009.txt.gz
CAPE
1721 1525 936 1162 201 54 84 100 91 142 122 241 56 33 101 106 25 79 69 217 288 398 453 777 1522 1142 1114 1105 970 1379 1417 1807 2178 2647 2394 1864 1493 1827 1953 2219 2270 2112 1993 2023 2058 1978 2013 1902 1835
740 980 1093 832 45 13 57 58 167 122 243 217 238 227 164 100 100 106 221 370 443 563 497 521 1380 1401 1296 1345 1422 1280 1750 1673 2390 2675 2252 2067 1995 1890 1959 2051 1925 1951 2057 1998 1879 1735 1680 1749 1705
919 767 1168 331 8 0 30 55 245 343 342 228 297 263 129 147 116 151 279 517 651 866 745 918 1364 1389 1412 1435 1426 1559 2112 1881 1913 2060 2145 2074 2083 2162 2103 1937 1896 1962 1898 1776 1655 1586 1565 1599 1656
654 546 559 1 0 15 55 108 424 538 510 410 180 134 266 217 168 300 510 670 775 954 842 1430 1724 1815 1699 1714 1646 1945 2414 2132 2565 2247 2211 2239 2185 1878 1775 1730 1839 1839 1732 1653 1554 1588 1657 1777 1720
514 112 0 6 59 239 73 270 567 549 629 380 314 192 197 597 472 447 674 716 787 994 1254 1562 1955 1867 1841 1998 2125 2611 2547 2148 2610 2284 2150 2178 1994 1946 1877 1992 1978 1864 1740 1640 1620 1646 1735 1781 1872
83 13 5 16 196 267 145 288 512 796 670 448 251 180 383 728 365 556 662 772 771 1037 1245 1486 1818 1956 2158 2163 2256 2589 2643 2216 2473 2219 2252 2153 2084 2079 2002 1926 1723 1634 1557 1609 1756 1882 2039 2047 2105
87 47 64 93 357 313 184 284 604 696 599 439 260 336 727 570 342 624 696 989 1073 1131 1329 1750 1956 2206 2399 2946 2272 2453 2529 2429 2250 2355 2219 2176 2257 2180 2104 1946 1838 1723 1694 1884 2120 1875 1873 2005 2072
39 12 33 73 336 234 286 425 736 552 567 519 393 378 465 627 436 694 755 1058 1308 1340 1565 1918 2027 2160 2181 2022 2194 2139 2352 2332 2235 2087 2316 2331 2275 2255 2108 1811 1893 1928 2027 2053 2207 1791 1705 1760 1779
22 31 30 24 245 279 433 413 799 690 735 548 542 533 346 726 575 596 855 1131 1449 1579 1943 1994 1864 2261 2479 2137 2045 2026 2148 2066 2044 2121 2124 2005 1883 1783 1729 1444 1559 1479 1607 1622 2042 1675 1819 1847 1467
14 54 24 3 100 310 471 539 836 872 680 552 734 722 802 946 621 530 648 912 1131 1307 1670 2026 2202 2151 2090 1472 2121 2262 1641 1514 1653 1994 1917 1855 1916 2088 1662 955 1317 1190 1180 1693 1828 1868 1621 1335 1452
19 27 9 10 0 289 502 597 815 694 572 552 824 1016 954 971 718 619 547 640 801 1171 1396 1859 2136 2408 2288 2456 2335 2884 2176 2132 1859 2064 2027 2366 1767 1706 1657 1412 1110 830 1513 1550 1441 1512 1465 1653 1580
2 0 0 1 27 243 485 660 598 532 178 422 841 995 1009 916 832 663 621 700 814 1105 1378 1565 2004 2405 2454 2575 1968 2316 1739 1901 1620 1816 2253 2482 2399 1609 1598 1296 1442 1943 1593 1671 1580 1512 1715 1531 1254
0 0 0 0 74 159 421 599 449 501 277 675 917 1004 972 923 911 873 851 757 937 1069 1543 1794 1972 2303 2473 2376 1893 1830 2153 1497 1546 1957 1840 1736 2243 1938 1759 1572 1667 1769 1514 1492 1559 1638 1613 1401 929
0 0 0 0 66 109 292 401 363 360 764 851 981 1000 962 989 1054 1213 1211 1056 1059 1048 1372 1795 2125 2434 2462 2333 2512 2402 2194 2426 1976 2066 1754 1976 1837 2806 2385 1700 1723 1511 1487 1286 1435 1470 1245 993 1000
0 8 18 8 1 99 291 438 396 394 858 844 861 907 967 1053 1172 1295 1189 1119 1296 1278 1129 1331 1693 2125 2494 2575 2762 2495 2244 2054 1730 1746 2073 2137 2145 2253 2204 2251 2124 1636 1391 1353 1217 1217 953 845 601
0 10 27 9 31 149 115 47 374 666 886 721 671 751 872 921 1040 1227 1301 1281 1525 1417 1353 1234 1108 1457 2027 2235 2536 2151 2165 2149 2044 2955 2608 2027 2160 2267 2332 2700 2268 1386 1427 1184 1271 1166 982 794 535
0 9 23 22 24 151 98 62 339 688 797 788 701 714 816 920 1089 1355 1422 1553 1604 1766 1799 1761 1916 2013 2460 2628 2518 2695 2331 2553 2641 2207 2150 2258 2059 2141 2460 2453 1960 1526 1402 1527 1246 972 992 498 372
0 13 18 57 24 139 83 132 476 589 694 816 922 893 949 1066 1349 1517 1591 1553 1663 1736 1931 2066 2022 2384 2766 2999 2779 2898 2694 2724 2545 2154 2019 2006 2031 1874 1787 1837 1727 1550 1482 1213 1003 1092 859 740 684
0 44 77 52 33 49 91 88 438 520 555 691 1004 1071 1058 1022 1051 1282 1482 1473 1584 1707 1818 2050 2173 2478 2596 2422 2477 2431 2273 2525 2228 2420 2100 1799 1848 1785 1798 2063 1766 1514 1192 1062 1123 807 700 407 648
0 23 68 21 34 57 53 57 203 527 500 522 662 847 904 977 1084 1201 1317 1216 1253 1541 1680 2002 2274 2534 2805 2474 2596 2457 2484 2430 2247 2298 2290 2083 1889 1962 1931 1796 1432 1237 917 1104 702 748 433 478 693
0 7 23 23 8 38 75 35 100 448 487 419 422 475 533 615 785 852 963 1077 1089 1247 1496 1802 2428 2705 2684 2728 2607 2494 2356 2283 2311 2291 2222 2094 2001 1927 1798 1517 1168 1164 684 130 585 462 664 443 566
0 0 19 45 30 11 48 23 54 197 528 515 477 404 391 409 507 563 693 859 1021 1090 1175 1642 2141 2631 2603 2790 2501 2566 2281 2242 2228 2096 2045 2114 2099 1800 1655 1405 738 791 273 595 481 372 638 641 228
0 0 0 8 43 1 37 2 0 131 287 571 560 494 400 367 385 462 566 647 788 993 1033 1225 1973 2486 2537 2702 2917 2613 2579 2369 2186 1611 1846 2350 2095 1770 1250 748 522 528 466 704 321 631 471 415 276
0 0 0 0 10 0 0 4 0 112 197 253 364 414 429 377 395 446 496 503 611 783 911 1133 1889 2371 2242 2341 2641 2681 2646 2580 1949 1284 1017 1348 1548 1089 632 301 383 623 662 536 237 384 397 374 447
0 0 0 0 0 0 0 2 10 21 115 156 167 240 284 321 338 403 537 554 654 879 1003 1192 1916 2206 1797 2027 2318 2461 2585 2787 2345 1857 1050 1003 1145 807 262 306 357 471 647 306 248 350 368 281 288
0 0 0 0 0 0 0 0 3 47 43 64 121 155 182 218 268 380 532 864 869 911 1065 1210 1767 2178 1823 1881 2507 2649 2770 2438 2095 1660 1002 906 934 637 265 314 359 530 173 86 220 219 223 261 217
0 0 0 0 0 0 0 0 0 0 2 3 51 109 229 307 476 528 605 693 1070 1171 1521 1704 1985 2183 1887 1858 2448 2457 2596 2406 2059 1342 1169 821 793 244 256 293 396 178 0 52 271 63 214 316 385
0 0 0 0 0 0 0 0 0 7 11 54 22 134 258 448 606 661 969 891 1146 1157 1383 1516 1913 2172 2138 1882 2244 2368 2462 2266 2119 1494 1411 487 438 230 293 326 182 50 4 18 264 91 83 195 186
0 0 0 0 0 0 0 0 0 4 150 74 59 93 253 464 748 993 1076 1044 1166 1218 1321 1593 1621 1992 1980 2082 2552 2518 2250 1925 1821 1702 1625 274 334 275 308 329 123 81 48 65 168 226 97 100 226
0 0 0 0 0 0 0 0 0 0 0 2 41 24 77 520 872 862 1027 1107 1106 1329 1210 1420 1521 1625 2266 2435 2502 2125 1902 1710 1526 1656 1281 356 26 210 205 242 194 147 103 145 270 228 0 153 306

GFSSGP_con_mucape_012.txt.gz
CAPE
1570 1706 2062 2303 1149 157 105 179 142 213 239 268 10 21 164 233 235 449 403 519 504 607 625 805 1091 956 803 977 1184 1395 1810 1563 2211 2146 1646 1497 1832 2008 2236 2256 2027 1997 1997 1999 1855 1670 1691 1720 1691
1907 1690 1585 1295 109 79 206 165 238 330 244 191 227 137 226 246 250 384 595 556 471 417 537 745 1280 1220 844 1020 1280 1569 1250 1329 1856 1735 1457 1604 1759 1918 2045 1892 1840 1945 1921 1813 1748 1676 1632 1620 1641
1130 1034 1159 28 9 92 180 283 393 319 189 237 362 334 215 302 316 427 650 754 692 640 523 872 1249 1306 1227 1231 1361 1735 1637 1728 1860 1647 1575 1690 1828 2167 2000 1785 1852 1863 1762 1644 1507 1442 1527 1699 1730
793 973 956 35 0 0 104 392 552 488 374 284 215 317 322 298 412 597 776 934 901 920 817 858 1174 1467 1455 1479 1623 1800 1888 1906 1836 1669 1757 2044 2182 1883 1690 1737 1819 1684 1593 1555 1579 1607 1645 1674 1775
923 447 32 8 0 0 58 404 628 569 430 297 208 182 413 644 534 830 1052 1072 1093 1041 1046 884 1756 1705 1715 1742 1867 2006 1744 1887 1966 2048 2070 2213 1919 1871 1814 1969 1806 1608 1552 1591 1600 1789 1850 1908 1989
636 134 91 38 11 28 114 359 602 638 673 453 212 438 689 523 769 961 1118 1191 1188 1194 1311 1604 1984 2042 2024 2035 2216 2330 1987 2122 2233 2119 2102 2088 2065 2072 2002 1859 1625 1581 1534 1610 1989 1907 1879 1814 1972
314 112 82 105 28 38 71 223 454 670 716 483 214 545 804 537 831 996 1025 1049 1100 1264 1448 1667 1866 2255 2205 2226 2503 2311 2149 2057 1874 2037 2102 2040 2127 2071 2039 1927 1788 1730 1736 2038 2027 1623 1656 1690 1601
279 115 66 72 138 53 51 206 419 419 687 437 227 534 751 494 677 803 970 1104 1217 1297 1619 1546 1753 1796 1854 2090 2189 2301 2065 1745 1835 2044 2001 2077 2152 2060 1909 1880 1798 1713 1844 1754 1968 1609 1652 1707 1715
273 188 117 104 159 266 172 200 418 462 724 571 509 350 474 407 603 775 1102 1240 1284 1309 1398 1778 1707 2052 2027 1338 1581 1945 2052 2116 1950 1964 2039 1793 1325 1716 1540 1525 1320 1535 1549 1450 1727 1565 1839 1640 1482
66 223 122 42 48 324 223 226 517 635 651 572 730 599 546 475 742 859 1086 1297 1502 1718 1581 1483 1779 1912 1605 1256 1826 1822 1447 1195 1118 1141 1366 1149 1415 1710 1589 1277 1227 1216 1306 1538 1628 1616 1666 1666 1357
1 70 87 35 5 227 315 319 497 272 534 451 748 872 734 664 773 892 1040 1210 1294 1405 1537 1448 1524 1833 1618 1500 1709 1672 1470 1374 1507 1775 1416 1340 1532 1682 1873 1651 1524 1208 1260 1866 1707 1747 1505 1631 1500
0 0 0 0 0 224 359 372 430 237 175 317 557 891 836 814 693 709 877 1001 1145 1344 1339 1502 1562 1772 1720 1847 1664 1645 1434 1375 1131 1146 1741 1849 1511 1731 1983 1559 1500 1866 1469 1640 1602 1525 1708 1642 1554
0 0 0 0 0 111 366 438 414 350 316 487 706 917 810 817 684 718 685 741 927 1289 1413 1446 1749 2132 2157 2222 1512 1453 1389 1208 1053 1198 1464 1391 1437 1650 1471 1651 1896 1617 1637 1502 1589 1604 1676 1655 1273
0 0 0 0 25 206 382 562 523 362 362 730 918 1001 871 827 810 831 760 801 952 1069 1284 1608 1749 2111 2197 2128 1887 1671 1530 1306 1399 1195 1224 1716 1553 2086 1606 1606 1505 1729 1798 1496 1572 1660 1641 1514 1327
0 0 4 0 244 353 363 650 569 455 622 1049 1017 1013 895 840 875 969 994 1036 1025 1103 1161 1647 1933 2013 2327 2316 2337 2191 1710 1541 1376 1274 1780 2080 2304 2006 1705 1526 1524 1499 1759 2028 1875 1612 1490 1344 929
0 0 20 120 280 401 455 322 491 731 756 994 922 979 831 856 845 994 1123 1145 1114 1165 1246 1436 1488 1767 2138 2226 2279 2018 1609 1742 2448 1794 1973 1769 1993 1974 1874 1714 1566 1339 1604 1665 1582 1596 1283 707 343
0 1 11 207 245 394 453 206 462 776 829 1001 801 674 734 864 974 1165 1129 1120 1127 1443 1579 1527 1436 1342 1815 2333 2309 2195 2174 2501 2181 2195 2226 1870 1958 1852 1944 1693 1729 1719 1622 1638 1590 984 643 128 21
0 0 24 36 218 342 348 296 507 769 712 770 925 659 605 681 828 1057 1179 1407 1387 1600 1855 1848 1673 1890 2277 3414 2989 2580 2057 1871 1757 2529 2542 2371 2079 1786 1825 1698 1589 1669 1720 1599 847 739 339 182 19
2 19 46 53 178 271 184 152 409 792 773 714 990 927 641 469 556 954 1326 1418 1456 1773 2024 2317 2327 2500 3170 1872 1703 1902 1763 1749 1844 1952 2177 2264 2149 1971 2048 1713 1608 1809 1498 1001 674 290 22 2 47
0 3 40 88 154 179 140 198 211 441 810 680 794 987 1039 654 555 967 1331 1362 1395 1757 2132 2421 2616 2778 3006 2132 2923 2108 2023 1678 1973 2019 2159 2279 2176 2215 2012 1915 1748 1606 728 801 226 112 18 9 200
0 0 18 99 144 180 106 187 170 125 491 662 689 674 1003 877 719 794 985 1236 1320 1541 2085 2427 2770 2950 3081 2717 2701 2840 2644 2642 2220 2060 2150 2323 2430 2386 2300 2086 1442 1315 479 3 212 174 105 26 206
0 0 4 75 109 114 137 108 55 97 315 567 756 684 535 888 923 861 906 1048 1264 1445 1774 2375 2759 3069 3122 3316 3351 3277 2197 1466 1050 1153 944 1112 1734 1868 1772 1764 1347 420 0 62 261 107 202 320 16
0 0 0 26 77 93 123 135 31 38 127 379 694 768 537 303 627 852 878 858 1117 1303 1583 2049 2734 3268 3227 3301 3808 2905 2904 1531 1336 1260 1286 1377 1652 1448 1174 1583 587 303 139 403 341 210 278 110 70
0 0 9 29 44 83 89 74 4 11 133 87 300 605 673 232 213 433 621 730 996 1172 1404 1669 2739 3672 3255 3276 3388 3356 2719 2198 1371 1648 1280 790 876 1304 1341 1506 479 348 186 482 409 214 208 244 221
0 0 21 42 45 43 41 47 0 0 10 29 36 273 678 321 216 296 487 724 1008 1201 1354 1584 2372 3316 3058 3118 3106 3320 3293 3039 2695 2398 1476 672 597 545 1139 1643 578 298 741 561 326 304 170 253 172
0 0 7 29 29 32 15 4 0 27 9 0 20 67 493 485 170 271 468 694 1002 1131 1359 1610 2224 3230 2908 2846 3118 3659 3509 3058 2758 2681 1019 701 304 338 659 1280 434 403 545 623 192 134 139 167 185
0 0 0 34 46 41 6 1 0 4 5 10 29 83 325 585 235 252 457 680 932 1196 1882 2409 3028 2838 2738 2597 2946 3399 3489 3215 2816 2665 2269 1264 920 335 766 718 477 304 611 255 192 102 249 195 252
0 0 0 8 70 0 7 18 0 18 0 0 45 117 257 549 575 225 492 677 938 1166 1416 1739 2071 2586 2481 2508 2648 2777 2961 3222 3134 2890 2516 2063 1078 865 744 664 291 401 329 164 302 134 177 197 28
0 0 0 1 4 23 37 2 0 0 0 0 3 109 144 472 735 665 467 696 1003 1095 1256 1621 1940 2302 2421 2449 3018 2941 2715 2845 3153 3158 2857 2293 1603 1191 942 881 359 493 216 199 330 215 39 114 118
0 0 0 0 1 9 14 2 1 0 0 0 0 3 43 241 735 912 835 856 1000 1260 1233 1413 1647 1872 2219 2984 3207 2837 2943 2890 2852 3601 2886 2746 1871 1007 1006 819 714 368 248 218 321 142 4 20 17

GFSSGP_con_mucape_015.txt.gz
CAPE
1155 1137 1423 1633 344 152 162 157 145 200 197 64 42 82 267 218 118 186 59 266 598 423 502 646 999 1012 1081 1168 1542 1603 1434 1913 1918 2131 2220 1791 2034 2308 2093 1977 1991 1998 1910 1739 1644 1588 1612 1617 1635
1621 1885 2332 2180 305 103 97 180 195 224 261 137 136 222 212 344 265 447 391 490 397 276 497 509 1321 1166 1207 1119 1186 1606 1134 1301 1423 1711 1640 1601 1822 1997 1813 1726 1828 1795 1783 1670 1517 1435 1567 1691 1675
2238 1869 1682 862 58 52 139 161 286 220 248 246 261 217 423 292 403 358 451 295 354 360 636 856 1252 1068 1179 1384 1331 1733 1480 1350 1384 1497 1544 1616 1883 1930 1658 1680 1733 1673 1609 1486 1459 1580 1616 1716 1782
1720 1318 984 33 31 111 259 228 195 213 229 212 322 347 470 550 572 613 593 448 378 333 547 1115 1351 1263 1330 1498 1813 1645 1727 1787 1413 1427 1626 1974 1988 1646 1554 1730 1579 1468 1471 1544 1585 1658 1712 1786 1870
1009 962 575 9 1 52 320 296 274 245 281 237 349 528 512 639 774 846 831 548 660 917 748 733 1682 1468 1549 1660 1961 2032 1952 1845 1582 1626 1940 1988 1819 1688 1751 1629 1376 1366 1511 1670 1886 1805 1812 1757 1843
906 206 66 47 1 8 152 305 316 328 371 213 456 592 883 834 900 850 923 913 904 1163 815 989 1637 1720 1713 1824 1993 1710 1725 1763 1884 1929 2021 1907 1928 1814 1728 1375 1400 1433 1492 1719 1936 1581 1586 1643 1594
590 238 29 47 6 5 14 131 204 230 331 250 480 812 806 969 1036 1169 1113 1071 970 1062 1152 1475 1570 1984 2069 2134 1954 1844 2013 2040 1971 1950 1975 1918 1968 1791 1681 1611 1352 1545 1720 1969 1879 1511 1565 1603 1457
577 24 92 142 42 0 1 39 51 158 420 236 488 793 886 1113 1012 990 1212 933 999 1231 1154 1441 1554 1548 1667 1940 2032 1943 2051 1811 1587 1824 1793 1755 1973 1865 1507 1455 1558 1514 1552 1537 1763 1476 1578 1565 1626
155 102 193 55 175 9 0 26 19 202 280 172 321 643 804 948 893 834 877 1115 932 1204 1202 1140 1199 1367 2011 1903 2308 2149 1945 1538 1562 1693 1832 1666 1542 1824 1979 1728 1327 1363 1469 1352 1597 1467 1661 1563 1656
27 33 126 51 126 88 6 16 21 87 163 328 377 662 742 890 930 912 921 1016 1121 1192 1330 1317 1525 1316 1254 879 1643 1311 1001 967 1020 1045 1625 1136 1847 2102 1389 1443 1430 1310 1361 1407 1532 1609 1742 1958 1923
9 83 59 52 29 171 38 46 24 97 92 279 441 610 642 797 986 959 968 967 953 1199 1433 1459 1814 2107 1200 2070 1253 1448 1433 1330 1211 1470 1432 1220 1592 1712 2117 1613 1933 1959 1574 1661 1832 1701 1980 1772 1235
0 8 6 42 19 67 81 122 30 15 101 128 421 505 598 798 921 951 942 1022 1170 1347 1164 1043 1551 1602 1360 1532 1284 1176 1059 979 1048 1357 1725 1979 1722 1987 1718 2350 2009 2350 2135 1780 2130 1937 1973 1381 1326
0 8 3 0 5 30 132 124 67 15 15 120 446 516 599 746 864 877 842 863 1049 1082 1157 1095 1365 1899 1799 2003 1261 1544 1066 1007 1005 1121 1679 1585 1405 2271 1610 1494 1652 1953 1877 1673 1894 2159 1936 2025 1633
1 0 1 1 4 12 128 123 117 13 27 240 609 600 614 639 695 789 800 848 969 1099 1168 1231 1555 1929 2012 2350 2182 1585 1960 1625 1034 1937 1300 1748 1638 2386 2921 2808 1451 1467 2274 2171 2069 1991 2031 2309 1997
0 0 3 0 1 9 45 87 91 8 217 377 577 633 485 531 539 721 726 786 900 1135 1260 1347 1495 1812 2088 2168 2155 1840 1430 1186 1664 1304 1510 1989 2073 1946 2351 2031 1616 2226 1913 2133 1855 1680 1817 1746 1385
0 0 67 7 0 36 116 151 70 172 222 366 441 623 492 513 485 664 684 737 855 1042 1267 1434 1303 1494 1941 2472 2372 1939 1473 2031 2044 1542 2218 1932 2326 2338 2321 1806 1792 2055 2041 2054 2314 1622 1888 865 123
0 4 17 10 17 159 99 10 137 239 178 194 396 401 530 556 581 686 685 784 832 1075 1306 1516 1592 1521 1976 2895 2358 2244 2853 2687 2007 2176 1413 2718 2215 2382 2488 2042 1782 1997 1725 2228 1746 1721 950 117 5
8 22 78 135 21 188 104 285 303 391 252 117 190 200 335 419 580 705 798 866 941 1118 1389 1633 1604 2279 2647 3808 2871 2863 1835 2064 1879 1658 2154 2243 2122 2147 2383 1702 1833 1915 2212 1868 2020 876 355 133 59
19 66 12 70 31 94 158 183 258 506 474 266 255 148 172 227 475 587 899 896 951 1175 1564 1937 2460 3670 2634 1982 2686 2118 1906 2163 1524 1369 2007 2571 2308 2338 2033 2165 2289 2025 1739 1576 723 373 22 1 136
0 36 65 39 40 63 150 200 296 597 508 537 458 325 223 179 228 478 830 881 1122 1283 2042 3020 3252 4003 3521 2480 2875 2565 2083 1415 1364 1221 2150 2007 2195 2546 2035 2623 1661 2085 1151 1101 442 126 22 7 301
0 11 47 74 146 110 129 148 194 220 532 549 438 544 411 208 68 347 620 920 1089 1431 2121 3206 4019 4280 3988 3735 3138 2831 3269 2326 1745 1284 1988 2097 2085 2041 2181 2104 2176 1786 993 87 320 181 86 44 82
0 0 14 63 57 149 29 160 185 121 194 439 671 553 607 341 189 170 617 954 992 1426 1814 3184 4014 4325 4024 4221 3026 3582 2234 1478 877 1110 901 1588 1557 1450 2181 1835 1206 1109 400 1059 321 90 235 172 69
0 0 14 37 142 202 77 106 58 75 133 174 434 666 638 446 372 257 445 742 909 1159 1441 2529 4175 4430 4485 4462 3650 2669 2904 1146 1007 811 1960 1808 2312 1216 1004 1030 1255 723 10 255 487 119 298 273 81
0 0 26 37 73 111 160 125 193 55 126 167 166 433 753 697 364 577 472 651 772 965 1323 2316 4154 4608 4573 4535 4404 4413 4341 2713 1483 1686 1416 835 781 1118 1109 1062 1065 403 396 463 353 244 191 246 298
0 0 22 62 72 49 108 140 216 125 89 75 67 115 472 816 571 349 768 644 1116 1528 1894 2453 3952 4599 4578 4107 4090 4077 4339 4269 3348 2656 1401 1419 642 815 2189 1719 1331 407 676 593 459 466 333 207 200
0 0 1 30 52 51 53 84 84 110 53 65 43 32 90 540 719 283 395 900 1346 1376 2331 2589 3494 4413 4544 4256 4532 4568 4641 2714 2328 2773 1582 771 633 856 2807 1666 1157 463 619 653 628 268 132 508 92
0 0 0 23 71 90 73 62 41 53 108 78 40 20 24 362 666 449 267 379 982 1342 2195 2641 3483 4139 4334 3238 4648 4682 4617 4462 2654 3201 3465 1702 1741 703 1153 1645 1021 616 663 706 777 162 550 269 306
0 0 0 15 132 137 80 84 67 67 49 27 29 6 10 130 633 531 332 354 897 882 1501 2422 3071 3942 3641 3764 4137 3927 4284 4659 4431 4495 4161 2856 2343 1931 2078 1412 960 705 710 637 581 634 372 330 204
0 0 0 2 45 80 100 102 80 116 56 23 15 11 18 61 501 651 395 399 634 679 1041 1654 2295 3220 3457 3581 3696 3833 3711 3851 4517 4317 4078 3805 2606 2670 1907 1950 1123 668 926 373 429 512 293 409 545
0 0 0 24 28 29 119 88 35 21 21 17 27 25 50 44 261 608 541 500 576 899 769 1037 1522 1582 2649 3060 3814 3886 4009 3961 3808 4364 4249 4189 3441 2714 2356 2032 1410 1112 850 777 660 459 226 198 133

GFSSGP_con_mucape_018.txt.gz
CAPE
735 669 881 132 152 32 117 194 205 177 37 104 91 42 52 200 15 65 48 234 332 266 426 472 1161 1087 933 1505 2087 2249 2516 2649 2669 2785 2774 2837 2889 2803 2667 2539 2391 2259 2017 1664 1605 1623 1659 1639 1578
658 849 719 86 109 60 142 217 158 130 90 219 206 178 135 93 36 52 309 420 345 241 262 433 1453 1494 1288 1826 2084 2144 2214 2236 2449 2469 2429 2741 2726 2501 2252 1831 1745 1689 1597 1511 1466 1599 1647 1730 1652
926 921 751 1163 221 9 255 193 334 277 242 190 237 211 199 154 264 314 340 513 169 242 464 858 1524 1795 1741 1848 2109 2142 2151 2098 2325 2316 2313 2627 2455 2173 1696 1681 1585 1454 1419 1491 1546 1631 1631 1640 1753
1746 1264 1902 941 132 155 97 77 234 101 304 191 287 304 381 303 326 320 430 224 424 635 456 1425 1713 1565 2056 1996 2108 2059 2315 2060 2123 2095 2409 2369 1979 1549 1724 1530 1301 1307 1412 1566 1778 1706 1671 1683 1662
1873 861 612 349 51 282 142 160 195 81 174 311 318 528 589 336 372 345 285 312 501 502 521 1005 1994 2061 2107 2244 2235 2248 1881 1660 2028 2104 2014 1836 1663 1577 1699 1283 1188 1276 1451 1703 1739 1461 1549 1453 1515
262 689 564 11 0 98 123 385 136 77 223 285 303 465 582 852 575 602 555 412 505 462 371 793 1795 2078 2090 2218 2347 2360 1846 1666 1829 1791 1851 1785 1681 1564 1442 1133 1226 1302 1488 1804 1752 1368 1509 1406 1233
244 336 159 39 0 4 20 198 243 75 105 283 621 497 628 828 988 802 721 823 677 667 956 1086 1283 1782 1914 2498 2073 2056 1909 1909 1873 1798 1816 1741 1726 1547 1358 1249 1217 1347 1636 1610 1687 1330 1377 1378 1232
119 191 370 36 1 0 0 31 28 42 282 219 380 373 643 909 1060 986 949 901 860 985 1037 1513 1639 1373 1777 1778 1906 1906 1863 1725 1568 1626 1634 1569 1638 1668 1411 1611 1434 1355 1313 1359 1514 1365 1314 1259 1465
203 19 51 23 3 0 0 0 78 177 104 177 453 394 628 610 1272 858 1129 1023 1192 1109 1041 1291 1292 1971 2302 1991 1567 1974 1824 1511 1320 1534 1731 2084 1475 1983 2031 1885 1751 1296 1393 1211 1446 1510 1672 1776 1982
24 142 3 18 54 1 5 0 0 0 1 133 594 578 521 568 1179 1066 938 888 757 974 960 813 1241 1712 1834 1123 2325 2230 1419 922 1092 1401 2080 1751 1006 2010 1748 1730 1429 1346 1487 1199 1764 2309 2147 2116 1922
1 1 2 39 26 10 29 15 0 3 7 101 614 690 606 542 518 1033 943 801 1008 818 919 1145 1747 1784 1579 2015 1809 1478 1352 1358 1560 2669 2086 2549 1452 959 1486 1967 1097 1688 1771 1520 1637 2044 1537 2319 1817
26 1 16 49 96 73 21 13 0 23 27 85 651 787 716 557 506 433 686 695 1063 1105 1316 1422 1817 1897 2383 1579 1182 1551 1626 1718 1684 2059 2915 3190 3000 2648 1476 2507 1691 1877 1910 1621 2229 1807 1923 2190 1972
2 1 33 10 0 10 18 14 3 19 45 88 301 521 676 643 489 418 604 724 1141 872 1521 1784 2196 2481 3307 2305 2378 1697 2267 1301 1580 2398 2535 2081 2887 1399 2224 2844 2157 2896 2192 2291 1464 2240 2022 1635 1852
0 0 1 1 11 0 73 57 6 3 17 46 221 356 501 609 512 648 719 928 1290 1114 1325 2119 2349 2848 3470 2637 3162 2593 489 2138 771 1293 2417 3209 2919 3371 2677 2619 2316 1738 2305 2808 2599 2725 2590 2548 2308
0 0 0 0 0 12 85 46 41 4 12 92 188 284 383 523 636 692 695 922 1167 1212 1453 2035 2080 2271 2827 3241 3444 3364 2896 1891 1104 1905 2714 2431 3427 3381 3496 2679 2818 2660 2312 2222 2945 2175 2658 2161 1768
0 0 0 5 0 14 48 109 28 4 0 5 193 198 307 375 393 711 642 792 1043 1121 1933 2185 1270 2006 2379 2980 3503 2415 1815 2388 1968 1688 2982 2534 3364 3246 3246 2977 2524 2001 1906 2163 1509 1929 1950 1709 1472
0 0 0 2 3 27 17 144 182 85 0 13 109 164 163 482 484 728 542 886 882 1617 2376 2275 2173 2251 2549 3174 2914 2795 2586 2571 2916 2729 1771 2703 2443 3212 3028 2575 2584 2180 2783 2456 2035 2093 1558 1067 595
0 0 1 14 30 59 149 160 16 100 50 41 26 98 236 142 340 642 629 681 976 1561 2299 2329 2470 3520 3033 2664 3407 3359 2770 2190 1889 3273 2469 2490 3285 3023 2926 2761 2369 2783 2905 2260 2077 1484 1462 726 444
0 0 1 7 19 5 320 119 14 29 163 51 73 62 135 262 408 648 669 701 838 1449 2222 2379 2739 3512 3724 3399 2285 2568 2616 3007 2685 3066 2856 2564 3121 3213 2648 2547 2387 2937 1998 2258 1372 1382 584 572 632
0 0 8 30 40 62 143 416 189 211 235 118 65 27 23 38 224 615 821 716 876 1534 1945 2589 2763 3927 3340 3162 3031 2688 2425 2326 2545 1164 2885 2964 2960 3361 3032 2892 2545 2116 2194 1588 1570 718 620 628 1035
0 0 0 1 24 35 46 60 219 202 194 202 111 108 28 30 41 579 788 795 1051 1458 2155 2780 3083 3438 3059 3429 2922 3304 3083 2588 2500 2557 3078 2382 3210 3000 2645 2720 2617 2652 1813 1806 1329 937 763 434 1102
0 0 0 3 31 20 22 39 367 125 453 284 227 250 251 96 81 281 699 1061 1035 1520 2261 2909 3212 3317 3617 3110 3136 3110 2193 2454 2655 3014 2581 3151 2708 2728 3093 3087 2782 2602 1904 1647 1212 963 535 998 497
0 0 0 0 5 80 191 76 240 315 395 558 328 295 277 552 178 129 561 885 1019 1531 1990 2799 3511 3768 3555 3754 3084 3158 2830 2392 2081 1886 3295 2906 3634 2511 2743 2960 2573 2134 949 2003 1331 937 707 1050 787
0 0 0 0 1 25 43 56 141 270 104 18 258 371 503 496 569 336 429 751 1054 1340 2064 2228 3703 3747 3639 3884 3479 3721 2712 2310 2355 3099 2536 2578 2097 2078 2698 2163 2503 1834 1107 1598 1236 1016 803 745 1163
0 0 0 1 27 8 51 119 109 154 142 44 0 157 583 701 743 606 520 833 1173 1368 1812 2457 3498 3711 3700 3910 3825 3395 3918 3421 3724 3973 2589 1785 945 1546 2282 2638 1954 1363 1437 1899 1504 1574 1325 813 886
0 0 0 0 1 4 16 34 114 345 93 41 41 152 368 713 638 714 786 748 1274 1276 1866 2284 3407 3683 3976 3569 4179 3927 3808 3862 3033 3513 2655 2236 1786 1833 1731 2010 1814 1735 1404 1426 1642 1426 712 1003 695
0 0 0 0 0 23 21 33 23 102 171 6 9 67 76 546 721 776 880 985 1403 1379 1611 2241 3391 3757 4022 3952 3842 4215 3663 3705 3251 3121 3133 2439 2180 2863 1704 1785 1964 1316 1649 1558 1738 905 867 972 1166
0 0 0 0 1 15 22 77 103 173 291 188 13 57 64 44 829 883 773 1083 1265 1549 1647 2266 2870 3649 4056 4015 3907 3870 3929 3594 3337 3322 3448 2300 2706 2169 2184 2078 1788 1243 1141 1603 1300 673 992 1116 916
0 0 0 0 0 2 26 30 156 393 593 436 120 49 49 21 593 715 877 706 1269 1466 1686 2026 2438 3442 3918 3887 3803 3954 3945 3965 3565 3886 3275 2995 3075 2296 2356 2118 1525 1211 1045 1328 845 527 592 481 857
0 0 0 0 0 0 0 20 73 199 163 303 127 124 69 71 216 640 970 724 858 1115 1377 1917 2310 2862 3473 3681 3550 3837 3983 3965 4038 3502 3988 3593 3121 3153 2468 2026 1517 1173 850 1000 635 402 307 532 596

GFSSGP_con_mucape_021.txt.gz
CAPE
861 679 511 206 208 32 93 107 130 61 85 28 14 38 35 16 4 0 4 66 95 94 280 425 1106 1312 1444 1732 2337 2401 2443 2770 2940 2948 2975 2755 2174 2272 2450 2103 1931 2161 1929 1581 1632 1682 1644 1552 1513
553 613 581 14 143 53 172 20 103 179 50 68 124 55 12 5 0 2 48 151 171 135 154 544 1307 1614 1559 2013 2467 2382 2147 2055 2643 2813 2905 2773 2317 2445 2148 1792 1740 1640 1592 1507 1578 1567 1665 1629 1565
722 300 598 193 75 136 140 87 129 229 271 190 184 71 22 70 108 96 150 197 174 152 227 657 1585 1936 1731 1877 2378 2375 2296 1979 2251 2510 2849 2700 2419 1910 1699 1598 1506 1484 1540 1589 1642 1608 1569 1667 1715
759 760 429 543 116 156 188 237 187 283 262 224 207 147 206 224 223 243 258 107 74 310 737 1659 1853 1426 1957 2000 2195 1846 1999 2142 2381 2551 2835 2550 2267 1713 1537 1337 1345 1381 1539 1773 1666 1681 1575 1645 1640
998 591 433 365 175 79 129 116 207 299 263 278 163 208 154 340 231 395 207 207 291 471 890 1308 2238 2241 2266 2060 1957 2286 1837 1854 2425 2746 2652 2558 2241 1722 1395 1222 1193 1275 1471 1751 1552 1409 1497 1447 1532
790 539 362 244 251 159 189 107 153 273 575 494 280 253 192 355 293 178 333 428 440 524 896 1187 1932 2152 2538 2066 1947 2151 1900 1814 2455 2654 2547 2468 2377 2204 1734 1215 1219 1248 1484 1705 1650 1297 1496 1385 1293
85 26 66 108 57 225 309 149 332 298 442 458 527 323 257 265 223 256 360 457 404 406 651 1069 1375 1589 2211 2751 2284 1992 2038 2110 2388 2550 2397 2212 2060 1586 1533 1409 1237 1310 1448 1433 1544 1299 1397 1532 1433
113 46 205 95 62 17 220 102 129 180 420 440 810 639 453 422 368 355 527 454 399 496 762 1035 1305 1393 1828 1776 1922 1847 2020 1908 1926 2058 1772 1744 1617 1577 1362 1768 1619 1305 1212 1279 1395 1535 1622 1804 2016
105 76 58 46 43 6 57 113 246 310 428 548 546 697 771 638 536 634 718 564 779 735 794 1039 1206 1382 1574 1323 1505 2011 1874 1812 1824 1752 2028 2088 1381 1248 1568 1685 1776 1280 1380 1305 1427 2126 2301 2325 2692
59 47 21 12 8 23 116 176 172 235 293 296 556 709 904 836 728 714 782 712 802 806 966 1000 1041 1212 1228 1292 1482 1562 1406 1211 971 1151 1111 1392 1053 738 1553 1749 1991 1362 1482 1748 1932 2194 2349 2216 1433
39 34 76 51 21 50 14 8 6 72 437 302 508 724 903 877 755 714 637 835 866 807 1010 1060 1194 1280 1070 1031 1101 1293 1266 860 503 643 990 1019 1103 828 798 864 814 1003 1399 991 1277 1597 1506 1261 1437
4 28 29 33 89 47 26 0 8 0 218 437 365 270 999 874 823 670 723 835 812 731 834 936 1157 1251 1055 1258 1070 1095 1029 630 603 889 1498 1501 1345 747 1000 1239 798 1070 1354 1128 1312 1311 1103 1305 965
0 10 38 38 47 60 20 10 24 48 522 547 483 322 675 901 763 635 585 626 528 675 758 862 997 1012 1313 1027 480 803 853 897 961 1166 1598 983 1185 889 680 1557 1121 1301 1128 1285 1083 1509 1153 1218 1282
0 3 1 37 87 78 47 47 29 158 628 664 598 445 381 249 599 680 475 685 598 765 837 1072 1087 1050 1081 959 1254 1242 1025 1162 1211 1646 1295 1251 1155 1083 1389 1383 1094 1449 1362 1744 1445 1109 1130 1204 1473
0 0 0 0 4 99 77 35 2 34 456 616 584 519 470 402 289 309 683 590 679 891 866 1142 896 1664 1628 996 1903 1695 1493 681 516 1351 1555 1481 1605 1331 1554 1486 1146 1685 1472 1667 1599 1047 1188 1325 1253
0 0 0 0 0 20 67 34 20 3 210 369 332 428 504 492 364 272 674 772 627 602 1114 1238 1474 1655 1937 1346 1975 1360 1071 1432 1116 1009 1633 1578 1627 1775 1318 1759 1705 1270 1237 1031 992 895 918 872 399
0 0 0 0 0 1 29 18 18 0 152 149 214 203 323 399 388 362 315 791 630 1003 1296 1272 1295 1063 1238 1708 2158 1360 1069 1608 939 1602 1423 1858 1937 1777 1381 1639 1532 1501 1284 1198 1092 752 554 47 0
0 0 0 0 0 12 21 22 0 0 0 124 104 109 121 209 333 391 227 413 479 1095 1158 1046 1201 1122 1063 1953 1941 1652 1410 1701 1637 1402 992 879 1692 1861 1427 1324 1649 1287 1126 1084 639 499 328 10 26
0 0 0 0 22 49 17 16 20 32 3 17 69 31 98 101 149 318 259 442 714 1265 1081 1238 1329 1492 1280 1804 1776 2052 1688 1737 1412 1130 1475 1578 1555 1735 1397 1307 1393 1616 1148 974 484 189 23 0 27
0 0 0 0 40 44 106 18 0 0 19 5 22 27 72 100 97 219 238 274 539 1107 1068 986 1393 2439 1577 1581 1793 1784 1567 1644 1720 1789 2050 1831 1761 1787 1427 1199 1423 1387 1326 875 370 53 0 19 145
0 0 0 0 0 59 116 56 16 0 31 14 9 8 46 55 84 213 200 234 361 829 1201 1203 1303 2311 2184 1913 1694 1586 1566 1701 1576 1668 1607 1832 1871 1941 1617 1508 1414 1427 1104 759 479 6 34 9 154
0 0 0 0 0 0 86 43 39 43 54 19 25 19 19 58 80 161 219 269 252 768 1305 1277 1486 2355 1800 1895 1570 1603 1309 1301 1398 1530 1817 1954 1831 1634 1594 1505 1427 1084 965 615 59 61 24 76 13
0 0 0 1 0 10 0 1 57 83 44 40 26 45 32 34 82 89 305 218 354 805 1089 1555 1574 1747 1811 2120 1498 1402 1351 1010 1336 1483 1468 2194 1882 1740 1596 1601 1536 874 465 352 135 0 0 116 209
0 0 0 0 0 1 0 0 4 74 29 81 100 71 65 69 156 192 201 326 306 860 1219 1825 1789 1763 2202 1484 2031 1712 1920 1552 1424 1266 1841 2070 1601 1353 1860 1597 1238 776 367 222 113 146 34 23 84
0 0 0 0 0 0 0 0 0 36 35 138 151 147 129 166 208 262 264 375 399 917 1462 1876 1884 1984 2160 2200 1809 1931 1980 1498 1269 1763 1577 1742 1420 821 1491 1135 791 692 187 214 167 39 49 28 61
0 0 0 0 0 0 0 0 0 59 56 217 199 47 151 113 210 282 316 246 540 724 1334 2054 2159 2108 2473 2363 2422 2031 2261 1840 1477 1877 1362 1128 944 807 1111 1131 713 692 52 645 446 233 200 85 49
0 0 0 0 0 0 0 0 0 22 65 101 77 40 26 2 299 348 337 268 476 639 1455 1545 2495 2319 2430 2649 2595 2290 2032 2526 2633 2328 1950 1147 639 910 924 1196 737 597 121 189 519 217 53 294 86
0 0 0 0 0 0 0 0 0 0 36 87 35 32 40 22 191 426 356 288 485 662 1242 1566 2601 2504 2580 2122 2752 2834 2502 2203 2521 2702 1853 1772 1194 1546 877 1164 839 566 272 193 482 325 260 127 212
0 0 0 0 0 0 0 0 0 0 109 91 36 27 54 6 82 430 339 343 621 746 1080 1582 2334 2538 2701 2651 2319 2794 3035 2556 2335 2684 2031 1682 1491 1009 1101 1077 992 672 515 404 586 389 128 352 124
0 0 0 0 0 0 0 0 0 0 97 122 94 52 26 3 185 420 493 414 830 850 887 1554 2636 2687 2817 2959 2752 2492 2866 2958 2496 2181 2291 2014 1507 1413 1266 1057 1155 845 569 528 639 405 191 95 397

GFSSGP_con_mucape_024.txt.gz
CAPE
441 329 407 89 110 29 37 128 173 37 38 12 11 9 0 1 0 0 8 2 13 38 211 517 981 1416 1756 2424 2641 2583 2636 2416 2897 2869 2319 2008 2020 2090 2027 1901 1809 1739 1603 1615 1750 1823 1694 1664 1570
711 610 368 30 103 70 75 85 139 87 12 17 11 6 1 0 0 5 26 0 33 144 282 535 1147 1502 2020 2247 2558 2655 2299 2068 2778 2556 2283 1982 2079 2038 1853 1791 1666 1546 1583 1619 1625 1683 1748 1684 1614
573 103 67 64 103 109 13 148 114 86 135 72 11 0 0 4 0 0 4 52 103 199 457 699 1434 1933 2067 2157 2420 2501 2318 1879 2155 2047 1805 1795 1857 1783 1621 1525 1485 1586 1667 1730 1703 1625 1637 1725 1625
662 268 704 815 176 95 108 360 194 266 222 73 30 45 74 57 32 33 127 96 117 169 590 1289 1560 1401 1931 1946 2070 1776 1790 1711 2017 2273 1869 1758 1800 1572 1386 1392 1424 1578 1806 1843 1643 1622 1578 1622 1651
819 386 83 269 84 98 182 459 458 218 224 177 118 149 110 149 121 195 195 120 151 323 672 1084 1983 2069 1949 1950 1747 1902 1647 1603 2080 2210 1783 1715 1732 1428 1323 1290 1355 1487 1668 1847 1466 1500 1443 1552 1610
680 258 85 42 27 96 282 452 414 313 276 207 198 177 92 193 254 257 142 174 422 665 1079 1319 1731 2103 2105 1689 1653 1658 1488 1679 2148 2108 1914 1762 1760 1481 1285 1276 1293 1391 1635 1728 1634 1401 1552 1443 1409
42 5 13 24 54 70 398 438 391 402 295 256 175 166 215 295 344 149 243 352 426 856 1192 1363 1328 1183 1671 2226 1813 1689 1481 1645 1940 1936 2070 1940 1658 1537 1206 1215 1299 1419 1537 1550 1619 1387 1444 1459 1415
45 0 53 37 6 132 289 521 476 409 479 329 286 229 255 272 250 330 370 400 441 784 1025 1360 1409 1405 1713 2034 1995 1909 1697 1725 1867 1964 1861 1789 1769 1587 1460 1599 1679 1481 1370 1329 1436 1599 1641 1514 1444
311 0 52 0 1 165 345 525 599 572 523 352 664 280 229 248 305 457 473 422 478 524 913 1265 1331 1627 1799 1768 1653 2045 1826 1816 1885 1840 1867 2099 1313 1254 1619 1713 1789 2075 1521 1481 1449 1741 1858 1806 1772
562 0 24 8 4 121 130 363 492 659 580 713 528 390 291 272 341 394 493 478 424 595 703 1089 1304 1473 1428 1401 1318 1466 1443 1483 1387 1380 1298 1526 1053 944 1351 1689 2095 1773 1634 1752 1772 1901 2107 1634 1228
160 21 25 51 62 128 221 380 476 658 658 661 594 524 421 379 415 557 542 566 564 652 773 852 1021 1193 1154 1067 1305 1342 1179 1047 782 655 688 762 849 785 1196 906 1306 1301 1466 794 1063 1447 1032 1225 1079
36 23 17 61 73 99 258 420 487 448 417 504 835 664 538 528 503 656 630 668 693 697 877 851 856 921 906 784 1253 1053 902 729 330 293 647 796 939 669 564 866 864 857 1172 1143 1227 1269 1135 1140 916
0 0 13 57 88 75 126 212 444 417 423 581 867 821 621 605 528 565 615 670 709 789 906 871 903 925 801 859 615 578 840 630 381 420 589 980 1086 777 686 981 1027 988 899 1044 1022 1154 1023 1002 1291
0 0 3 12 29 79 50 25 187 369 551 749 900 877 780 690 498 476 569 690 762 793 902 923 906 964 769 1001 787 500 596 643 540 659 765 1028 952 762 714 1081 1103 1275 1269 1138 1181 1043 922 1208 1159
0 0 0 0 0 61 47 87 554 580 512 514 929 899 897 841 668 484 574 697 770 713 780 802 918 939 812 902 827 386 598 804 888 853 1027 1135 1137 1021 1353 1284 873 1326 1275 1513 1104 862 717 934 508
0 0 0 0 15 56 33 55 647 605 512 415 657 965 847 888 772 671 567 598 543 671 725 736 759 830 1006 841 653 1524 1110 732 686 1016 1118 1169 1043 1056 1170 1223 1380 1136 1029 988 836 759 630 323 8
0 0 0 0 2 46 39 6 165 642 577 529 396 423 623 637 566 709 626 466 368 559 653 730 676 704 1130 767 1188 1077 1051 961 846 886 1226 1084 1196 1411 1065 1177 1164 1248 1134 1075 897 655 311 51 1
0 0 0 0 0 32 46 14 3 637 607 548 519 412 376 312 333 276 538 515 392 587 769 808 668 839 1232 1068 1492 1023 751 803 1110 1158 1112 1280 1496 1506 1200 1021 1237 1244 1116 977 610 314 286 2 0
0 0 0 0 0 5 22 24 2 403 461 491 514 470 414 337 312 274 531 523 471 512 876 846 883 908 1412 1261 1308 1255 934 963 1168 1173 926 1242 1426 1327 1149 889 1310 1115 969 707 311 134 5 0 6
0 0 0 0 0 2 38 37 7 82 224 284 313 319 379 319 323 320 313 589 629 814 948 907 877 808 915 1057 1114 1251 1133 1092 1146 1285 1007 796 1064 1429 1277 1164 1073 1217 1024 975 365 149 0 0 25
0 0 0 0 0 17 21 29 6 1 22 91 156 172 210 164 175 278 293 402 590 815 881 900 902 899 893 965 1266 1395 1272 1420 1423 1421 1476 1669 1421 1443 1496 1165 969 1072 1129 787 438 31 0 0 16
0 0 0 0 0 0 6 2 14 20 3 0 45 97 137 109 66 98 226 200 344 612 786 784 1046 1132 1007 1045 1340 1309 1363 1360 1186 1286 1378 1623 1458 1467 1396 1088 930 1013 1054 671 513 12 8 0 0
0 0 0 0 0 1 0 0 0 15 0 0 1 60 62 60 40 38 124 174 220 469 621 667 988 1605 1376 1228 1204 1318 1187 1053 936 1109 1262 1390 1606 1437 1304 1122 961 921 789 628 206 14 15 9 1
0 0 0 0 0 0 0 0 0 0 1 0 22 33 37 67 27 1 58 98 111 340 666 676 700 1512 1604 1426 1285 1227 1173 1016 817 962 1132 1481 1453 1427 1277 1302 1275 992 532 331 41 7 4 53 28
0 0 0 0 0 0 0 0 0 0 0 0 1 16 21 85 54 20 48 65 101 220 631 803 803 1014 1456 1573 1468 1326 1162 1014 857 799 1123 1360 1570 1424 1556 1360 1256 942 645 313 34 30 30 10 52
0 0 0 0 0 0 0 0 0 0 0 0 17 11 22 77 68 73 65 121 165 208 637 1005 957 894 1280 1379 1421 1275 1219 1080 1094 1253 1117 1297 1299 1352 924 1392 1207 995 670 359 78 35 29 20 6
0 0 0 0 0 0 0 0 0 0 0 0 14 33 27 117 93 114 96 127 217 273 742 1128 1146 1035 1383 1332 1174 1434 1561 1377 1366 1516 1349 1451 1292 1114 937 1245 1113 799 508 224 128 110 89 81 19
0 0 0 0 0 0 0 0 0 0 0 0 16 28 28 124 129 163 110 118 212 249 834 1099 1329 1235 1398 1659 1519 1355 1317 1722 1744 1673 1475 1371 1229 1007 788 943 714 524 500 277 229 180 183 86 159
0 0 0 0 0 0 0 0 0 0 0 0 13 40 70 166 178 199 164 129 191 295 872 1297 1505 1379 1666 1753 1752 1796 1639 1340 1722 1921 1887 1556 1370 1157 805 751 598 533 490 380 328 317 264 214 33
0 0 0 0 0 0 0 0 0 0 0 0 0 115 205 247 146 209 201 173 220 418 903 1319 1849 1638 1771 2031 2039 2032 1939 1830 1633 1779 2167 2222 1720 1383 1203 959 764 675 602 521 380 353 346 292 75

GFSSGP_con_mucape_027.txt.gz
CAPE
354 322 209 123 118 23 96 118 111 30 17 24 2 0 0 0 0 0 2 10 32 46 201 648 1198 1245 1666 1756 2390 2436 2245 2156 2209 2031 1877 1887 1900 1944 1892 1838 1803 1663 1622 1628 1867 1763 1755 1637 1441
294 329 317 17 47 51 70 87 98 86 33 20 1 2 1 2 1 12 15 9 29 113 216 582 1357 1568 1730 1853 2394 2468 2115 2179 1992 2016 2005 1969 2004 1882 1778 1747 1566 1557 1626 1638 1635 1751 1739 1678 1577
586 263 101 26 15 34 29 136 117 35 30 51 3 13 0 0 8 5 0 0 36 209 440 737 1327 1572 1740 1831 2116 2466 2218 1957 1852 1854 1943 1982 1879 1727 1597 1525 1586 1628 1718 1739 1700 1659 1719 1779 1534
44 289 534 224 254 125 122 134 141 157 152 80 4 14 40 4 1 5 5 95 136 320 588 1028 1464 1560 1754 1736 1817 1795 1856 1919 1862 1714 1837 1904 1713 1511 1434 1463 1590 1723 1876 1672 1613 1592 1681 1702 1500
418 272 119 213 138 99 255 135 245 176 111 36 46 57 29 50 29 6 106 113 182 509 754 1069 1758 2079 1959 1698 1617 1545 1585 1984 2029 1842 1799 1851 1570 1376 1378 1386 1486 1615 1827 1811 1492 1626 1463 1579 1434
441 119 66 141 62 186 314 316 304 216 149 60 37 60 124 126 86 194 115 90 157 501 879 1126 1604 1714 1828 1702 1656 1587 1543 1901 2063 1866 1798 1834 1657 1396 1395 1364 1390 1519 1764 1722 1567 1515 1555 1315 1211
59 6 3 31 78 334 374 410 286 225 156 95 49 80 179 162 205 223 134 219 222 816 1040 1169 1084 1236 1611 1720 1671 1562 1549 1887 1966 1997 1867 1765 1786 1511 1373 1346 1381 1456 1438 1577 1617 1387 1418 1364 1253
24 0 2 5 101 187 424 369 276 190 241 141 76 88 149 227 281 177 238 360 424 1043 1173 1220 1086 1053 1365 1402 1705 1547 1516 1683 1932 1936 1937 1883 1733 1491 1468 1465 1482 1527 1389 1340 1467 1361 1474 1411 1630
5 119 5 29 79 129 455 463 257 367 180 128 227 163 125 319 261 240 368 373 641 951 1204 1306 1144 1054 1537 1640 1539 1685 1580 1645 1788 1868 1885 2158 1512 1295 1598 1647 1781 1839 1581 1505 1506 1491 1515 1761 1679
380 224 6 1 31 130 437 477 309 374 156 461 557 183 288 375 300 301 398 348 519 662 1082 1280 1288 1291 1559 1803 1517 1596 1354 1344 1601 1621 1546 1754 1030 765 1228 1702 1967 1665 1686 1727 1860 1613 1791 1303 1033
322 288 47 19 44 223 474 475 523 415 263 487 163 258 297 328 378 391 470 283 365 525 814 1080 1224 1441 1421 1453 1431 1490 1364 1377 1440 1392 1153 1094 946 827 1002 1092 1388 1025 1435 784 1010 1198 917 1266 835
63 36 39 31 17 83 491 511 517 375 296 453 181 234 288 316 427 458 499 431 271 458 563 914 1023 1264 1346 1108 1210 1294 1209 1202 1006 650 467 511 665 713 800 844 758 717 901 1026 1016 1092 1090 925 979
69 18 3 24 9 3 386 461 600 550 496 453 335 289 276 295 361 405 424 456 377 481 500 674 854 943 1120 792 922 1073 968 844 641 290 481 705 901 935 402 703 873 782 830 1139 961 1064 1031 743 1057
0 0 0 0 0 3 365 517 575 677 673 638 500 378 317 300 336 461 449 471 476 549 593 646 657 657 824 537 375 781 640 531 349 424 487 668 927 1101 549 785 1130 1081 1302 1035 1193 1116 791 996 1050
0 0 0 0 0 0 59 452 526 491 656 810 645 534 448 386 412 524 616 586 533 637 678 678 620 612 644 471 495 217 180 383 478 385 541 717 876 1002 722 896 993 1126 1172 1252 1144 807 633 751 91
0 0 0 0 0 0 0 25 306 409 606 838 790 729 636 517 471 506 670 599 599 644 725 697 776 681 636 575 662 502 283 521 618 664 759 768 960 960 871 1044 905 1081 1258 1146 919 669 398 264 52
0 0 0 0 0 0 0 0 347 458 633 770 827 814 761 636 605 452 548 628 631 617 680 685 756 760 671 584 719 792 1097 1011 713 754 846 937 1062 926 1013 1066 1253 1073 993 1049 930 571 202 118 6
0 0 0 0 0 0 0 14 447 519 633 807 787 803 850 757 720 560 468 538 592 613 606 662 687 714 717 530 570 722 1309 926 665 771 974 966 1036 1186 1177 994 1038 1120 1111 1087 817 360 189 0 0
0 0 0 0 0 0 0 0 438 434 474 523 802 833 885 799 787 774 625 563 531 541 649 545 607 602 614 739 670 695 987 914 798 899 887 1063 1022 1181 1271 1124 979 1156 1094 940 422 272 0 0 0
0 0 0 0 0 0 0 0 16 428 441 439 475 593 715 785 658 692 656 650 575 487 477 487 569 541 529 724 741 892 985 642 652 979 1040 920 1090 1277 1272 1133 1048 1074 1021 550 318 150 21 0 0
0 0 0 0 0 1 0 0 0 313 469 476 420 374 363 344 381 241 280 413 457 463 391 491 529 483 518 691 821 1008 947 832 864 862 1034 1047 918 1105 1297 1161 981 1043 1033 874 655 212 0 0 0
0 0 0 0 0 0 0 0 0 24 426 478 481 401 316 238 216 157 162 329 366 410 413 511 525 548 593 721 955 924 767 656 887 1055 1176 1188 1349 1021 1153 1217 1216 891 993 922 629 308 0 0 1
0 0 0 0 0 0 0 0 0 0 43 220 319 318 311 261 216 169 111 234 352 341 416 577 587 585 636 707 781 812 699 669 927 1062 1222 1219 1325 1445 1278 1338 1054 805 913 999 602 331 9 3 1
0 0 0 0 0 0 0 0 0 0 0 0 49 139 146 168 183 193 185 169 269 361 563 565 568 618 672 717 640 729 815 841 850 1002 1037 1050 1199 1419 1321 1339 954 751 799 759 568 181 8 9 0
0 0 0 0 0 0 0 0 0 0 0 0 0 0 8 50 94 111 103 109 202 282 587 638 601 775 771 714 730 876 919 870 754 786 797 844 1053 1292 1472 1231 1124 934 762 452 293 59 0 5 8
0 0 0 0 0 0 0 0 0 0 0 0 0 0 4 0 26 74 63 48 80 149 379 559 605 838 1013 969 911 928 1006 988 870 900 938 729 1052 1352 1309 1245 1234 1131 831 628 422 54 0 0 0
0 0 0 0 0 0 0 0 0 0 0 0 0 0 0 24 20 57 91 65 60 81 200 475 519 688 1156 1146 1011 980 1031 1027 952 1050 973 679 929 1135 1250 1323 1304 1225 924 772 490 125 24 18 0
0 0 0 0 0 0 0 0 0 0 0 0 0 0 0 14 15 61 94 98 61 52 84 419 544 546 843 1205 1124 1000 1029 1047 1090 1048 934 849 1020 1110 1085 1326 1195 1186 1038 888 515 165 39 27 3
0 0 0 0 0 0 0 0 0 0 0 0 0 0 0 0 5 50 103 147 117 66 42 320 596 616 639 952 1106 1123 1089 1096 1082 1051 929 1079 1330 1259 1333 1187 933 1166 1128 845 492 147 65 62 49
0 0 0 0 0 0 0 0 0 0 0 0 0 0 0 0 4 27 100 176 150 112 74 357 666 716 703 938 976 962 1024 1177 1305 1177 1118 1198 1441 1301 1317 1142 901 915 995 671 456 296 175 93 68

GFSSGP_con_mucape_030.txt.gz
CAPE
417 675 162 208 132 25 70 79 78 6 11 24 16 6 5 7 1 0 0 58 88 12 172 305 1319 1602 1761 2437 2520 2329 2068 1956 2143 2164 1917 1806 1863 1767 1699 1780 1677 1604 1615 1893 1759 1736 1699 1571 1298
494 202 307 5 19 44 59 79 80 41 17 17 0 0 0 1 0 1 1 6 6 62 248 321 1630 1930 1897 2254 2311 2463 1817 1845 1902 1928 1970 1965 1848 1732 1687 1560 1516 1626 1686 1589 1693 1743 1667 1616 1296
382 520 63 29 12 43 38 60 70 37 29 14 0 6 0 16 0 0 0 9 52 135 287 702 1499 1942 1803 1805 2005 2547 1978 1930 1920 1915 1969 1905 1743 1631 1502 1496 1609 1668 1787 1714 1639 1710 1775 1559 1340
238 268 408 258 167 116 39 44 40 106 104 54 0 1 0 1 0 0 1 11 104 291 571 1345 1631 1640 1910 1778 2066 2119 1792 1738 1766 1882 1906 1777 1593 1460 1447 1517 1640 1828 1841 1631 1583 1569 1630 1525 1333
403 192 179 241 277 105 145 89 130 118 80 50 27 0 9 33 15 5 39 70 213 446 811 1231 2135 2064 1999 1751 1906 1868 1861 1823 1726 1817 1879 1666 1470 1399 1379 1400 1535 1706 1912 1746 1615 1463 1457 1397 1298
256 143 80 104 118 141 277 146 238 120 93 54 15 12 93 67 16 40 70 91 312 609 885 1107 1787 1871 1832 1613 1594 1594 1834 1945 1806 1733 1820 1697 1451 1428 1388 1350 1409 1655 1749 1742 1453 1568 1457 1232 1208
33 25 41 63 89 240 319 198 291 149 82 71 40 59 146 32 72 77 80 107 356 665 920 1028 1134 1477 1643 1664 1565 1518 1658 1933 1907 1847 1782 1818 1604 1386 1391 1355 1425 1473 1460 1587 1437 1383 1397 1344 1282
58 20 27 76 91 138 369 328 264 75 102 40 67 50 96 84 138 97 105 114 407 793 898 993 1027 1196 1331 1404 1614 1487 1602 1873 1911 1940 1841 1698 1681 1471 1488 1471 1487 1719 1474 1367 1490 1355 1513 1467 1495
196 18 23 3 80 121 377 318 294 190 103 91 112 80 73 186 164 169 198 190 631 934 984 962 959 1012 1167 1254 1332 1500 1505 1621 1815 1782 1851 1671 1501 1305 1586 1849 2011 1867 1673 1501 1530 1462 1566 1722 1782
194 210 50 0 17 50 399 396 288 354 75 267 198 127 177 269 181 206 165 167 413 663 963 999 957 951 1222 1507 1312 1290 1122 1232 1316 1571 1557 1688 1332 656 1450 1902 2244 1738 1718 1449 1696 1776 1557 1314 1313
600 424 223 0 143 140 416 486 372 363 89 272 397 152 278 244 226 252 203 170 292 498 841 999 978 958 1256 1539 1467 1386 1264 1229 1255 1377 1370 1098 1086 751 777 1108 1098 826 1286 1145 790 1059 918 1271 841
398 133 103 62 13 322 463 514 440 450 130 198 278 176 346 229 264 282 298 254 246 471 673 975 1010 1030 1145 1387 1475 1337 1275 1182 1125 1102 983 615 388 483 707 886 709 656 738 1173 1247 1100 1074 800 995
98 21 29 25 14 16 371 507 468 538 262 451 173 319 335 244 268 267 308 270 220 349 570 878 955 1047 1084 1156 1241 1156 1146 1027 915 767 427 411 630 760 734 602 702 728 741 945 1062 1201 1003 635 949
0 6 9 0 0 2 66 473 475 552 430 415 240 303 280 275 301 289 334 374 195 263 393 649 804 893 1043 975 942 907 931 782 690 536 223 441 662 793 887 555 734 1093 1040 1176 1135 1067 932 931 924
0 0 0 0 0 0 26 365 506 481 490 521 218 246 250 255 340 331 397 411 337 277 266 460 592 685 824 856 706 506 594 523 425 343 482 412 570 673 946 602 776 937 1066 1050 1116 789 662 494 162
0 0 0 0 0 0 136 104 393 473 544 509 286 230 214 238 299 323 352 344 377 357 382 420 518 484 483 588 518 189 186 281 342 326 489 486 546 670 839 721 787 895 976 1083 998 717 371 229 117
0 0 0 0 0 0 17 0 84 461 518 534 438 325 279 253 273 339 444 376 400 419 502 547 463 430 368 320 262 254 131 148 283 404 482 635 621 620 824 787 863 889 914 918 869 548 235 84 0
0 0 0 0 0 0 0 0 20 316 491 583 518 456 426 378 342 369 430 491 476 473 529 583 502 493 387 287 272 295 385 490 882 848 536 689 804 854 875 864 916 987 893 888 893 405 123 0 0
0 0 0 0 0 0 0 6 185 244 391 554 562 588 545 529 423 416 367 416 508 496 496 606 569 548 515 375 349 369 519 705 1027 609 616 738 856 995 853 906 939 900 971 1000 742 231 102 0 0
0 0 0 0 0 0 0 0 95 313 353 431 582 590 614 594 525 512 442 288 376 481 460 512 571 545 580 445 324 386 432 610 1049 733 731 748 846 954 942 1017 1011 811 897 852 504 202 92 0 0
0 0 0 0 0 0 0 0 0 230 299 385 534 544 569 602 648 579 525 424 283 336 406 432 487 547 552 516 417 495 535 584 844 784 702 889 810 1020 1035 1041 1079 939 866 825 406 298 123 0 0
0 0 0 0 0 0 0 0 0 15 257 279 285 459 567 597 629 556 544 534 492 411 369 312 348 462 480 478 462 546 625 619 610 726 565 740 867 833 1079 1244 1128 1028 920 847 703 519 185 0 0
0 0 0 0 0 0 0 0 0 0 115 289 307 281 284 430 460 570 496 425 479 476 500 426 330 375 384 415 456 464 544 613 621 637 592 693 884 958 971 867 1097 1093 1036 839 764 564 250 0 1
0 0 0 0 0 0 0 0 0 0 0 137 262 335 342 289 314 310 309 250 249 292 318 347 355 317 290 323 443 474 494 505 572 479 614 858 1035 1146 1259 1272 1218 1186 889 711 761 651 347 3 0
0 0 0 0 0 0 0 0 0 0 0 11 50 130 282 373 373 327 226 153 105 173 193 179 233 288 306 308 344 484 536 523 508 466 530 660 875 1007 1161 1234 1170 1230 924 683 838 598 391 0 1
0 0 0 0 0 0 0 0 0 0 0 0 2 9 7 30 175 272 288 166 103 145 178 201 265 341 359 359 336 393 552 555 515 547 598 553 612 705 931 1189 1280 1305 1043 722 574 412 150 0 0
0 0 0 0 0 0 0 0 0 0 0 0 0 0 0 0 1 38 87 147 130 85 130 298 341 339 375 421 394 389 501 600 548 619 730 657 646 678 757 1012 1332 1345 1136 848 574 417 171 9 1
0 0 0 0 0 0 0 0 0 0 0 0 0 0 0 0 0 2 0 19 52 85 86 247 411 406 457 552 561 563 592 663 626 667 818 830 770 841 782 1123 1196 1254 1212 1012 755 638 366 86 24
0 0 0 0 0 0 0 0 0 0 0 0 0 0 0 0 0 0 0 7 26 49 39 102 340 435 496 806 787 762 743 753 718 743 826 884 867 950 711 996 1092 1194 1304 1148 940 777 531 173 4
0 0 0 0 0 0 0 0 0 0 0 0 0 0 0 0 0 0 0 2 21 37 60 47 271 377 451 849 969 912 824 801 777 776 830 874 957 956 672 905 1095 1064 1308 1146 1074 985 682 229 5

GFSSGP_con_mucape_033.txt.gz
CAPE
321 398 364 331 324 122 99 146 173 94 60 45 24 17 29 35 5 10 57 105 175 147 295 501 1278 1580 1661 1873 2650 2680 2455 2245 2453 2226 1739 1784 1849 1727 1754 1679 1593 1569 1603 1742 1501 1698 1623 1247 1272
425 340 352 40 114 174 134 109 137 86 45 14 6 0 7 12 10 18 59 111 55 162 236 593 1354 1975 1946 2330 2684 2577 1910 1964 2030 1845 1787 1724 1748 1747 1660 1575 1675 1866 1756 1711 1801 1753 1594 1263 1214
327 446 227 141 111 143 87 108 107 42 14 4 3 0 0 16 11 15 26 86 50 69 306 1194 1607 2303 2135 2170 2304 2498 2248 1907 1944 1892 1876 1819 1718 1620 1539 1649 1801 2014 1884 1668 1730 1737 1696 1403 1154
576 324 360 395 182 189 119 162 122 122 49 25 9 10 15 16 17 13 43 46 56 162 420 1479 1985 1807 2104 2095 2199 1878 1915 1926 1926 1936 1842 1689 1579 1471 1550 1669 1898 1936 1676 1528 1499 1633 1617 1380 1284
143 190 352 286 204 170 222 156 208 181 83 34 6 6 34 91 39 49 95 80 149 272 782 1149 2263 2310 2078 2105 2160 1788 1755 1796 1899 1920 1790 1620 1460 1426 1474 1537 1671 1848 1821 1558 1490 1383 1428 1319 1267
596 219 111 98 119 200 280 202 288 237 91 5 9 24 98 128 57 108 99 151 213 373 677 952 1719 2027 2069 1950 1880 1815 1793 1780 1852 1918 1776 1576 1513 1483 1439 1450 1583 1750 1653 1442 1475 1462 1314 1223 1475
123 68 26 44 81 300 396 329 409 250 85 41 36 67 130 101 81 142 150 314 375 545 800 907 955 1567 1652 1707 1673 1782 1914 1869 1837 1800 1866 1712 1503 1458 1418 1433 1498 1447 1468 1432 1317 1399 1396 1274 1564
154 19 43 47 154 247 511 339 320 186 102 49 67 112 70 152 159 220 215 412 497 638 816 1174 809 1039 1218 1397 1562 1561 1786 1906 1919 1840 1762 1651 1633 1458 1520 1522 1438 1697 1364 1398 1409 1393 1462 1452 1482
139 22 89 19 103 113 593 470 256 193 100 52 115 86 78 220 222 250 277 444 612 746 798 891 923 1425 1667 1481 1423 1472 1621 1793 1844 1830 1786 1614 1722 1736 1759 1822 2042 1765 1512 1433 1502 1443 1570 1758 1782
229 166 136 17 73 21 551 533 368 294 111 109 205 116 114 256 273 258 290 360 428 642 798 871 908 1166 1377 1146 1536 1568 1218 1023 1326 1440 1859 1692 1697 1584 1669 1970 1964 1595 1526 1494 1533 1679 1845 1550 1575
486 360 235 0 46 169 555 575 487 386 191 190 316 247 242 278 278 256 231 235 366 469 603 835 974 1238 1171 1044 1326 1487 1204 1170 1341 1805 1827 1619 1719 1673 1686 1872 1739 1812 1494 1561 1416 1724 1563 1864 1426
296 353 293 136 94 410 607 647 529 470 112 96 314 255 323 306 271 240 198 207 320 514 569 728 897 1185 1193 1079 1207 1257 1251 1195 1056 1168 1798 1580 1213 1405 1759 1817 1866 1866 1617 1583 1893 1810 1806 1651 1682
684 242 36 113 27 7 505 636 669 649 262 360 495 364 353 297 267 246 244 278 388 514 528 704 921 1190 1289 1415 1087 1088 1349 1064 853 1163 1215 1021 1170 1689 1847 1701 1694 1918 1457 1427 2279 1864 1712 1558 1392
1 37 0 0 0 0 37 126 592 689 484 668 514 388 331 292 299 334 368 398 383 450 516 759 940 1107 1265 1262 1435 1496 1457 1157 1168 821 821 1046 1154 1857 1855 1778 1542 1802 1919 2093 1736 2094 1599 1677 1574
0 0 0 0 0 0 0 15 438 597 646 651 500 389 355 317 415 476 537 577 445 426 536 702 954 1036 1253 1292 1320 1496 1302 1063 746 666 1041 951 1104 1699 2034 2079 1714 2014 2011 2314 2142 1540 1393 302 80
0 0 0 0 0 0 0 0 53 625 686 669 487 435 498 477 548 590 618 690 618 456 643 761 738 931 1160 1185 1267 1170 1085 860 583 584 650 877 1080 1615 1877 1993 1698 1709 2173 2641 1890 1234 1173 439 97
0 0 0 0 0 0 1 0 14 610 749 750 586 525 515 540 632 696 678 728 755 722 700 755 843 872 1036 1167 1147 1102 920 581 462 506 592 975 1358 1631 1729 1827 1772 2007 1840 2183 1689 1368 967 153 57
0 0 0 0 0 0 5 2 36 575 755 818 653 533 568 535 530 616 645 672 768 865 961 859 847 972 1086 980 1007 853 696 392 281 423 860 1173 1638 1777 1950 1811 2137 1977 1830 1875 1651 1369 642 85 155
0 0 0 0 0 0 0 0 26 514 717 826 808 654 617 584 518 537 604 717 732 863 1006 1147 1137 1537 1080 919 731 504 307 423 831 1269 1591 1700 1766 2015 2201 1913 2103 2078 2007 1976 1764 1111 750 0 158
0 0 0 0 0 0 0 0 2 408 713 793 872 852 786 706 580 585 634 737 827 973 1124 1399 1574 1655 1355 1075 1093 612 736 607 1226 1657 1740 1756 1919 2239 2230 2137 2044 2088 1921 2099 1741 1036 470 192 124
0 0 0 0 0 0 0 0 0 143 465 658 901 840 835 833 747 726 699 735 858 1123 1307 1670 1991 1960 1620 1529 1037 907 1032 1227 1370 1601 1766 1853 2034 2280 2347 2330 2073 2207 2097 1758 1800 1013 584 65 140
0 0 0 0 0 0 0 0 0 6 391 553 659 850 866 925 856 838 827 842 778 1280 1238 1730 1816 2079 1700 2004 1478 1639 954 837 1016 1500 1738 1803 2052 2176 2267 2343 2145 2320 1953 1938 1720 1092 569 143 111
0 0 0 0 0 0 0 0 0 0 107 427 588 734 805 861 908 915 951 1173 926 832 945 1164 1806 1993 2014 1987 1946 1627 1618 1099 1121 1357 2156 2703 2229 2081 2007 2322 2286 2303 2112 2103 1912 1167 568 204 91
0 0 0 0 0 0 0 0 0 0 0 91 400 562 706 854 865 972 1034 1075 992 866 771 839 1678 1896 1990 1956 2009 2163 2144 1959 1378 1479 1473 1470 1525 1693 2069 2118 2379 2348 2180 2183 1921 1422 854 351 151
0 0 0 0 0 0 0 0 0 0 0 0 105 477 560 636 902 969 1081 1064 1268 1381 1232 1200 1558 1723 1850 1789 1874 2024 2093 2298 2321 2059 1485 1793 1504 1573 2182 2516 2489 2281 2309 2150 1822 1451 874 559 240
0 0 0 0 0 0 0 0 0 0 0 0 0 83 466 634 608 704 1067 1327 1194 1131 1421 1257 1432 1639 1756 1701 1813 1988 2137 1641 1828 1864 1388 1440 1376 1639 2262 2527 2477 2434 2212 1904 1581 1337 836 523 506
0 0 0 0 0 0 0 0 0 0 0 0 0 0 100 411 623 707 831 1019 1032 1030 1273 1397 1391 1551 1677 1628 1753 1862 1997 2034 1885 2197 2273 1526 2175 1537 2011 2373 2467 2425 2177 1738 1482 1176 879 473 504
0 0 0 0 0 0 0 0 0 0 0 0 0 0 0 50 233 492 820 1044 1050 789 1180 1347 1345 1506 1629 1669 1678 1660 1760 1976 2062 2246 2224 2161 2212 2055 1871 2096 2187 2336 2255 1807 1427 1059 883 543 326
0 0 0 0 0 0 0 0 0 0 0 0 0 0 0 0 30 67 513 893 1123 842 900 1258 1409 1550 1705 1743 1757 1766 1737 1849 2021 2105 2207 2283 2380 2095 2321 2180 2158 2297 2264 1903 1596 1301 921 627 565
0 0 0 0 0 0 0 0 0 0 0 0 0 0 0 1 65 28 31 274 467 1031 984 923 1337 1477 1632 1727 1847 1883 1943 1959 2021 2121 2209 2316 2400 2279 2686 2450 2198 2310 2219 1974 1740 1477 984 831 733

GFSSGP_con_mucape_036.txt.gz
CAPE
122 236 270 484 628 520 152 210 248 272 275 228 39 55 22 70 52 49 110 131 254 137 231 616 1439 1643 2003 2266 2731 2743 2277 1977 2316 2154 1871 1931 1857 1838 1731 1573 1566 1767 1677 1596 1719 1628 1341 1394 1465
509 465 281 171 612 293 216 297 274 344 247 159 96 100 82 142 102 102 295 229 113 142 786 872 1726 2090 2106 2312 2604 2683 1938 2023 1991 1951 1996 1872 1882 1768 1626 1654 1907 1808 1687 1896 1829 1652 1322 1263 1213
586 422 595 652 391 221 226 341 490 353 145 217 187 151 157 82 151 169 137 195 226 335 729 1180 1687 2092 2142 2224 2336 2480 1998 1970 1932 1918 1892 1882 1780 1638 1680 1872 1616 1816 1653 1723 1746 1760 1527 1262 1091
504 726 397 801 240 295 293 443 380 316 212 125 175 189 41 64 157 283 291 46 363 416 686 1148 1728 1972 2213 2081 1985 1919 1984 1973 2020 1950 1816 1690 1570 1616 1688 2003 1844 1818 1603 1604 1677 1629 1427 1246 1176
325 362 717 691 241 331 427 465 385 372 342 202 129 46 28 79 213 503 263 266 441 493 775 1302 2251 2424 2398 2119 1943 1936 1921 2012 1990 1816 1720 1607 1504 1529 1577 1725 1976 1883 1650 1601 1493 1479 1427 1384 1318
878 462 463 184 180 443 490 490 491 430 341 139 176 210 323 218 221 312 285 254 335 438 417 930 2105 2194 2337 2074 1882 1768 1821 1958 1989 1852 1730 1633 1554 1497 1502 1576 1756 1708 1595 1468 1484 1373 1261 1381 1462
926 285 211 143 216 368 553 605 516 346 203 146 228 538 379 238 318 217 254 287 348 322 313 543 1003 1655 2114 2047 1838 1837 1821 1858 1929 1891 1758 1623 1555 1516 1482 1489 1514 1461 1534 1379 1429 1489 1428 1456 1501
892 126 202 278 282 508 644 644 614 283 255 202 280 372 397 247 418 376 351 346 415 342 285 491 805 991 1214 1508 1757 1867 1913 1871 1839 1798 1707 1623 1578 1481 1588 1429 1525 1539 1343 1479 1453 1494 1572 1618 1585
461 285 261 195 291 281 770 732 502 282 244 182 253 377 433 422 449 530 413 492 499 394 353 388 524 877 1092 966 1274 1584 1782 1868 1870 1786 1591 1463 1825 1740 1742 1444 1858 1388 1313 1342 1451 1452 1578 1733 1899
596 324 198 129 51 99 568 650 609 337 242 227 456 405 439 443 561 590 660 584 778 505 359 348 425 670 909 653 1115 1149 869 861 1027 1417 1548 1892 1913 1891 1688 1674 1877 1456 1370 1481 1528 1710 1609 1562 1365
422 297 214 24 59 402 572 749 694 489 226 352 562 575 614 558 710 723 830 853 681 537 372 359 518 846 844 714 1018 1043 826 871 1311 1772 1750 1802 1821 2029 1763 1890 1666 1807 1635 1790 1475 1567 1378 1537 1187
508 309 343 101 71 194 710 806 789 615 211 328 692 587 782 755 847 763 736 697 640 631 569 572 674 926 846 784 880 831 579 610 649 822 1656 1962 1868 1794 1915 1718 1671 1816 1936 1319 1013 858 1058 1343 1245
393 230 40 88 95 38 70 427 386 725 369 389 673 619 775 821 802 714 668 624 662 709 727 759 936 1225 1158 1052 700 617 705 497 395 750 1196 1452 1486 1911 1834 1725 1556 1632 1760 1114 1272 1114 968 1112 751
46 117 13 0 0 0 3 71 205 419 627 657 701 729 766 734 730 689 585 561 610 674 688 718 922 1142 1228 1222 1137 938 942 603 590 495 761 1495 1587 2169 1884 1738 1491 1474 1658 1616 643 1095 1077 1392 1093
0 0 0 0 0 8 0 0 18 179 791 909 868 855 755 719 704 696 593 565 600 706 751 743 970 1061 1314 1330 1389 1321 845 721 518 459 950 1413 1657 2137 1844 1491 1608 1377 1422 1331 1284 1680 1688 767 400
0 0 0 0 12 2 0 14 30 172 768 1085 1031 960 788 678 653 709 686 638 656 724 855 876 816 914 1292 1325 1390 1077 972 791 478 428 810 1255 1453 2082 2177 2037 1652 2025 1374 1128 1247 1589 1085 608 215
0 0 0 0 0 0 0 22 46 151 712 986 1140 980 779 739 643 668 632 620 590 686 820 970 1016 933 1163 1452 1390 1305 1098 993 428 418 801 1132 1566 1903 2364 1875 1742 2328 2296 1310 1388 1321 954 323 160
0 0 0 0 0 0 0 6 7 176 588 852 1099 1032 915 803 681 713 722 622 725 756 878 1163 1121 1274 1496 1450 1629 1198 906 779 345 507 754 1174 1648 1795 2444 1909 1671 1785 1770 1551 1572 1624 915 135 35
0 0 0 0 0 0 0 0 3 173 534 719 1055 1166 1117 1051 861 795 847 732 816 954 1125 1297 1383 1850 1655 1485 1267 968 622 437 298 538 911 1689 1990 2345 2798 2260 2234 2190 1716 1765 1718 1177 1208 166 8
0 0 0 0 0 0 0 6 12 104 536 779 971 1036 1169 1148 957 856 924 898 880 1075 1336 1727 1724 1957 2085 1561 1523 711 512 167 289 790 1373 2323 2569 2637 2907 2945 2250 2364 2058 2265 1967 1677 538 258 11
0 0 0 0 0 0 0 0 4 6 180 451 799 933 997 1170 1110 927 850 886 863 977 1282 1846 2400 2329 2315 2306 1360 1085 593 489 485 1018 1784 2449 2481 2679 3055 2698 2636 2452 2449 1846 2247 1882 1284 238 0
0 0 0 0 0 0 0 1 29 9 44 97 302 901 963 1149 1222 1035 829 865 879 1163 1362 2104 2398 2725 2485 2431 1947 2455 888 645 550 1259 1566 1750 2488 2548 2646 2861 2919 3031 2226 2048 2206 1829 1431 1177 14
0 0 0 0 0 0 0 0 0 0 0 21 108 481 950 1171 1216 1213 995 807 834 1108 1296 1713 2425 3236 3344 2754 2640 1893 2072 727 713 903 2715 3261 2738 2607 2315 2778 2973 2959 2781 2492 2639 2229 2137 1055 128
0 0 0 0 0 0 0 0 0 0 0 8 63 290 715 996 1128 1285 1275 895 834 951 1293 1706 2931 3568 3075 2853 2579 3480 3292 2443 1258 1805 1720 1833 1789 2006 2478 2387 3015 3075 2819 2759 2835 2711 2204 1756 723
0 0 0 0 0 0 0 0 0 0 0 0 0 47 585 1081 1059 1154 1377 1369 1005 1050 1363 1632 2680 3337 3120 2780 2844 2929 3349 3342 3468 2710 2042 2528 1511 1376 2631 2630 2785 2836 3193 2833 3016 2884 2092 2062 1385
0 0 0 0 0 0 0 0 0 0 0 0 0 0 158 836 1114 1090 1351 1540 1579 1475 1927 2094 2753 3286 3334 2985 3668 3843 3969 2357 2270 2866 2100 1932 1558 1633 1756 2203 2552 2853 2869 3120 3109 2689 2200 1799 1741
0 0 0 0 0 0 0 0 0 0 0 0 0 0 0 576 971 1193 1251 1442 1734 1924 2476 2645 3080 3390 3019 2602 3708 3826 3713 3503 2461 3172 3429 2302 2999 1789 1883 2104 2786 2839 2832 3126 3059 2460 2108 1596 1833
0 0 0 0 0 0 0 0 0 0 0 0 0 0 0 68 738 885 1214 1387 1602 1867 2060 2526 3012 3383 3372 2749 2918 2802 3106 3752 3632 3737 3725 3344 2940 2994 2264 2324 2621 2768 2826 3051 3054 2506 2211 1878 1518
0 0 0 0 0 0 0 0 0 0 0 0 0 0 0 28 392 770 872 1054 1286 1544 1866 2028 2420 2939 2985 3062 3300 3261 2858 2913 3191 3492 3773 3840 3234 3654 3013 3097 2547 2445 2625 2952 3123 2813 2219 2029 1811
0 0 0 0 0 0 0 0 0 0 0 0 0 0 0 0 55 179 360 644 1022 1362 1493 1612 1861 2092 2244 2895 3458 3329 3107 3231 3003 3356 3496 3955 3839 3549 3551 3289 3047 2764 2499 2872 3143 2891 2226 2153 1968

GFSSGP_con_mucape_039.txt.gz
CAPE
63 59 172 653 790 732 209 96 87 204 152 105 10 54 131 82 89 149 1 60 13 119 362 719 1602 1923 1929 2281 2693 2429 2083 2033 2238 2004 1875 1946 1895 1742 1532 1650 1865 1780 1690 1773 1696 1470 1420 1443 1553
149 338 733 609 586 330 105 106 95 200 337 146 164 37 251 158 69 40 0 134 2 0 292 798 1709 2145 2247 2344 2543 2591 1965 2099 1979 2048 1951 1898 1807 1630 1602 1766 1695 1692 1967 1825 1663 1434 1283 1259 1194
313 296 665 1016 467 74 76 120 367 320 275 455 271 142 265 402 139 9 21 10 3 113 605 1304 1626 2024 2354 2330 2196 2401 1970 1967 2002 1875 1900 1864 1672 1666 1877 1592 1804 1696 1751 1752 1734 1479 1419 1221 1087
893 933 907 444 457 226 151 252 290 307 278 265 424 285 303 429 326 262 346 11 12 732 690 1297 1838 2149 2113 2011 1966 1944 1964 1966 1985 1874 1760 1644 1664 1758 1987 1901 1918 1635 1639 1616 1581 1389 1297 1252 1189
744 781 870 830 205 101 244 301 366 332 406 299 253 324 224 305 353 522 140 178 369 610 901 1295 2194 2403 2075 1934 1898 1968 1950 2028 1895 1732 1614 1601 1631 1660 1774 2022 1978 1716 1605 1560 1495 1467 1456 1446 1484
1051 785 179 126 112 119 159 303 262 392 467 411 451 407 425 638 548 331 347 441 547 832 717 1313 2056 2373 2155 1838 1920 1954 1985 1966 1808 1782 1654 1630 1607 1614 1666 1815 1817 1744 1522 1503 1430 1333 1414 1523 1600
1041 829 283 71 123 251 221 203 163 340 313 541 507 652 476 594 553 206 354 363 514 584 948 1012 1189 1761 2001 1876 1851 1769 1830 1886 1827 1804 1698 1673 1637 1574 1506 1584 1591 1629 1582 1509 1522 1464 1451 1528 1656
1449 696 221 198 30 139 125 209 163 293 435 528 664 706 633 658 515 380 385 321 565 429 321 316 592 998 1259 1434 1750 1740 1753 1784 1797 1750 1705 1684 1659 1681 1578 1502 1597 1440 1511 1585 1532 1557 1621 1636 1836
1055 689 220 71 13 171 142 85 118 243 349 447 510 714 707 558 511 380 346 333 382 299 146 173 374 827 1182 1134 1545 1745 1757 1769 1669 1648 1570 1680 2161 2154 1972 1728 1351 1247 1329 1417 1498 1568 1537 1526 1784
600 433 57 28 34 46 250 58 57 163 275 333 691 758 669 617 607 598 458 408 464 313 187 237 362 597 728 455 1106 1079 881 851 1014 1359 1452 1297 2040 1917 1617 1451 1581 1364 1381 1477 1479 1544 1825 1364 1183
290 177 164 39 94 98 121 140 57 76 236 376 765 799 670 872 835 720 686 601 504 450 251 264 475 651 549 853 692 826 638 852 1206 2398 1895 2301 2025 1549 1101 1457 1408 1431 1590 1129 1694 1159 1498 987 976
154 211 248 95 70 308 181 152 173 97 69 429 629 789 718 825 914 984 990 900 810 482 318 230 470 832 633 760 597 603 512 712 853 1332 1899 2528 1865 1888 2695 1595 2058 1331 1377 1371 1210 1351 1134 1128 614
100 202 307 255 158 115 303 340 432 338 84 303 643 773 809 858 849 893 893 804 735 509 340 318 522 1379 1349 1100 634 622 523 430 514 995 1621 2216 2180 2289 1801 1753 1739 2416 1425 1218 1765 1700 913 614 826
78 153 294 103 120 53 69 132 187 631 338 646 677 863 867 932 908 903 861 752 580 488 453 436 664 1172 1219 1576 1464 776 668 519 496 609 1044 1665 1817 2041 2576 2079 2065 2325 1467 774 839 1791 1154 1279 885
73 47 204 195 49 2 20 65 168 528 630 774 809 864 951 979 921 825 737 703 528 552 571 606 846 1075 1318 1398 1385 1162 719 597 495 573 1107 1491 1801 1919 2256 1390 2221 1718 1572 1833 2269 1261 1438 820 341
7 19 33 3 11 1 0 58 37 195 902 937 882 878 837 879 827 778 718 705 627 578 803 739 608 891 1225 1415 1444 1114 711 550 521 491 1000 1492 1752 1986 2023 1794 1868 2271 1509 1012 1716 1024 1128 1232 265
0 1 24 21 5 19 0 21 15 85 639 1054 1084 1018 830 787 808 797 665 626 602 723 1042 986 904 853 1218 1968 1414 1303 1697 874 530 428 708 2005 1772 2010 2374 2247 1788 2616 2149 1071 1081 1016 572 46 97
0 0 11 15 18 12 18 6 34 100 403 731 1169 1154 1029 794 703 760 678 600 620 760 962 1383 1042 2186 2649 1849 2233 1189 792 835 661 412 597 1915 1846 2012 2361 2233 2015 1775 1715 1991 2042 1497 187 71 1
0 6 11 91 22 25 53 77 50 85 317 595 1064 1202 1162 1023 733 647 719 598 578 717 992 1958 1980 2879 2092 1533 1319 1183 720 847 547 438 845 1307 1689 2031 2630 2385 2262 1870 2289 1914 1015 1536 691 67 0
0 5 29 43 23 6 61 54 72 106 330 569 923 1068 1140 1089 958 632 725 630 525 809 1574 2424 2758 3431 2973 1890 2176 1307 1407 435 394 305 1789 1514 2035 2462 2716 3595 1866 2519 2694 2010 1345 1244 1066 110 0
0 0 0 17 33 3 11 33 81 83 161 583 787 886 1018 1161 1164 948 725 733 655 1012 1982 2344 3125 3444 3124 2824 2418 2254 1506 1241 364 454 871 1711 2129 2474 3251 2454 2226 2354 2188 2822 2319 1462 918 570 0
0 0 0 0 10 35 0 31 39 41 104 261 717 845 893 1063 1199 1215 843 742 706 1075 1346 2744 3452 3682 3459 3524 2149 2415 967 480 214 461 500 1672 2605 2437 2666 2453 1972 2482 2391 2818 2506 1558 1652 1297 224
0 0 0 0 0 7 12 47 46 47 57 93 177 582 777 923 1144 1238 1137 785 704 898 1036 2119 3733 3933 3708 3617 3095 2008 1935 445 386 384 1874 2622 3740 2725 2295 3341 3454 3240 2439 3325 2194 2166 2241 1409 688
0 0 0 0 0 0 0 0 9 18 62 77 82 109 438 776 993 1255 1267 976 697 623 865 1858 3520 4155 4213 4088 3756 4045 2643 2048 881 955 1077 1364 1533 2454 3477 2879 3908 3616 3199 2705 2465 2797 2457 2136 892
0 0 0 0 0 0 0 0 0 4 15 41 43 111 150 625 1079 1206 1255 1117 1032 1161 1538 2004 3438 4207 4295 4224 3873 3773 3709 3339 4059 3209 1279 1846 1276 1125 2988 3716 3705 2678 3729 3297 3711 4041 2810 2353 1939
0 0 0 0 0 0 0 0 0 0 3 19 27 81 130 288 908 1194 1340 1307 1626 1498 1980 2020 3287 4203 4362 4177 4226 4220 4215 2671 2460 2814 1687 1520 1296 1233 3030 3982 3649 3722 3632 3206 4154 2968 2649 2978 2112
0 0 0 0 0 0 0 0 0 0 0 0 0 13 32 164 796 1079 1274 1423 1879 1723 2230 2467 3198 4015 4277 4129 4239 4387 4314 3965 2768 3140 3566 2597 2796 1534 2960 3248 3582 3421 3565 3916 4204 2511 3456 2913 2603
0 0 0 0 0 0 0 0 0 0 0 0 0 0 0 61 609 1089 1197 1409 1987 1698 1913 2543 3068 3941 4192 4046 4208 4245 4345 4357 3945 3916 3977 3200 3335 3723 3449 3251 3079 3376 3797 3994 4236 3103 3513 3327 2207
0 0 0 0 0 0 0 0 0 0 0 0 0 0 0 0 376 996 1226 1333 1714 1785 1821 2215 2750 3673 4089 4189 4162 4170 4211 4119 4352 4092 4149 4112 4082 4442 3871 4099 3650 3884 3950 4040 4261 3843 3582 3470 3117
0 0 0 0 0 0 0 0 0 0 0 0 0 0 0 0 154 838 928 1248 1394 1716 1918 2123 2528 2459 3573 3655 4175 4143 4197 4104 4164 4278 4157 4315 4402 4246 4498 4487 4178 4155 3909 4068 4231 3771 2558 3576 3070

GFSSGP_con_mucape_042.txt.gz
CAPE
27 15 175 177 1016 475 425 150 123 120 110 44 86 68 187 78 50 61 23 5 4 94 318 1022 2180 2275 2385 2561 2437 2535 2488 2470 2423 2347 2401 2183 1820 1962 2085 2022 1821 1749 1820 1772 1561 1511 1529 1520 1538
30 45 428 599 508 157 80 230 178 159 156 60 160 121 223 165 17 3 19 14 0 39 373 1018 2170 2314 2337 2333 2581 2475 2427 2019 2371 2415 2164 2123 1602 1968 2036 1716 1726 2053 1850 1722 1546 1384 1338 1297 1228
391 279 466 600 258 134 138 142 184 238 175 199 291 295 415 137 1 7 8 1 5 47 408 1453 1945 2120 2131 2592 2548 2516 2378 2136 2108 2006 2010 1629 1715 1896 1693 1778 1662 1736 1695 1677 1539 1495 1293 1158 1097
622 638 617 771 246 86 225 250 230 271 204 263 178 299 246 54 0 1 1 0 0 442 836 1767 2148 2049 2442 2550 2475 2342 2213 1991 2091 1917 1612 1640 1793 1983 1897 1820 1622 1667 1630 1574 1476 1422 1340 1225 1309
847 555 93 29 450 255 250 184 398 275 254 301 284 259 49 22 0 3 0 0 216 454 1051 1513 2326 2335 2592 2437 2371 2279 2069 1848 1932 1740 1562 1575 1640 1791 1995 1909 1654 1614 1617 1576 1540 1526 1524 1483 1447
852 9 13 11 61 143 152 269 241 300 442 541 228 221 531 285 78 51 0 0 564 603 649 1400 2201 2363 2415 2138 2183 2319 1918 1720 1762 1647 1562 1591 1574 1638 1828 1800 1691 1515 1491 1480 1368 1377 1484 1535 1599
658 30 79 41 56 176 125 175 126 140 514 555 385 446 277 341 233 0 48 413 586 630 895 1344 1598 1799 2075 2325 1959 1893 1819 1774 1768 1597 1540 1548 1572 1531 1567 1616 1652 1603 1540 1537 1501 1436 1491 1473 1580
994 799 327 269 50 83 155 46 76 315 633 555 404 387 461 342 93 529 403 500 495 575 802 1235 1348 997 1233 1418 1639 1733 1762 1694 1702 1656 1575 1558 1559 1563 1393 1954 1893 1605 1661 1565 1528 1471 1506 1597 1609
210 696 591 85 8 60 54 230 211 203 881 670 748 652 560 337 207 356 412 455 707 580 499 515 504 1362 1770 1555 1483 1688 1672 1576 1571 1529 1477 1772 2155 1665 1704 2220 2082 1387 1344 1477 1400 1357 1517 1641 1945
313 125 65 89 2 72 27 17 103 140 220 767 642 752 457 439 376 347 459 448 483 296 139 192 489 975 1176 576 1680 1875 1259 1059 1445 1289 199 424 1687 1847 1807 1615 2209 1247 1282 1360 1573 1106 1419 1351 964
201 158 8 110 22 116 39 25 80 76 179 785 778 724 629 551 464 484 394 409 397 414 48 200 791 1202 895 995 1084 1253 1168 1234 893 472 616 558 1099 2078 1856 1654 1015 163 974 1238 1368 695 1441 1681 1297
141 113 37 42 102 140 141 148 60 23 114 794 730 610 649 581 480 460 436 537 400 450 238 294 891 1294 1050 1030 535 1017 956 933 1334 1708 1649 2273 1384 1031 1069 1283 930 433 739 1380 1334 1638 1317 1303 1638
61 95 61 106 160 227 89 199 1 47 143 655 704 636 623 670 532 592 603 470 556 508 293 516 1044 1736 2331 2386 911 909 1650 1055 1579 2144 2445 2205 1130 1597 1331 1804 1149 1587 1310 1354 2206 1723 1339 133 1063
42 78 151 224 116 257 284 285 79 67 83 484 642 646 667 661 710 1033 914 802 747 468 442 887 1234 1746 2579 2394 3233 1523 2144 1017 1395 1500 2080 2574 1715 1875 2866 2014 1810 2049 762 943 2055 2417 2102 1484 884
23 49 97 85 66 66 16 376 299 18 174 293 513 660 597 569 1201 1051 1030 1065 834 566 536 960 1300 1343 2262 2375 2275 2436 2134 597 1094 1521 2666 2063 2645 2942 3221 2295 1955 1221 2389 2635 1954 2171 836 429 1142
23 34 50 85 128 39 0 45 481 228 409 469 460 566 666 512 355 848 1007 702 705 451 842 1114 442 1155 1458 1959 2340 2075 1352 1449 1506 1497 2183 2408 2508 2690 2359 676 1572 1441 2901 2340 2340 854 1727 1118 1057
16 19 65 96 108 59 0 1 1 486 378 600 569 510 552 819 645 788 430 684 528 692 1275 1433 1294 1286 1454 2376 2059 1714 1832 1962 1797 1766 2007 2690 2988 2980 2857 1296 647 1012 2685 1679 1993 1361 1777 1208 413
25 5 39 80 40 26 32 2 35 36 478 638 836 654 632 623 695 721 496 539 644 1083 1565 1440 1419 2218 1961 1819 2222 1692 1373 1623 1649 1927 1874 2761 2882 2967 2762 1219 964 2230 963 2630 2506 2086 824 1110 150
12 10 0 46 109 22 22 19 52 21 32 682 608 940 744 706 722 837 667 596 764 1086 1635 1593 1965 2549 2078 1841 1701 1680 1175 1466 1758 1877 2214 3105 3129 3237 3053 2590 1859 2794 2257 1542 2835 1265 1587 1289 136
0 2 1 2 67 38 37 25 22 71 80 682 852 938 913 698 668 876 827 625 579 1006 1597 1948 1933 2600 2399 2017 1903 1685 1994 1314 1303 1591 2507 2571 2776 3094 3680 2283 2794 2337 2467 2851 2222 2600 1893 977 980
0 0 0 13 19 4 18 40 71 33 2 214 728 830 928 1007 826 802 859 735 629 1224 1579 2002 2101 2847 2637 2262 2383 2700 2483 2680 1867 1294 1394 2207 2842 3252 3193 2964 2798 2593 3483 3027 2975 2182 2111 546 287
0 0 0 10 62 58 51 56 104 46 90 247 461 545 993 1122 1136 908 962 905 781 1074 1463 2041 2242 2379 2724 2707 2103 2354 1409 1124 985 1263 1238 1855 2279 2721 3262 3024 2596 3404 2580 2296 2599 3032 2799 1896 736
0 0 0 0 0 6 18 23 77 55 88 278 407 558 646 1117 1091 1055 909 957 894 1032 1485 1953 2356 2541 2834 2167 2911 2026 1855 1168 1094 1338 1597 2417 2819 3243 3274 3360 3147 3970 2797 2978 2697 3113 2666 2960 1947
0 0 0 0 0 1 0 16 46 35 32 59 205 705 703 974 1201 1346 1109 1047 974 1128 1631 1865 2582 2677 2955 2887 2318 3335 1995 1893 960 1047 1471 2127 2847 2756 3650 3476 3386 3551 3542 3383 3337 4075 3527 3078 2877
0 0 0 0 0 0 0 0 0 22 65 39 235 206 806 933 1197 1523 1500 1222 1068 1196 1546 1891 2754 2810 2866 3138 2684 2311 3415 1991 2467 3258 1055 1508 1800 2402 2788 3403 3542 3234 3309 3533 3689 4023 3969 3398 2979
0 0 0 0 0 0 0 0 0 0 3 25 111 102 233 615 1016 1337 1652 1460 1243 1172 1430 1813 2765 3005 3227 3080 3181 2633 2940 2833 1641 2592 1732 1281 1730 1898 2998 2677 3271 3000 3276 3288 3871 3898 3326 3406 2823
0 0 0 0 0 0 0 0 0 0 0 4 33 129 155 413 696 1101 1745 1636 1429 1212 1405 1619 2308 3004 3233 3069 3292 3333 2495 3152 2289 1855 2735 2677 2099 2552 3632 2957 3179 3008 3373 3122 3840 3104 3534 3657 2961
0 0 0 0 0 0 0 0 0 0 0 0 11 37 153 294 635 1282 1627 1725 1585 1313 1362 1661 2189 2784 3236 3341 3233 3422 3274 2928 2760 2410 2809 2339 3304 2694 4148 3391 3187 3372 3395 3562 3547 3485 3448 3331 3125
0 0 0 0 0 0 0 5 23 22 0 2 2 0 38 365 613 1028 1564 1781 1831 1549 1464 1636 1900 2880 3354 3514 3569 3495 3565 3267 2972 2684 2913 3488 2859 4182 3152 3883 3436 3395 3351 3352 3774 3062 3066 3499 2891
0 0 0 0 0 0 0 1 0 1 0 0 0 0 4 194 767 983 1438 1674 1979 1899 1693 1748 1962 2355 3228 3781 3784 3594 3600 3834 3562 3055 2945 3210 3788 3239 4178 3766 3488 3312 3224 3452 3317 3301 2368 3213 2974

GFSSGP_con_mucape_045.txt.gz
CAPE
20 5 33 144 149 77 158 123 215 159 43 129 17 71 155 120 5 0 0 0 32 224 674 1640 2378 2453 2370 2250 2549 2290 2152 1838 2032 2252 2422 1868 1737 2011 1910 1800 1805 1859 1720 1597 1638 1575 1569 1569 1328
3 31 315 215 710 51 97 64 133 125 30 53 115 154 121 22 0 13 0 0 40 200 1032 1443 2352 2406 1933 2395 2515 2323 1735 1921 2115 2497 2353 1956 2274 2248 1830 1904 2098 1888 1697 1572 1449 1460 1464 1375 1334
46 107 167 219 75 72 119 113 123 65 155 254 263 250 190 5 13 0 0 5 11 395 1145 1456 2282 2459 2324 2300 2334 2581 2289 1802 1947 2250 1857 1978 2501 1973 1828 1717 1774 1727 1685 1578 1555 1395 1303 1225 1149
402 491 422 231 173 178 120 207 261 188 262 209 158 91 0 7 2 3 9 8 28 773 1199 2046 2218 2175 2412 2325 2309 1988 1898 1746 2182 2220 1900 2076 2161 1919 1832 1732 1765 1702 1640 1574 1513 1451 1364 1327 1254
690 314 12 32 48 196 164 250 230 264 266 217 186 12 0 0 0 2 10 15 370 925 1419 1702 2374 2335 2508 2233 2020 2095 1893 1829 2010 1975 1766 1886 1997 2076 1929 1782 1781 1745 1690 1640 1615 1605 1552 1553 1325
518 42 28 83 110 128 140 266 298 333 399 343 116 62 24 0 0 0 1 26 707 920 1309 1557 1973 2504 2411 1788 1771 2208 1779 1722 2062 1958 1656 1730 1801 1962 2512 1803 1683 1677 1641 1510 1453 1495 1542 1639 1402
288 8 15 60 96 153 349 318 394 470 373 269 120 161 13 0 0 0 1 185 613 785 1206 1476 1636 1526 1796 2345 1938 1948 1716 1803 1804 1665 1622 1606 1617 1687 1796 1883 2054 1711 1686 1603 1536 1479 1493 1612 1499
392 60 0 73 122 61 194 263 419 504 388 399 272 166 101 18 0 0 21 440 512 881 1219 1400 1389 1292 1528 1578 1862 1828 1738 1827 1735 1694 1610 1539 1454 1389 1588 2003 2077 1768 1650 1578 1500 1506 1538 1632 1594
474 290 159 218 45 48 146 422 530 495 474 540 440 260 150 91 0 85 162 383 435 738 1016 1080 1029 1105 1200 1210 1406 1656 1693 1737 1766 1715 1689 1610 1251 1235 1217 1493 1906 1547 1459 1487 1391 1480 1675 1749 1713
303 174 209 130 66 46 26 137 630 609 605 534 423 299 76 16 112 241 266 367 468 597 756 695 634 687 881 956 1240 1279 1288 1244 1218 1167 700 424 690 1053 1407 1574 2074 1572 1545 1822 1554 1361 1735 1400 774
123 207 78 47 54 59 9 82 112 584 702 536 465 290 167 357 220 272 320 415 447 348 287 289 623 743 640 824 941 1109 878 757 958 750 237 102 971 816 1097 874 727 94 407 644 848 432 681 779 845
90 210 171 76 20 62 55 19 33 641 774 585 507 325 209 342 207 245 270 301 347 110 40 67 520 607 500 385 562 875 760 700 501 457 181 122 423 404 731 738 367 348 357 714 1052 804 807 705 875
30 90 119 37 23 84 44 37 134 724 838 606 439 375 288 254 238 228 398 288 178 56 0 30 267 474 521 317 163 618 595 624 611 746 816 696 619 624 900 934 677 577 606 714 1143 1119 796 243 116
6 54 103 91 20 139 27 60 142 718 598 605 526 358 383 273 301 280 211 107 75 87 0 121 204 530 388 825 554 181 885 483 1124 1378 1385 890 649 911 1006 1035 865 906 650 345 1384 1153 1027 705 633
0 35 81 103 109 190 33 80 19 650 615 543 561 423 331 283 246 265 150 185 82 70 53 138 212 809 702 732 839 1035 919 261 637 1289 1362 1190 802 1050 1253 1124 918 589 633 610 1338 1052 555 279 331
2 5 21 67 27 106 90 73 113 413 560 534 520 550 477 345 346 243 196 141 151 116 246 276 271 754 1035 734 816 1018 726 821 461 1091 1042 1394 1439 1624 1119 861 952 907 1068 1314 949 1097 512 187 480
0 0 5 42 13 60 162 141 160 93 441 524 505 478 433 391 514 401 221 127 148 200 294 329 275 463 1092 789 1039 721 777 821 803 1159 1025 1049 1276 1721 1194 603 465 752 1327 1318 1099 418 734 490 443
0 0 6 7 44 68 77 14 112 146 197 371 467 387 341 486 580 526 418 310 281 139 195 286 380 283 652 985 1134 656 475 704 857 727 1106 1379 1497 1802 1491 1011 512 988 969 1459 1291 232 75 115 43
0 0 1 0 33 55 47 10 169 137 199 372 539 481 391 263 341 508 442 267 217 117 326 79 581 579 355 1246 1019 976 449 536 706 517 1642 1565 1573 1747 1542 1032 998 1155 1104 797 1336 149 254 74 22
0 0 5 0 6 28 0 8 35 169 297 291 389 465 428 397 315 247 145 157 90 368 269 422 785 891 529 902 610 959 830 514 637 446 1356 1716 1773 1834 1804 1392 1407 1318 1088 937 1235 642 464 49 27
0 0 0 0 8 53 23 10 33 274 440 258 250 388 378 421 353 281 125 123 157 472 315 485 583 1217 771 912 855 811 888 792 767 504 319 1754 1533 1599 1981 1523 1488 1139 1383 1210 1113 716 789 1 29
0 0 0 0 0 29 3 0 5 25 281 216 531 642 280 400 345 345 224 176 238 531 577 442 778 1566 1087 1235 1056 881 712 579 992 470 427 1041 1698 1749 1638 1789 1451 1363 1369 1433 1207 909 400 0 0
0 0 0 0 2 7 1 0 8 21 6 330 689 407 123 474 425 355 291 309 154 383 798 681 756 1312 1368 1145 1058 1092 877 906 478 602 379 958 1008 1312 2238 1691 1625 1388 1635 1324 928 1707 1270 139 96
0 0 0 0 0 0 0 0 0 12 1 560 582 428 504 671 462 465 414 360 270 556 857 986 842 1127 1389 1306 1296 944 1168 823 682 249 310 797 1386 1546 1958 2222 1886 1952 1630 1394 1401 1582 789 1347 889
0 0 0 0 0 0 0 0 0 0 3 68 303 419 584 488 521 558 571 532 487 619 727 1090 1041 945 1417 1305 1001 1675 968 1013 490 465 160 610 1832 1673 2125 2454 1925 1921 1959 2061 1964 2124 1443 989 1199
0 0 0 0 0 0 0 0 0 0 0 8 181 509 485 419 642 720 631 670 632 516 765 1160 1143 1131 1157 1636 1209 802 1816 1119 810 963 900 209 1245 1648 1476 2035 2326 1801 1882 2022 2150 1995 2278 1763 1089
0 0 0 0 0 0 0 0 0 0 0 0 1 472 444 349 674 774 691 755 746 694 884 979 1367 1184 1415 1550 1651 1209 954 2157 1179 447 1020 1622 800 1323 1659 1853 2467 2045 1934 1870 1841 2629 2083 2350 1825
0 0 0 0 0 0 0 0 0 0 0 0 0 7 372 525 858 886 810 822 806 775 871 1042 1406 1469 1531 1632 1803 1793 1266 949 2196 1383 632 1566 1540 774 1753 1943 1912 2058 2038 2003 1939 2493 2543 1999 2283
0 0 0 0 0 0 0 0 0 0 0 0 0 0 28 505 913 1144 971 869 852 846 829 1055 1336 1818 1852 1887 1720 2064 1954 1545 1349 2166 1279 1279 1732 1944 1427 2191 1950 2133 2208 2323 1985 2119 2538 2540 2319
0 0 0 0 0 0 0 0 0 0 0 0 0 0 1 322 822 1286 1185 1077 960 923 899 959 1223 1884 2056 2179 2162 2042 2334 2292 1613 1579 2214 1081 1859 1716 2403 2553 2362 2537 2267 2234 2599 2523 2357 2320 2414

GFSSGP_con_mucape_048.txt.gz
CAPE
19 5 5 99 18 81 87 94 212 127 93 289 19 12 34 4 13 1 0 0 10 354 993 1321 2173 2094 1919 2406 2095 2211 1653 1889 2183 1912 1919 1946 1994 1935 1909 2034 1875 1895 1785 1852 1636 1716 1757 1475 1059
4 14 201 198 470 56 69 152 140 181 183 121 102 152 74 5 7 0 0 0 91 768 1324 1693 2278 2142 1852 2218 2183 2189 1893 1956 2010 1875 1914 2151 1963 1874 2296 2023 1968 1817 1679 1630 1676 1650 1423 1538 1367
17 43 206 134 39 96 126 106 176 167 121 234 204 67 14 25 1 0 0 18 368 979 1483 1590 2500 2486 1949 1859 2178 2060 2042 2161 1691 1842 2067 1999 2177 1790 1799 1896 1759 1784 1723 1693 1553 1470 1407 1359 1269
26 387 294 91 19 145 178 362 183 157 278 313 209 0 0 0 0 0 3 20 653 953 1261 2120 2321 1803 1922 2083 1707 1916 1689 2104 1777 1979 2229 2162 1946 1796 1854 1789 1756 1735 1709 1656 1593 1511 1429 1469 1248
565 147 2 2 47 99 128 179 242 251 299 224 138 2 3 0 0 0 6 267 770 1169 1474 1683 2707 2449 2219 1867 1839 1645 1799 1801 1805 1957 2019 2166 2088 2025 1932 1968 1893 1854 1794 1749 1755 1696 1657 1477 1353
310 18 11 11 80 108 119 238 376 333 267 133 53 0 0 2 0 0 17 594 873 1297 1550 1701 2339 2530 2097 1698 1755 1782 1736 1605 1770 1783 1866 1955 2145 2085 1912 1820 1796 1740 1658 1556 1608 1636 1710 1613 1340
61 4 26 47 59 90 196 104 431 390 294 268 84 1 2 0 0 1 309 657 992 1348 1513 1632 1567 1565 1708 1894 1961 1684 1732 1723 1740 1778 1756 1754 1794 1861 1924 1872 1796 1724 1693 1648 1661 1701 1653 1594 1353
247 4 0 34 2 223 141 275 439 439 255 149 7 0 3 6 6 175 530 682 945 1234 1401 1574 1406 1301 1548 1586 1889 1709 1842 1794 1751 1733 1698 1608 1502 1499 1639 1898 2107 1675 1591 1545 1584 1704 1732 1603 1676
264 25 25 105 30 156 213 370 350 319 260 237 181 147 0 3 36 170 447 645 874 1200 1331 1367 1210 1363 1441 1493 1491 1657 1884 1865 1809 1641 1720 1608 1091 1165 1212 1519 1655 1518 1450 1467 1310 1543 1772 1648 1578
427 148 21 60 17 43 106 423 414 348 370 176 201 28 3 8 71 137 303 595 769 924 1096 1179 1074 1165 1204 1301 1372 1270 1403 1475 1342 898 718 736 791 997 1267 1399 1646 1511 1677 1681 1622 1202 1450 1459 648
458 300 104 35 51 51 28 496 518 474 452 235 159 22 5 11 29 182 326 577 677 801 885 820 829 969 973 918 1188 1089 1095 1001 926 726 15 395 782 1049 1210 1023 907 304 286 283 734 555 544 648 714
144 206 125 39 28 61 23 51 630 627 399 306 138 67 7 32 158 199 414 497 611 698 716 564 529 738 704 769 766 737 725 591 761 546 4 402 343 639 524 401 228 161 223 479 682 907 856 902 656
139 152 160 152 26 20 11 80 442 688 435 293 123 103 24 73 255 303 351 479 619 523 417 359 417 557 551 489 285 615 548 468 526 282 69 242 147 375 504 318 442 363 442 582 869 1008 933 396 53
92 95 74 183 45 38 54 44 456 630 458 248 123 160 220 194 298 378 335 444 466 331 204 222 432 417 429 289 38 451 485 414 497 476 498 393 520 701 729 763 633 512 682 649 833 983 700 425 152
38 12 10 61 29 47 75 36 880 669 538 347 212 253 297 193 230 284 307 351 429 192 64 77 355 390 267 315 35 194 318 382 497 619 704 526 218 621 867 733 797 672 607 577 954 831 516 234 261
5 2 0 36 63 126 13 12 778 621 450 400 250 221 255 228 135 257 313 329 309 120 8 32 151 338 163 514 406 597 412 283 682 923 991 757 617 965 963 868 750 633 793 955 1103 878 497 66 218
0 0 0 7 67 131 53 8 770 671 451 375 270 264 287 187 187 264 282 273 224 60 27 36 58 493 160 762 509 509 495 478 582 956 1021 951 1192 1248 747 601 664 782 852 1282 1101 740 617 276 205
0 0 0 0 14 82 42 56 620 661 518 455 357 282 303 196 143 198 240 170 190 106 115 6 26 522 320 546 280 306 318 292 554 802 712 1151 1348 1257 730 671 368 403 1059 1077 787 814 298 326 238
0 0 0 0 0 64 10 62 48 596 518 522 458 401 312 267 228 323 188 125 192 145 99 66 33 342 378 502 299 179 156 118 231 461 784 744 922 1343 1019 733 652 651 874 1035 751 0 3 0 36
0 0 0 0 0 22 53 92 80 561 546 450 466 501 438 411 343 334 250 105 124 125 185 109 26 71 448 356 378 189 64 33 88 319 899 860 1053 1379 1137 738 826 893 1096 674 873 234 338 0 27
0 0 0 0 27 43 54 40 62 148 488 479 446 460 455 454 424 395 387 154 165 141 220 204 72 8 225 444 415 552 331 150 162 309 487 1010 1129 1337 1293 1104 1168 1124 1161 808 852 526 292 0 38
0 0 0 11 25 32 11 1 14 75 179 393 407 361 323 314 323 381 406 281 248 270 247 192 227 166 91 527 307 443 455 587 317 249 261 1056 1173 1339 1544 1228 1182 1054 997 1199 1003 404 648 0 0
0 0 0 27 1 3 0 5 8 46 206 309 187 223 91 351 291 263 365 457 301 255 236 199 532 351 291 528 388 309 376 589 726 482 344 341 1218 1347 1279 1447 1436 916 1110 1008 893 980 483 0 0
0 0 0 50 36 6 0 0 0 25 210 319 265 247 163 278 354 259 171 212 295 241 101 251 650 544 477 566 493 394 304 328 450 523 569 306 759 1123 1389 1279 1283 1094 989 1329 1165 1145 1005 426 0
0 0 0 16 29 0 0 0 0 20 206 159 279 324 241 391 359 337 220 184 177 270 208 184 416 828 681 621 645 533 463 432 493 490 345 386 597 740 1000 1751 1630 1614 1250 1273 863 1062 1326 930 902
0 0 0 0 1 0 0 0 0 0 1 194 335 393 508 207 322 338 309 312 258 289 435 312 351 557 898 748 674 653 635 565 484 541 492 161 312 980 974 1497 1626 1719 1590 1412 1489 1538 1288 1152 961
0 0 0 0 0 0 0 0 0 0 0 71 340 542 629 423 240 425 349 357 334 407 571 581 429 397 856 906 840 837 699 631 663 685 407 307 190 1055 1203 1367 1872 1841 1708 1565 1664 1671 1740 1533 1051
0 0 0 0 0 0 0 0 0 0 0 0 255 580 705 468 509 565 398 400 402 538 510 726 670 526 622 1023 843 718 919 1312 807 666 649 853 462 679 1253 1203 1811 1939 1852 1723 1448 1631 1915 1981 1944
0 0 0 0 0 0 0 0 0 0 0 0 6 427 532 601 689 575 476 492 580 658 620 775 846 757 787 823 1158 1004 732 605 1603 1465 742 472 870 1187 1014 1270 1417 1767 1846 1827 1595 1359 1850 2202 1907
0 0 0 0 0 0 0 0 0 0 0 1 2 203 386 481 608 568 632 613 714 766 716 694 971 933 903 1030 1107 1331 1231 934 640 1451 1943 1282 621 745 1188 1212 1594 1681 1832 1858 1756 1440 1620 2136 2281

GFSSGP_con_mucape_051.txt.gz
CAPE
67 51 2 74 83 159 39 83 265 184 191 360 29 5 3 28 26 1 0 0 88 580 1204 1817 2234 1998 1796 2212 1913 2047 1940 2225 2239 2399 2118 1950 2023 2039 1964 1991 2086 2084 1873 1567 1828 1689 1195 1009 1109
35 30 113 196 437 27 27 66 164 131 125 79 99 74 27 3 0 12 0 18 321 806 1252 1542 2304 2235 1776 2301 1812 2357 2227 1633 1969 2207 2187 2029 1962 2070 2131 2047 2039 1826 1877 1845 1701 1542 1363 1143 969
28 84 97 155 38 65 59 125 120 155 162 210 113 83 0 12 0 0 0 175 725 1034 1288 1344 2108 2229 1791 2082 1896 2033 2153 1708 1953 2203 2352 2044 1972 2098 1986 1964 1983 1867 1746 1661 1533 1533 1501 1187 1063
56 151 278 107 33 80 121 120 148 135 269 261 133 26 0 2 0 0 41 552 1005 1394 1382 1696 1845 1602 2141 1734 2106 1902 1949 1789 2088 2362 2279 1882 1863 1838 1846 1866 1871 1863 1787 1600 1533 1553 1552 1403 908
246 128 0 0 28 75 107 173 199 161 311 202 134 6 0 0 0 5 145 725 949 1234 1349 1572 2276 2007 1993 1709 1758 1998 1857 1864 2102 2201 2271 2093 2108 2104 2060 2050 2027 1937 1876 1825 1800 1753 1552 1437 1216
255 10 0 0 24 43 103 219 351 367 221 191 102 72 0 0 0 24 356 732 1031 1283 1477 1693 1870 1966 1773 1833 1615 1849 1729 1851 1962 2077 2200 2275 2154 2076 2058 2005 1922 1767 1638 1698 1682 1820 1723 1346 1198
33 1 5 30 100 66 105 70 239 245 171 141 117 63 0 3 8 52 639 860 1179 1340 1510 1595 1315 1456 1663 1702 1731 1758 1630 1810 1818 1860 1949 2066 2084 2036 1942 1946 1930 1865 1836 1789 1689 1667 1185 1063 1267
367 10 5 6 35 94 67 39 175 290 172 194 261 36 15 9 21 324 700 937 1287 1360 1497 1463 1420 1271 1353 1554 1691 1813 1787 1817 1853 1798 1750 1661 1700 1814 1811 1999 2167 1758 1714 1717 1656 1619 1399 1588 1417
353 15 0 13 12 135 213 239 434 243 159 222 117 94 5 0 40 530 697 875 1122 1327 1468 1370 1354 1314 1337 1520 1396 1811 1887 1840 1813 1644 1787 1661 1125 1128 1396 1520 1778 1709 1659 1585 1512 1692 1612 1599 1641
216 20 7 12 36 70 218 289 372 220 240 59 106 129 24 18 167 414 572 547 860 1099 1323 1307 1232 1247 1365 1473 1334 1501 1614 1607 1473 1392 1096 870 937 979 1152 1229 1575 1639 1753 1854 1663 1169 1723 1096 460
347 125 129 43 74 17 52 250 429 304 282 80 80 102 48 73 306 419 531 417 642 862 1133 1120 1068 1140 1258 1321 1306 1220 1459 1454 1182 598 465 658 768 1270 1383 1192 963 267 190 381 662 508 486 545 500
207 215 228 48 66 35 73 431 525 369 389 226 120 18 36 100 274 325 542 519 623 791 951 982 864 922 964 957 1153 905 1030 992 817 564 108 507 741 854 1029 593 131 135 255 509 570 810 841 826 620
195 166 152 252 121 65 0 10 527 416 442 227 94 5 23 76 178 233 433 513 545 620 664 751 596 666 675 492 884 603 579 515 708 489 1 192 341 569 235 225 284 298 411 496 573 892 663 118 40
161 133 118 140 83 152 8 212 542 511 426 131 87 28 27 53 98 192 292 479 510 501 522 419 358 503 512 395 334 317 358 406 473 236 202 287 235 392 532 454 433 541 559 572 540 760 139 93 38
79 48 47 38 32 142 58 20 312 441 469 151 56 22 38 42 130 172 256 392 476 397 353 215 200 302 384 334 155 135 340 364 378 430 378 247 424 659 684 633 679 639 668 538 768 755 372 146 33
2 26 25 49 27 118 47 44 666 453 344 145 64 39 20 34 124 149 199 316 404 403 232 109 245 244 281 322 211 78 259 376 372 435 474 485 252 578 674 620 723 669 617 705 831 699 58 123 21
0 1 10 9 35 102 73 18 648 495 379 150 119 102 67 9 144 163 169 250 320 335 198 63 144 228 235 210 256 40 147 309 428 525 602 683 411 656 762 788 652 601 631 1015 859 679 547 133 60
0 10 4 0 10 55 79 56 631 498 444 218 160 209 242 117 103 149 156 180 269 252 147 0 20 142 212 136 175 468 380 454 354 664 772 824 748 1094 706 504 576 643 704 838 751 711 403 260 344
0 0 9 9 22 65 82 58 688 484 490 331 189 161 213 210 110 80 136 176 184 198 160 17 0 33 195 147 365 446 314 342 532 727 912 889 1061 1054 521 658 331 89 820 770 659 1 13 29 67
0 0 0 29 40 13 77 65 510 533 477 483 257 195 224 190 140 60 106 186 178 149 112 0 0 0 184 108 351 264 129 123 195 404 724 687 1054 1192 767 602 552 511 842 841 752 4 37 13 35
0 0 0 19 50 6 52 65 12 568 478 518 369 218 221 240 149 94 93 153 182 145 23 0 11 0 125 114 182 126 126 74 123 174 356 690 761 1116 1125 569 571 765 924 810 487 402 22 5 38
0 0 0 30 96 29 0 0 17 281 490 471 433 299 232 253 194 157 148 133 178 67 63 30 0 0 53 169 173 133 38 6 6 30 217 672 863 1027 1206 1017 886 935 952 1022 673 559 260 4 15
0 0 0 42 110 52 28 4 0 97 435 426 427 420 362 292 256 201 278 181 142 48 46 71 31 2 6 158 101 46 27 0 33 13 109 314 935 1001 1226 1248 1109 973 941 992 994 690 346 0 0
0 0 0 39 98 36 10 20 0 7 122 386 414 395 401 400 367 312 259 352 233 75 49 45 40 84 100 81 73 18 56 77 197 250 88 186 610 934 1076 1296 1204 1137 821 895 899 879 404 94 0
0 0 0 4 61 0 0 22 0 0 0 22 242 399 387 418 392 404 354 330 398 268 157 68 49 101 160 42 98 49 46 66 111 229 327 248 203 791 975 1233 1224 1282 1041 812 1010 1005 902 726 299
0 0 0 0 0 0 0 0 0 0 0 23 90 274 278 302 247 425 307 334 359 413 343 202 103 92 112 82 143 116 82 54 74 79 253 430 392 359 760 1050 1133 1156 1303 1223 1027 848 940 1081 957
0 0 0 0 0 0 0 0 0 0 0 1 40 121 110 180 178 201 339 280 321 358 432 358 227 215 162 163 200 204 177 140 113 109 97 104 292 305 466 659 1204 1395 1389 1545 1367 1136 1159 1253 1164
0 0 0 0 0 0 0 0 0 0 0 0 82 124 164 164 202 230 323 339 361 294 296 315 297 275 309 284 295 310 293 270 254 230 199 213 420 294 615 737 956 1191 1273 1549 1597 1339 1376 1410 1232
0 0 0 0 0 0 0 0 0 0 0 0 0 105 158 179 178 259 234 353 383 332 331 290 261 244 305 451 406 401 413 401 428 448 416 361 340 339 375 738 1010 1426 1321 1466 1638 1623 1388 1471 1614
0 0 0 0 0 0 0 0 0 0 0 0 0 84 194 239 351 327 271 275 344 349 312 338 311 355 317 473 497 493 545 664 749 529 516 488 509 561 339 633 939 1206 1489 1522 1532 1617 1635 1409 1545

GFSSGP_con_mucape_054.txt.gz
CAPE
168 52 24 69 91 120 35 66 264 122 133 114 0 5 25 65 29 0 0 0 68 427 1116 1510 2195 1854 1823 1908 1951 2220 2180 2168 2084 2076 2184 2067 1996 1995 1963 1959 1825 1530 1664 1816 1375 1148 1194 1018 1027
35 24 43 229 80 8 35 61 120 114 150 51 48 51 28 50 4 0 0 28 409 1006 1309 1430 2080 2212 1895 1821 1917 2197 1914 2025 2209 2281 2156 2079 1948 1976 1658 1814 1970 1930 1644 1662 1700 1328 1284 1231 1273
25 29 156 274 22 51 76 181 89 111 74 88 59 45 44 4 0 0 0 212 738 1191 1360 1443 2144 2108 1889 2080 2166 2023 1752 2215 2284 2022 1949 1842 1858 1942 2062 2009 1812 1727 1689 1551 1335 1377 1331 1255 1262
12 77 172 39 10 75 140 94 153 118 118 104 92 67 14 6 0 0 155 548 847 1148 1304 2012 1847 1886 1663 1945 2120 1660 1820 2136 2279 2234 1866 1929 1947 1866 1935 1857 1963 1761 1571 1705 1541 1525 1243 931 916
58 126 2 0 16 79 97 180 261 213 199 162 103 82 28 7 0 46 432 703 1007 1018 1167 1361 2148 2137 1720 1812 2198 1642 1923 2164 2181 2226 2094 1959 1781 1814 1786 1886 1761 1963 1971 1816 1724 1588 1187 1171 1224
467 9 0 8 18 51 97 110 515 311 134 116 138 64 2 4 1 196 622 835 946 1053 1135 1393 1722 2051 1707 1566 2001 1674 1905 2075 2074 1773 2064 2252 2145 2119 1991 1843 1763 1760 1707 1700 1682 1376 1191 1242 1302
184 1 0 6 28 64 96 102 396 337 297 218 154 100 44 9 20 364 614 926 1047 1245 1442 1294 1402 1492 1591 1466 1731 1602 1814 1908 1989 1997 2082 2218 2120 2079 2019 1964 1892 1880 1717 1341 1261 1218 1250 1398 1481
329 2 5 4 38 85 84 65 297 306 193 134 164 155 69 25 65 460 667 953 1154 1333 1449 1184 1387 1263 1318 1418 1633 1494 1706 1773 1843 1883 1892 1952 2049 2004 1909 1807 1667 1869 1659 1366 1138 1064 1241 1561 1589
376 17 0 22 28 101 129 107 452 331 282 125 210 89 21 4 235 392 621 836 997 1244 1313 1182 1199 1104 1223 1395 1349 1586 1770 1821 1801 1649 1742 1638 1374 1340 1366 1692 1706 1700 1532 1517 1650 1373 1666 1461 1465
452 96 0 19 51 187 331 512 365 230 127 89 29 29 16 21 310 133 190 401 765 874 1191 1202 1184 1099 1249 1406 1363 1473 1544 1557 1470 1447 1214 763 776 862 1090 1353 1593 1758 1550 1655 1406 1635 1436 806 943
376 198 60 27 69 17 218 231 363 156 115 24 8 7 14 57 261 84 137 348 481 672 1112 1132 1126 1032 1204 1361 1284 1443 1528 1467 1281 1065 657 820 851 1174 1108 1064 705 324 300 487 625 303 437 471 660
232 260 234 61 94 20 61 199 386 277 230 267 33 58 5 40 205 85 89 207 658 1102 781 1051 1054 925 1096 1197 1151 1168 1334 1268 955 464 260 465 785 923 834 633 112 146 331 426 483 689 801 654 711
244 199 131 269 226 89 44 330 539 348 351 248 122 62 43 43 95 110 146 253 459 670 755 932 911 775 885 902 1014 795 863 820 654 577 285 477 678 722 568 187 222 270 392 361 428 710 518 104 142
1 62 136 128 139 120 97 8 387 340 281 241 65 46 32 21 58 270 390 320 453 555 701 764 732 566 597 528 599 547 422 418 521 543 144 90 354 402 186 235 392 458 461 531 455 601 237 81 40
2 52 65 92 165 111 81 84 329 246 367 297 35 22 20 20 48 249 391 348 325 378 443 539 533 356 320 285 159 281 165 233 342 391 235 279 426 415 401 522 521 528 597 327 505 549 328 61 28
0 12 48 88 107 83 94 76 393 309 311 313 82 0 0 16 36 113 284 364 333 272 320 259 240 143 224 208 124 49 180 258 330 375 340 252 286 610 674 467 623 575 521 585 600 591 107 75 34
0 0 32 73 57 75 109 84 374 270 283 241 67 0 0 0 37 88 156 297 340 267 203 143 89 75 106 161 121 46 110 197 298 343 324 381 441 224 679 655 607 534 629 880 693 425 161 106 82
0 0 8 29 39 37 72 81 395 297 309 259 147 0 5 0 1 86 114 196 301 318 232 99 12 80 52 83 118 121 34 162 199 248 375 441 525 565 711 607 565 583 428 725 734 509 381 241 125
0 0 0 29 83 50 90 98 495 318 290 250 199 82 4 9 0 59 76 136 223 247 319 194 0 27 86 72 54 114 151 237 354 163 450 516 645 740 871 400 515 600 557 651 515 17 93 61 102
0 0 0 3 62 20 42 67 520 341 275 242 174 125 46 25 16 36 71 88 142 180 233 235 39 0 52 53 67 68 292 275 394 493 647 775 810 943 800 414 400 247 667 689 536 16 25 22 56
0 0 0 0 52 7 23 12 224 396 331 186 143 107 85 105 95 29 40 76 90 122 187 182 125 0 0 0 48 98 301 205 157 281 541 741 760 1050 951 627 526 482 788 761 635 27 25 8 15
0 0 0 0 43 40 52 0 0 350 329 275 229 189 161 96 114 78 43 48 71 125 119 169 175 12 0 14 32 76 302 283 66 87 228 527 617 840 1029 907 454 636 789 749 459 515 128 0 4
0 0 0 0 22 74 40 9 0 85 326 340 291 265 266 165 121 124 85 48 62 73 111 89 153 114 0 0 13 35 79 87 53 0 24 196 590 699 1076 1002 896 784 846 781 741 601 244 143 0
0 0 0 0 0 73 11 22 0 0 162 372 365 332 316 311 136 143 101 72 27 56 68 100 82 71 7 0 7 0 9 25 0 0 0 6 328 656 849 1126 1044 1082 832 791 788 856 662 277 0
0 0 0 0 0 0 0 52 0 0 10 186 339 388 372 356 233 143 120 81 45 40 52 55 102 56 10 9 0 0 0 0 0 0 0 0 12 436 700 878 1061 1189 1056 953 834 878 787 206 29
0 0 0 0 0 0 0 2 0 0 0 107 174 313 304 340 318 215 131 132 128 80 76 79 65 45 52 96 8 14 19 0 0 0 0 0 0 120 626 739 936 1125 1163 1163 812 797 977 808 554
0 0 0 0 0 0 0 0 0 0 0 0 40 77 218 315 324 293 255 197 155 156 126 73 37 22 36 80 56 104 116 0 0 0 0 0 1 49 233 673 1002 1022 1045 1026 1189 1044 842 794 908
0 0 0 0 0 0 0 0 0 0 0 0 0 6 72 288 321 310 298 295 297 226 189 215 117 36 69 54 55 114 178 35 1 5 11 10 1 119 270 399 801 1069 1086 1115 1205 1432 1329 972 976
0 0 0 0 0 0 0 0 0 0 0 0 6 46 103 233 317 309 263 241 226 275 275 273 251 197 93 128 123 99 128 144 54 27 55 42 27 0 135 412 583 794 975 1098 1149 1283 1553 1356 1319
0 0 0 0 0 0 0 0 0 0 0 0 0 26 163 205 215 189 177 157 162 202 268 280 260 250 273 261 209 192 198 193 141 103 115 105 102 64 52 284 506 872 1144 1147 1204 1319 1477 1598 1515

GFSSGP_con_mucape_057.txt.gz
CAPE
15 30 33 58 175 190 129 77 176 218 145 25 0 11 13 73 48 115 4 57 107 321 991 1187 2403 2021 1824 2007 2154 2373 2245 2180 2155 2163 2188 1955 1791 2095 2113 1844 1617 1611 1865 1319 1264 1280 1045 1307 1556
5 18 19 259 47 149 82 85 74 41 135 8 65 51 80 99 2 11 34 105 44 391 1024 935 2333 2197 1912 1938 2125 2320 2192 2104 2202 2097 2180 2080 1995 1847 1974 1907 1764 1653 1837 1734 1449 1414 1340 1356 1479
12 1 270 353 105 227 104 188 258 35 30 16 166 46 56 51 0 0 38 82 133 717 1117 1112 2238 2216 1883 2043 1911 2152 2113 2166 2113 2153 2104 1908 1923 1841 2041 1887 1662 1516 1510 1461 1528 1455 1441 1289 1215
37 143 196 66 10 113 123 150 261 150 46 68 48 28 27 4 0 2 212 169 215 722 898 1511 2134 1567 2145 2164 1519 2037 2025 2219 2223 1815 1848 1877 1893 2070 2020 1725 1585 1408 1511 1478 1524 1530 1372 1311 1428
84 339 26 52 42 75 219 194 325 306 232 83 47 48 31 0 10 98 369 244 400 519 1014 1168 2431 1794 1947 2058 1565 1942 2027 2033 2134 2122 2288 2138 2081 1907 1842 1711 1664 1280 1535 1464 1741 1266 1242 1413 1369
380 28 19 7 59 73 141 223 515 436 137 77 61 69 11 18 46 270 375 343 445 806 735 1024 2005 1779 2002 2015 1613 2037 2108 2100 2026 1961 1995 2265 2234 1994 1806 1882 1831 1759 1656 1407 1398 1163 1310 1336 1464
371 53 13 5 39 107 248 255 438 300 145 158 139 92 40 36 117 290 434 604 533 704 810 961 1747 1667 1612 2003 1614 1905 2041 2011 1850 1819 2027 2214 2226 2134 2014 1901 1778 1462 1253 1232 1163 1339 1485 1514 1622
286 0 7 48 111 147 146 117 431 235 185 204 202 160 83 26 171 277 640 741 495 516 803 991 1539 994 997 1270 1556 1731 1826 1890 1986 1939 2120 2148 2086 1993 1744 1740 1827 1386 1155 1055 1121 1291 1573 1715 1613
137 31 43 22 39 176 117 235 379 262 156 82 97 128 26 39 218 269 748 725 431 564 734 890 1201 1339 1465 1368 1261 1612 1714 1798 1809 1767 1970 1816 2021 1686 1285 1567 1654 1498 1529 1406 1240 1441 1516 1654 1704
166 190 90 17 47 162 271 474 370 250 178 74 85 76 9 64 214 228 458 370 199 704 661 773 1081 1080 1247 979 1423 1635 1561 1437 1532 1801 1789 1609 1689 1692 1282 1449 1671 1642 1717 1582 1600 1407 1630 1189 1281
212 426 110 51 40 436 541 571 384 322 247 84 28 8 28 82 106 73 135 85 123 652 516 856 1122 1205 1306 1184 1580 1537 1612 1597 1749 1816 1274 1469 1618 1772 1305 1538 855 790 1026 892 848 1010 933 1102 1139
310 359 395 246 123 47 141 291 537 388 372 229 35 6 21 73 78 22 59 113 200 516 620 774 1083 1171 1322 1367 1378 1435 1427 1465 1400 1259 692 1496 1670 1696 1338 1134 731 722 977 1443 1629 1650 1657 1494 1356
188 267 207 271 229 174 79 250 620 509 372 254 49 0 3 24 32 18 65 177 199 257 721 792 1152 1142 1375 1528 1330 1312 1435 1297 1112 1123 194 1161 1467 1647 1191 1127 1060 1394 1347 1473 1749 1468 1086 844 829
12 40 175 124 144 98 147 76 494 317 298 237 63 18 28 20 20 8 91 202 243 329 658 862 1094 1021 1225 1151 1490 1269 1265 1115 1118 1166 311 538 1132 1422 918 1063 1376 1519 1480 1480 1520 1543 1054 686 731
0 0 2 74 120 132 88 114 225 230 232 141 67 25 41 44 16 21 73 216 539 674 702 850 950 874 989 1014 1100 933 818 790 1048 1193 1165 450 527 1017 1168 1514 1532 1609 1792 1509 1950 1648 1096 265 578
0 0 19 71 88 138 87 202 354 201 170 194 132 52 38 32 37 70 109 197 405 542 754 865 544 547 624 585 639 541 428 649 996 1137 1055 828 1128 1438 1760 1649 1603 1664 1574 1797 2480 1666 848 511 388
0 0 29 85 94 124 164 238 543 206 242 189 168 87 30 21 18 196 246 312 293 451 715 790 724 495 453 554 464 386 384 603 876 1057 1151 1337 1296 1023 1634 1586 1692 1875 1766 1807 1716 1380 929 567 242
0 0 1 122 142 135 153 218 636 192 203 207 193 91 73 41 18 126 262 390 487 446 614 672 613 610 559 528 667 398 253 484 808 951 1031 1431 1447 1457 1564 1708 1698 1510 1936 2186 1813 1812 1233 896 182
0 0 0 89 174 123 107 91 649 424 190 198 213 156 80 26 0 72 209 357 473 643 567 585 622 758 515 401 384 485 492 633 795 1039 1306 1562 1547 1667 1863 1590 1649 1351 1620 2214 1589 1031 745 777 91
0 0 0 3 77 82 73 88 330 590 406 218 123 143 101 22 14 81 220 260 392 565 617 631 650 702 694 428 606 624 866 885 1117 1282 1473 1691 1663 1934 1839 1582 1501 1376 1558 1846 1521 1009 94 233 133
0 0 0 0 3 53 71 48 87 614 557 393 100 106 69 34 22 62 218 241 311 477 619 653 845 849 815 851 662 697 839 767 876 1196 1550 1724 1859 1997 2037 1598 1573 1481 2581 2361 1884 996 514 196 326
0 0 0 0 0 0 48 22 17 285 700 524 437 208 125 55 36 15 139 253 296 567 436 710 806 915 723 974 915 1356 765 825 859 1117 1282 1803 1926 2004 2117 2033 1697 1843 2113 2556 1859 1483 924 473 302
0 0 0 0 0 0 0 7 0 104 628 747 618 491 380 215 80 23 39 158 183 287 380 258 793 1110 1127 1166 1224 993 1196 886 942 782 1316 1816 2037 1948 2043 2218 1960 1955 2049 2321 2040 1994 1663 523 219
0 0 0 0 0 0 0 0 0 0 268 692 746 688 552 447 408 383 210 125 216 145 280 298 770 903 1123 999 1167 1561 1658 1233 846 832 846 938 1328 1722 1978 2051 2259 2315 2105 2119 2099 2158 1857 1157 317
0 0 0 0 0 0 0 0 0 0 6 226 624 754 740 634 492 493 451 339 320 509 464 544 661 841 942 970 1172 1336 1537 1762 1529 1293 781 995 824 1260 1848 2256 2370 2222 2486 2295 2215 2271 2249 1716 782
0 0 0 0 0 0 0 0 0 0 0 2 181 509 696 758 620 554 532 604 673 698 742 655 689 814 824 900 1213 1403 1550 747 680 1138 652 619 491 803 1524 2092 2212 2340 2448 2402 2337 2155 2121 2098 1665
0 0 0 0 0 0 0 0 0 0 0 0 9 246 629 778 755 643 604 527 702 709 853 770 891 875 828 503 1126 1347 1394 1330 944 1375 1117 672 1060 450 1069 1606 1933 2130 2297 2512 2498 2199 2246 2225 2286
0 0 0 0 0 0 0 0 0 0 0 0 0 102 415 728 828 793 670 684 689 542 685 761 893 924 962 833 899 1094 1243 1324 1333 1270 1345 1305 860 759 641 1375 1719 1971 2158 2429 2555 2167 2373 2407 2149
0 0 0 0 0 0 0 0 0 0 0 0 0 2 71 427 756 810 836 805 779 519 752 838 722 1029 986 831 940 1044 1063 924 999 1016 1165 1526 1045 1067 1197 1496 1635 1855 2018 2214 2527 2476 2354 2600 2618
0 0 0 0 0 0 0 0 0 0 0 0 0 14 38 198 614 761 794 795 762 965 894 821 717 598 800 980 1053 1033 1104 1139 844 1186 1098 1373 1592 1097 1191 1434 1691 1777 1797 1947 2194 2147 1806 2314 2660

GFSSGP_con_mucape_060.txt.gz
CAPE
1 3 56 87 217 328 411 338 367 449 113 79 24 2 49 233 393 773 450 563 622 697 757 1355 2340 2113 2113 2152 2202 2295 2281 2239 2157 2119 2097 2069 2232 2331 2140 1874 1533 1979 1407 1393 1342 1175 1553 1542 1269
8 15 35 317 257 550 358 412 401 201 170 70 63 45 186 313 144 239 466 553 693 738 632 1426 2256 2388 2115 2349 2333 2330 2287 2303 2263 2263 2132 1936 2121 2080 2142 1781 1716 1881 1714 1552 1513 1375 1380 1655 1559
12 69 293 568 588 422 195 549 360 45 41 147 205 264 414 402 149 270 484 482 490 398 389 1794 2184 2420 2246 2162 2162 2096 2126 2210 2313 2196 2088 1927 1844 2017 1936 1772 1531 1650 1591 1691 1650 1531 1400 1472 1602
48 391 609 674 233 410 108 631 386 288 62 122 214 342 178 107 147 275 397 500 525 397 394 1861 2005 1716 2240 1941 2119 2172 2158 2260 2079 2157 2021 2056 1751 1805 1639 1550 1563 1566 1534 1614 1693 1620 1393 1521 1284
328 610 419 345 86 102 529 540 532 461 263 301 290 375 17 15 38 303 350 494 425 274 523 1732 2357 1966 2030 1623 1985 2100 2296 2266 1996 2095 2093 2048 1919 1709 1598 1524 1362 1568 1543 1722 1448 1351 1453 1504 1515
553 620 295 28 54 358 593 593 698 619 579 336 387 282 112 13 104 278 336 308 150 185 338 1525 1843 2085 2088 1615 2127 2049 2111 2024 1994 2046 2073 2119 2121 2096 2007 1972 1849 1651 1543 1632 1297 1309 1475 1523 1814
468 547 438 205 307 575 773 796 749 872 590 252 321 606 181 108 150 205 244 61 107 142 367 1303 918 1908 1839 1669 1962 2009 2095 2026 1871 1813 1841 2245 2155 2027 1835 1703 1483 1404 1331 1130 1352 1483 1620 1544 1802
888 156 218 261 414 619 516 761 839 772 683 365 252 382 260 247 181 119 126 56 173 144 345 1103 748 936 1755 1201 1881 1949 2037 2056 1944 1701 2031 2121 1969 1603 1553 1888 1421 1215 1157 1143 1304 1567 1518 1484 1601
295 372 375 166 235 720 489 731 728 634 517 353 291 364 333 167 209 102 162 93 185 131 302 891 482 750 1058 1261 1780 1866 1924 1980 2031 2026 2233 2041 1135 1117 1282 1644 1301 1424 1277 1164 1269 1504 1574 1753 1739
376 521 455 99 348 343 468 907 874 719 547 365 272 209 172 179 227 206 157 130 99 103 183 510 462 715 933 674 1335 1376 1268 1249 1372 1361 1528 1258 1334 1412 1224 1514 1712 1526 1523 1536 1454 1516 1503 1752 1094
343 503 280 244 468 646 428 883 863 818 713 556 480 290 191 225 417 312 144 90 66 52 122 392 561 804 836 888 1138 1211 1204 1202 1496 1654 1365 1339 1292 1118 1193 1070 1209 1093 1375 970 1346 1483 1173 1221 986
114 223 583 459 248 636 772 865 859 760 801 654 477 286 226 313 282 245 130 94 8 44 113 344 535 827 984 988 1014 992 969 930 939 1232 1748 1693 1633 1429 1144 889 966 1286 1226 1616 1223 1159 1615 1468 1447
0 196 450 505 341 325 295 530 875 836 831 558 389 264 254 287 179 161 173 42 14 72 80 254 540 915 1205 1152 996 884 934 1021 1025 1483 1221 1322 1257 1344 1087 1201 1190 1199 1323 1149 1149 1038 1047 1181 1406
0 0 64 366 509 342 431 353 660 839 728 573 374 295 261 233 99 114 123 5 51 88 71 206 540 876 1159 1204 1353 1185 1184 1243 1214 1134 857 1802 2120 1594 1166 1405 1368 1175 1172 986 980 952 553 641 946
0 0 0 6 398 448 372 395 403 815 685 601 417 312 232 232 92 78 84 54 74 90 162 240 514 662 1089 1235 1487 1220 1103 864 1040 1134 1272 1022 1617 1876 1501 1414 1378 1249 1569 1634 1441 1200 951 123 378
0 0 0 11 271 334 275 407 454 768 745 671 485 331 232 212 97 60 79 58 124 96 279 359 218 374 814 924 1191 803 787 892 961 1141 1233 1056 1506 1877 2289 1648 1329 1627 1439 923 742 1071 274 121 243
0 0 0 360 284 380 315 454 804 689 775 796 569 393 274 258 152 51 65 71 112 299 469 482 312 301 425 688 719 692 920 1076 1155 1280 1284 1693 1659 1785 1815 1349 1709 2035 1467 780 735 608 403 151 213
0 0 0 121 296 382 444 510 811 745 776 836 678 441 338 335 253 89 56 60 139 397 571 571 373 379 478 458 581 473 721 1027 1246 1351 1381 1863 1715 1808 2061 1731 2280 1428 876 949 863 1020 584 715 527
0 0 0 0 219 350 449 429 927 706 770 792 783 619 422 345 312 240 184 166 100 282 550 668 521 576 585 401 296 451 651 942 1164 1184 1566 2007 1869 2080 2285 1529 2073 2146 962 689 1444 1631 1380 280 275
0 0 0 0 21 262 399 342 340 933 699 825 824 754 514 420 322 241 353 238 141 295 443 749 727 786 820 261 469 355 743 890 1056 1371 1855 2107 2079 2230 2093 1927 1825 1910 1001 1284 1557 1264 531 637 310
0 0 0 0 0 74 263 371 304 533 811 721 717 757 590 460 429 265 375 294 207 331 581 739 958 952 913 630 321 937 1131 1295 1577 1626 1626 1978 2186 2271 2224 2322 1976 2288 1352 1222 1635 1153 719 394 629
0 0 0 0 0 0 87 276 259 279 876 849 764 742 697 555 416 363 356 389 289 356 607 892 1085 1151 990 887 953 1798 1197 874 682 1126 992 1484 2190 2199 2347 2399 2261 1961 1246 1547 1115 1028 716 790 415
0 0 0 0 0 0 0 106 136 231 468 968 891 722 631 590 443 355 374 535 416 398 573 938 1306 1948 1855 1647 1490 1074 1581 453 580 847 1589 2057 2473 2314 2145 2570 2568 2537 1499 1690 1635 1795 1803 460 201
0 0 0 0 0 0 0 7 40 100 212 452 866 818 765 578 450 368 351 476 549 492 459 823 1878 2078 2076 1602 977 1795 2073 1477 839 1457 1318 1267 1334 1904 2376 2477 2748 2727 2144 1714 1615 1849 2158 1571 1114
0 0 0 0 0 0 0 0 0 40 151 176 436 800 897 920 667 438 329 325 627 642 623 770 1645 2394 2163 1554 1304 1345 1595 1944 1599 1583 1255 1661 829 1036 1680 2600 2812 2590 3119 2407 2208 2975 2090 2179 1706
0 0 0 0 0 0 0 0 0 0 3 55 178 628 969 1070 1010 918 619 450 424 637 696 800 1464 2252 2047 1814 2329 2274 2322 1142 1294 1468 1103 974 725 735 1104 2303 2370 2586 2509 2699 2614 2128 2064 2064 2080
2 0 0 0 0 0 0 0 0 0 0 0 14 179 392 702 957 1033 1100 1063 786 609 1081 1297 1754 1695 1892 1355 2370 2441 2427 2134 1335 2353 1543 1077 1803 739 910 1338 2173 2104 2284 2559 2537 2290 2542 2365 2291
0 0 0 0 0 0 0 0 0 0 0 0 0 4 134 424 872 1008 1108 1193 1158 839 784 868 1039 1680 1505 1508 1623 1673 1636 2104 2122 1755 2180 1843 1262 1400 999 1244 1530 1551 1789 2377 2766 2317 2618 2904 2491
0 0 25 4 1 0 0 0 0 0 0 0 0 0 16 425 901 1041 1094 1139 1215 1062 815 928 1002 1178 1342 1584 1869 1779 1546 1472 1681 1584 1723 1932 1711 1580 1820 1402 1297 1303 1914 2300 2703 2569 2137 2793 3021
2 36 16 57 0 0 0 1 0 0 0 0 0 0 11 81 474 904 965 1070 1182 1234 977 890 1013 1088 1187 1760 2303 1892 1841 1859 1381 1744 1788 1908 1987 1833 1958 1849 1660 1297 1505 2058 2592 2530 1872 2350 2569

GFSSGP_con_mucape_063.txt.gz
CAPE
0 0 34 38 492 528 489 185 495 365 367 187 122 159 334 469 446 1078 614 707 676 828 873 1270 1962 2000 2054 2053 2006 1960 1932 2072 2154 2145 2163 2382 2156 2249 1963 1535 1894 1466 1614 1349 1334 1663 1491 1400 1923
11 15 168 662 810 917 243 456 391 293 290 202 36 201 332 569 451 344 571 509 583 708 792 901 2273 2508 2093 2147 2335 2285 2302 2335 2368 2188 2028 2125 2177 2069 1894 1729 1793 1586 1671 1579 1388 1538 1540 1542 1798
304 27 671 895 985 265 541 615 739 410 249 323 499 344 703 371 538 548 726 592 546 448 409 1280 2311 2444 2354 2277 2297 2243 2243 2266 2177 2140 2057 1979 1939 1858 1890 1681 1716 1653 1859 1635 1636 1500 1594 1802 1490
30 373 894 1151 494 688 345 463 401 33 276 354 294 621 478 389 435 450 718 596 331 504 470 1744 1992 2113 2139 2204 2147 2159 2169 2124 2200 2122 2023 1852 1809 1799 1708 1726 1650 1576 1711 1721 1706 1589 1502 1430 1551
228 768 793 721 525 314 156 483 230 238 380 408 604 639 410 203 343 383 466 366 214 457 525 1492 2360 2004 2016 2181 2128 2108 2114 1881 2090 2034 2003 1869 1857 1640 1622 1578 1691 1618 1614 1495 1473 1569 1655 1509 1623
475 748 661 587 157 454 496 715 433 397 532 578 714 473 371 285 411 404 346 575 136 188 425 734 1979 1877 1931 1887 1973 2112 2025 2012 1931 1938 1887 1798 1908 2169 2057 1876 1646 1588 1683 1400 1371 1429 1534 1643 1593
558 864 514 130 152 536 742 869 733 473 658 633 696 1037 281 278 348 233 416 209 77 128 420 789 1534 1837 1762 1952 1904 2050 2050 2030 2132 2131 2072 2236 1941 1908 1828 1638 1589 1393 1135 1401 1388 1195 1539 1730 1846
876 1024 376 372 537 490 865 792 580 661 691 607 835 863 307 312 207 196 243 176 75 211 319 458 941 1424 947 1858 1802 1975 2054 1944 1762 1662 1985 2064 1705 1239 1074 2002 1625 1272 1150 1383 1201 1311 1462 1693 1740
514 501 454 365 448 606 649 890 898 720 761 671 671 689 442 208 216 215 83 126 96 86 313 274 523 1139 904 1677 1919 1959 2063 1999 1872 1881 1936 1849 1115 1399 1358 1668 1470 1255 1130 1166 1186 1236 1523 1711 1727
533 693 394 140 509 895 702 854 955 759 703 564 548 642 329 286 283 149 78 174 59 63 156 198 413 529 673 671 1502 1598 1526 1198 1319 1032 1704 1666 1706 1733 904 1256 1420 1448 1389 1324 1338 1210 703 1670 1178
365 715 601 416 786 663 761 785 806 558 520 607 646 385 201 304 286 130 78 136 36 36 155 81 352 465 407 1048 1211 909 1425 937 1283 1160 1121 889 875 1106 693 1186 1208 1305 1679 1085 1193 1327 1385 1442 1113
124 169 417 392 758 470 638 604 623 749 549 524 769 535 297 395 273 182 117 97 28 26 64 66 297 591 569 459 814 1176 786 537 767 1144 1312 1477 1903 1438 1729 1617 1294 1414 1022 1202 1108 1132 1114 1211 837
20 136 503 560 462 643 599 463 512 628 652 681 643 535 283 393 225 209 171 83 30 17 39 117 344 723 1060 1322 2175 759 490 419 962 1237 1443 1438 1753 1457 1948 976 835 2148 1269 917 1093 639 1102 1262 1131
0 0 169 508 502 427 269 229 448 727 781 779 635 567 378 422 301 218 194 75 27 12 24 182 400 804 954 1610 2047 754 437 2031 1008 1418 1137 1677 1750 2167 1217 2006 1546 1105 525 996 1276 1686 1296 1587 946
0 0 0 62 502 421 368 279 289 690 831 861 638 593 315 327 385 265 260 64 30 6 14 196 420 684 993 2136 1069 800 837 1011 1337 1598 1695 1477 2101 1699 2499 1975 554 1057 1402 2049 1159 808 76 395 918
0 0 0 24 175 475 443 422 272 858 887 922 625 580 468 385 403 338 291 57 85 13 6 140 154 582 882 1219 1187 917 672 1049 1244 1275 1519 1395 1652 1705 2328 1319 1461 1168 923 975 608 200 1100 100 435
0 0 0 0 5 157 471 295 207 725 879 973 686 624 472 359 319 351 234 63 77 48 31 123 247 496 837 1204 1169 1244 1122 1485 1462 2165 1774 1733 1965 1881 2232 1464 1954 1949 1569 1082 523 43 841 412 54
0 0 0 0 213 245 440 341 338 935 762 1007 793 614 565 485 395 316 207 92 67 52 144 254 268 1141 1510 1291 1188 850 950 1304 1661 1542 2026 1973 2029 1883 2131 1565 1515 1376 1091 405 1654 578 1176 1164 470
0 0 0 0 283 227 252 305 339 772 730 999 922 576 582 571 485 305 224 121 69 94 273 433 882 2143 1114 809 690 697 813 998 1774 1641 1673 1759 1877 1916 2109 1736 1863 1562 1540 1140 759 730 482 48 1054
0 0 0 0 43 238 222 292 410 648 706 948 975 750 580 636 518 336 253 149 80 175 452 1238 1374 2284 1359 794 1221 934 1281 787 811 814 1714 1773 1628 2016 1863 2386 2055 1971 1566 1205 1429 1392 919 156 515
0 0 0 0 0 142 226 282 297 363 628 808 926 975 514 650 687 503 343 206 122 258 476 1417 1956 2246 1763 1494 1200 1244 1307 1422 866 1560 1406 1874 1908 2058 2101 2114 1755 1639 1723 1204 1453 1389 1860 927 327
0 0 0 0 0 10 79 250 161 68 687 726 918 1003 915 486 683 671 557 387 237 205 381 1523 1796 2354 1891 2012 826 1877 1016 805 651 1182 928 1578 1901 1980 2169 2341 2272 1964 1631 2517 2109 1234 1829 1714 484
0 0 0 0 0 0 2 30 381 386 690 663 830 956 950 808 559 658 623 606 400 254 377 581 2174 2571 2202 2060 1843 1140 1796 650 595 626 2912 2946 3367 2019 1794 2391 2184 2283 1654 1833 1472 1713 2016 868 1072
0 0 0 0 0 0 0 15 93 51 164 636 792 852 916 917 750 640 618 671 580 347 361 946 2256 2854 2822 2474 2000 2567 2094 1991 456 903 1535 1007 1631 1852 2204 2077 3028 2185 1925 2008 1985 2158 1788 3104 1554
0 0 0 0 0 0 0 0 8 142 184 159 666 797 853 869 899 771 641 593 750 904 888 1237 2415 2966 2868 2697 1872 2059 2676 2745 3015 2515 1027 1299 579 708 3052 3079 2771 2776 2821 2185 2205 2730 2017 2122 1711
0 0 0 0 0 0 0 0 0 1 89 99 35 539 796 819 829 858 787 688 1102 1209 1276 1463 2319 3146 3107 2699 2621 2151 2587 910 862 1890 976 692 473 618 3491 2531 2132 2362 2640 2133 2752 2101 2014 3218 1932
0 0 0 0 5 0 0 0 0 0 0 64 2 310 423 824 860 815 864 816 1099 1279 1643 1654 2196 3038 3107 2201 3016 3134 2495 1759 856 2192 2675 1570 1942 807 818 1584 2183 2076 2168 2678 3285 2022 3148 2199 2507
5 2 0 0 3 0 0 0 0 0 0 0 14 94 259 625 920 1007 989 843 822 914 1048 1578 2089 2964 2572 2575 2873 2769 2546 2549 2398 2884 3391 2365 2440 2675 1456 2001 1619 2127 2492 2451 3734 2844 3209 2895 2399
0 0 9 31 4 3 0 0 0 0 0 0 0 0 198 791 800 921 1042 1159 924 821 919 1091 1517 2238 2366 2652 2710 2437 2374 1997 2461 2948 3126 3050 2813 3270 3045 2695 2336 2014 2151 2740 3717 3695 2793 3332 3375
0 2 0 65 42 13 0 10 0 1 0 0 2 8 27 129 537 756 876 1155 1286 1296 1026 1039 1100 1197 1819 2262 2754 2633 2829 2228 2183 2633 2739 3382 3453 3186 3430 3050 2957 2361 2089 2940 3612 2884 2564 2553 2766

GFSSGP_con_mucape_066.txt.gz
CAPE
0 0 0 82 165 452 477 317 170 247 185 64 175 240 382 421 566 637 140 199 520 738 1092 1260 1925 1972 1984 2109 1994 1981 2278 2280 2163 2041 2111 2369 2100 1836 1583 1820 1591 1763 1333 1466 1726 1521 1701 2010 2152
0 1 69 606 409 642 282 239 472 253 175 72 124 214 296 416 198 116 469 568 568 824 1010 1111 1845 2108 2209 2008 2441 2344 1984 2081 2114 2064 2205 2040 1929 1797 1810 1674 1635 1842 1761 1445 1726 1553 1611 1955 2015
47 29 421 747 798 75 370 122 354 180 87 140 316 458 345 298 244 417 495 343 505 475 664 1140 2549 2424 2285 2407 2122 2273 2279 2248 2229 2067 2029 1781 1806 1819 1658 1598 1756 1850 1696 1681 1599 1816 1874 1565 1987
241 249 457 836 652 113 556 206 437 219 243 470 275 401 203 355 325 293 310 299 70 80 518 1734 2510 1993 2436 2120 2225 2262 2208 2276 2069 2130 1973 1931 2137 1856 1873 1783 1649 1848 1740 1682 1690 1569 1558 1643 1458
259 609 494 811 608 222 559 359 115 341 280 468 488 258 228 257 341 296 140 203 57 289 673 1151 2416 2125 2088 2185 2107 2227 2058 2156 2069 1996 2084 2053 1976 1753 1756 1782 1655 1646 1686 1589 1697 1710 1582 1623 1517
367 581 713 676 222 108 388 326 137 257 410 434 324 154 156 256 223 208 182 175 193 228 400 1165 1819 1971 2134 2069 2280 2079 2025 2091 1832 2327 2206 2056 2243 1895 1752 1609 1644 1784 1510 1445 1535 1563 1540 1474 1496
203 677 376 204 219 326 597 564 347 408 458 574 265 355 198 211 184 177 123 58 32 65 250 983 1184 1825 1924 2152 2101 1973 2161 2090 2570 2282 2567 2725 2544 2096 2070 2069 1489 1297 1389 1170 1284 1597 1641 1682 1577
491 594 580 395 253 13 353 617 556 458 556 590 632 332 190 275 255 213 241 33 58 98 303 1148 1020 920 1604 1696 1952 2028 2018 2067 2318 2551 2609 2545 2077 1376 1555 2162 1960 1169 1419 1179 1306 1517 1729 1731 1549
245 674 680 268 101 292 511 680 575 558 572 575 669 414 189 149 217 136 80 17 224 61 170 338 573 846 2013 1892 1952 2013 1965 1743 1882 1875 1863 1735 1452 1619 1253 2118 1885 1231 1338 1311 1402 1532 1504 1581 1487
46 694 567 345 285 98 526 598 535 518 459 587 754 446 170 103 212 232 37 9 136 57 8 191 899 808 1573 928 1975 2109 1684 1481 1652 1811 1783 2397 1130 1875 1067 1642 2013 1258 1597 1602 1441 177 1116 1510 1496
14 83 569 189 301 321 350 561 410 442 385 501 541 294 149 110 186 55 47 18 27 61 44 187 887 1022 757 1130 1901 1786 1506 1710 1789 2416 1461 2079 1624 1886 1006 1381 1373 1565 1674 1168 1374 1270 934 1329 1294
5 41 64 75 524 524 317 344 351 245 302 565 527 229 196 150 115 25 43 53 31 65 48 301 414 1360 772 1149 1348 982 1552 1236 1306 1675 1922 1962 661 576 1612 930 1982 911 1063 1364 645 1284 705 856 877
6 19 39 307 594 310 66 228 13 144 16 490 474 197 192 165 68 44 70 56 27 19 53 322 410 2356 782 1006 592 970 523 822 1534 1597 1036 1372 1973 1213 1963 491 890 824 1543 1160 597 1495 1098 644 1141
5 0 19 270 476 676 221 150 229 175 283 601 361 190 177 203 75 120 95 55 31 19 145 407 398 1646 2032 1952 2221 895 1851 774 1494 1783 1532 703 2015 2502 2456 1017 1089 843 1223 1174 1421 1709 1604 1230 512
0 0 0 6 520 464 264 178 241 455 345 417 471 277 228 243 162 176 182 79 35 48 352 446 395 925 2062 1391 1550 1888 1577 1315 440 2095 2462 1739 1262 2365 1799 746 961 981 1970 1664 1554 2383 1136 768 1043
0 0 0 0 31 430 363 440 123 457 568 492 576 308 391 275 191 227 186 59 46 29 675 358 14 556 1272 1797 2305 2038 1488 1540 1529 1391 2150 2333 1110 2923 965 1275 912 1487 1001 1814 317 1789 1409 590 675
0 0 0 0 10 124 438 325 336 300 665 574 547 396 339 363 315 312 146 68 57 180 654 429 683 875 1114 1897 1711 1740 1507 2126 1495 2254 1838 2748 2655 2328 1855 696 1538 894 2255 2242 1506 71 1819 1065 1073
0 0 0 0 0 48 169 231 269 87 412 529 485 500 349 263 314 360 195 40 87 249 481 518 1021 1608 1675 2058 2669 1349 1865 1487 1428 2590 2546 2960 2374 2656 1269 1476 2246 2352 249 766 1745 139 897 556 476
0 0 0 0 0 43 57 165 94 109 265 352 448 719 444 354 479 444 275 32 166 220 387 736 1397 2015 1532 1676 1561 1341 1193 1973 622 801 1627 3043 2605 2507 1524 1862 2261 2248 500 623 1806 2292 1618 603 1285
0 0 0 0 0 97 331 139 61 0 19 310 431 471 682 389 304 394 331 62 95 274 397 1155 1285 1942 1402 1807 1814 1696 1330 1558 968 1290 2159 2641 2666 3037 2283 1705 2273 907 2376 2260 1603 449 719 144 373
0 0 0 0 0 81 90 70 63 29 26 284 518 321 473 609 489 429 324 163 148 283 555 1031 1310 1798 1454 1825 1592 2492 2795 2238 1720 2489 2474 2791 2832 3028 2162 2643 2017 2484 1003 1608 2059 2369 287 660 1160
0 0 0 0 0 0 15 140 11 47 196 14 207 397 371 612 603 454 352 291 123 359 746 989 1494 2120 1387 2148 1296 1976 1501 1492 1582 1832 2237 2492 3182 3068 2913 2879 3201 2380 1844 1445 2907 2522 1195 238 1136
0 0 0 0 0 0 0 7 206 179 51 4 48 313 281 487 601 519 331 358 176 498 675 976 1357 2024 1351 1434 2023 1852 1704 1424 2190 1598 2761 2624 3641 3526 2908 3649 3279 2612 2553 2669 2805 2402 2782 2426 1750
0 0 0 0 0 0 0 0 0 254 101 15 7 309 387 268 564 742 494 447 316 426 528 1119 1310 1665 1684 1391 1522 2150 1428 2410 1941 1956 1796 2478 2586 2836 3563 3188 2927 2690 2826 2445 2658 3033 2904 3246 2942
0 0 0 0 0 0 0 0 0 32 167 11 0 372 687 578 558 830 857 709 538 378 517 836 1350 1475 1562 1521 1089 2157 1602 1835 2870 3104 1870 1539 2041 1749 2827 3776 3013 2932 2950 2907 2822 3381 3287 3219 3079
0 0 0 0 0 0 0 0 0 0 309 297 128 168 62 809 719 764 910 938 820 633 533 719 1405 1571 1586 1925 1102 1318 2241 1472 1729 2759 1698 2752 1530 1976 2562 3026 3071 3338 3195 3110 3167 2710 3115 3016 3219
0 0 0 0 0 0 0 0 0 0 0 484 121 29 8 182 754 883 954 932 1161 959 709 897 1373 1652 1903 1667 1859 1048 1996 1981 1107 2265 2808 2042 2510 2199 2888 3030 3392 3577 3050 2957 3161 2469 2783 2448 2952
0 0 1 0 0 0 0 0 0 0 0 0 186 157 175 93 189 434 1013 988 1168 1116 1116 978 1462 1772 2042 1745 2010 1635 997 1692 1777 1052 2916 2133 2688 2442 2932 3258 3049 3042 3677 3528 3247 2774 2768 2955 2509
0 0 0 1 13 0 0 0 0 30 0 0 327 159 4 0 5 102 339 1091 1047 1132 1321 1203 1290 1984 2321 2285 1936 1917 1619 1258 1141 1616 1283 2098 2105 4008 3311 3729 3208 3175 2970 3717 3618 3099 2837 2944 2787
0 0 0 16 1 6 2 0 0 0 10 0 0 259 160 91 55 63 46 435 1078 1103 1145 1403 1361 1702 2218 2398 2194 2046 2300 1675 1405 884 2044 2625 3407 2866 4310 3346 3799 3060 3021 3160 3277 3143 2147 2991 2843

GFSSGP_con_mucape_069.txt.gz
CAPE
1 0 6 34 18 67 228 202 130 71 109 149 290 268 326 399 320 34 65 148 269 495 821 1372 2105 1825 1951 2189 2461 2265 2176 2214 2082 1910 2112 2109 1866 1930 1919 1714 1790 1217 1820 1639 1641 1959 2126 2074 2170
0 3 70 130 123 160 145 135 407 67 80 155 340 264 199 124 278 3 75 178 398 702 843 1092 1851 1995 2005 1973 2414 2433 2249 2356 2269 2349 2083 2033 1948 1926 1836 1802 1932 1504 1575 1661 1638 1725 1918 2149 2188
0 10 43 134 118 0 181 74 353 98 142 218 311 162 104 6 24 23 160 310 563 648 799 974 1858 2271 1840 2060 2245 2535 2206 2201 2150 2033 2005 1974 1931 1831 1576 2000 1701 1801 1618 1724 1797 1698 1783 1980 1949
11 104 77 87 129 0 153 37 112 285 239 166 114 62 27 72 145 119 202 445 402 706 851 2019 1968 2001 1922 2095 2234 2166 2221 2164 2202 2275 1961 2015 1885 1900 1827 1765 1868 1680 1625 1686 1571 1512 1711 1444 1627
132 141 144 231 268 230 87 92 68 294 277 207 125 96 124 79 46 110 217 98 369 455 1371 1787 2410 2408 2035 2032 2224 2174 2223 2133 2067 2310 1964 2158 1806 1849 1754 1585 1790 1598 1763 1798 1577 1506 1537 1445 1304
43 142 176 224 139 253 275 299 197 300 307 210 95 99 116 37 24 77 89 70 327 528 1241 1398 1942 2088 2221 2012 1975 2049 2026 2057 2062 2026 1844 1871 1627 1631 1600 1550 1870 1615 1563 1606 1528 1483 1485 1462 1224
335 284 234 114 152 207 188 170 247 328 253 106 90 99 95 19 28 42 21 61 152 550 1102 1295 1550 1603 2010 2009 1929 2066 2090 1984 2110 2013 2177 2181 2091 1836 1645 1466 1586 1432 1303 1399 1539 1534 1516 1533 1303
267 298 243 261 55 7 97 337 341 384 398 136 84 69 68 34 42 37 9 32 115 624 966 748 1473 1372 1571 1688 1880 1917 2060 2122 2033 2073 1971 1920 1738 1542 1553 2073 1944 1369 1230 1329 1453 1538 1628 1469 1389
42 187 197 277 0 0 158 303 450 417 319 263 464 76 42 0 15 53 35 27 52 313 649 329 1192 1143 1342 1488 1722 2144 2039 2072 2288 2120 1726 1807 1008 1007 1221 1630 1880 1367 1277 1375 1427 1478 1486 1538 1542
23 139 244 150 203 17 117 245 389 387 577 667 581 72 24 3 13 26 12 0 42 331 391 89 608 1054 1030 1433 1546 1523 1467 1463 1251 1330 986 926 911 680 1120 1578 1959 1325 1376 1538 641 1283 1606 1487 1140
11 8 136 225 53 263 210 270 183 377 443 358 218 67 25 25 31 6 4 0 0 110 39 103 591 723 757 812 1428 1270 1228 1108 1098 1050 911 1164 601 607 927 1200 1206 970 1325 865 656 376 564 796 908
0 54 55 258 258 409 403 211 179 218 357 322 260 128 39 63 59 5 15 20 0 0 82 134 351 667 514 806 1240 1145 862 1160 1012 420 914 528 244 525 783 641 766 592 768 748 628 288 433 463 618
0 18 16 57 214 486 359 124 46 141 184 299 222 60 34 45 56 14 2 7 2 3 86 79 199 421 253 802 1045 877 799 999 828 683 625 676 718 334 747 620 119 275 702 566 448 582 432 584 516
0 6 12 150 293 280 141 157 56 113 232 291 252 12 29 35 60 9 4 8 13 19 23 5 498 247 504 403 452 275 570 723 745 563 1 498 718 1074 415 335 346 324 625 637 560 554 582 473 542
0 0 3 18 435 407 401 328 352 293 308 293 122 48 25 24 39 12 6 6 4 18 12 15 318 160 690 588 556 400 430 667 989 767 436 484 721 913 673 685 595 160 886 236 610 930 857 622 383
0 0 0 0 15 424 427 445 531 308 440 298 172 106 60 63 1 18 7 3 9 4 3 2 146 677 478 382 1270 568 319 268 1198 1237 1078 1006 912 748 659 397 320 1042 1175 844 243 523 479 430 668
0 0 0 0 0 48 284 285 530 102 192 292 207 84 84 108 37 25 10 1 4 9 0 0 4 373 398 340 687 485 289 921 1182 1072 1308 1148 1481 1036 814 386 681 533 875 976 701 117 607 381 446
0 0 0 0 0 9 316 386 237 157 337 312 241 157 63 115 197 85 26 12 7 16 0 0 19 284 421 457 268 795 948 673 1199 1221 948 1655 1366 982 845 741 853 669 445 469 997 200 185 106 194
0 0 0 0 0 0 228 326 263 154 113 482 322 246 68 194 230 149 53 38 15 28 0 81 202 196 806 866 688 773 705 505 965 1490 1408 1605 1465 884 0 796 1113 935 48 342 692 815 88 80 285
0 0 0 0 0 60 412 320 218 80 159 201 81 254 102 205 264 123 82 81 14 31 0 131 352 343 829 757 711 477 468 943 438 457 1159 1577 1635 1073 779 853 1230 807 601 807 737 189 88 40 40
0 0 0 0 0 46 203 223 128 49 36 49 172 128 225 180 207 235 125 111 41 9 6 0 705 465 674 428 489 791 958 959 788 616 900 1433 1750 1425 1307 952 1193 834 1027 961 908 504 68 51 161
0 0 0 0 0 0 60 103 132 85 75 160 207 194 311 182 140 245 158 87 98 0 30 11 750 513 643 522 132 558 559 695 658 767 1459 1567 1419 1763 1410 1260 976 1297 905 1059 1135 1248 463 265 214
0 0 0 0 0 0 0 0 138 100 72 97 110 132 215 304 212 173 235 103 66 14 51 185 844 511 271 721 160 269 358 607 633 821 1185 1618 1664 1692 1721 1469 1550 1233 896 868 964 1275 1353 1025 685
0 0 0 0 0 0 0 0 22 66 54 14 80 0 167 278 313 186 218 113 26 56 0 316 752 398 315 304 798 202 330 332 804 914 1091 1392 1893 1974 1847 2131 1563 1277 1416 1203 1231 1607 1147 1385 1447
0 0 0 0 0 0 0 0 0 160 163 20 39 51 113 196 320 233 261 174 44 34 102 187 388 807 254 204 325 1012 337 228 1082 1106 1349 1303 1568 1768 1827 1969 1568 1680 1456 1412 1476 1655 1836 1806 1386
0 0 0 0 0 0 0 0 0 34 301 145 227 9 95 313 371 303 283 228 161 104 233 241 292 513 436 114 78 386 981 200 498 1125 1391 1190 1367 1223 1326 1815 1264 1495 1493 1626 1519 1214 1561 1775 1834
0 0 0 0 0 0 0 0 0 0 195 188 206 35 354 372 284 262 249 330 296 175 139 344 337 293 603 381 0 152 1049 281 398 708 1119 1202 1127 1262 1128 2085 1397 1700 1851 1729 1660 1379 1224 1699 1805
0 0 0 0 0 0 0 0 0 0 16 228 147 339 365 439 191 262 368 290 262 270 224 245 501 399 623 574 256 22 361 1021 441 504 764 1307 542 1226 1386 1999 1763 2108 1581 1473 1823 1212 1429 1342 1360
0 0 0 0 0 0 0 0 0 0 0 66 275 330 217 157 155 323 406 436 422 357 210 242 629 564 645 510 711 142 24 772 898 539 303 1079 981 1365 2061 1938 2208 2389 2232 1653 1751 1309 1549 1436 1342
0 0 0 0 0 0 0 0 0 0 0 24 256 415 481 366 402 141 159 146 457 521 475 267 409 731 771 716 740 816 146 250 628 755 260 511 920 912 1954 2003 2060 1837 1689 2102 2206 1637 1575 1882 1561

GFSSGP_con_mucape_075.txt.gz
CAPE
54 3 0 0 0 62 0 0 111 190 66 4 0 30 88 213 186 2 1 8 15 66 781 1437 2187 1895 1884 2145 2285 2280 2144 1785 2028 2329 2026 2182 1901 1722 1508 1998 1616 1539 1960 1839 2028 2189 2317 2420 2338
19 0 2 87 308 72 63 97 246 150 65 0 210 224 199 140 311 47 68 43 1 434 1047 1514 2402 2239 2023 2194 2166 2222 2130 1966 2248 2165 1949 2046 1961 1811 1411 1617 1974 1782 1757 2066 2075 2044 2044 2254 2217
2 2 142 166 160 0 0 62 255 186 84 175 165 164 102 101 65 3 163 28 74 802 1264 1676 2013 2115 2144 2398 2304 2373 2192 2199 2231 2089 1838 2106 1824 1860 1807 1693 1728 1849 1858 1970 2076 1904 2084 2003 2082
3 0 72 45 38 18 16 137 255 226 190 176 127 94 57 95 17 149 136 97 460 945 1259 1903 1996 1960 1957 1898 2107 2190 2083 2058 2109 1927 1761 1910 1749 1784 1752 1703 1633 1709 1586 1703 1880 1875 1929 2008 2006
18 213 158 100 226 21 37 154 218 166 222 123 111 129 54 63 121 172 190 247 605 836 1255 1647 2289 1968 2059 2249 2198 2073 2025 2036 2054 2043 1886 1751 1757 1864 1749 1668 1806 1613 1462 1611 1679 1707 1836 2006 1912
220 137 168 158 39 48 51 189 194 188 130 66 38 42 61 55 179 237 311 407 519 901 1346 1553 2106 2173 1952 1988 2166 1992 2056 2006 2083 1990 1848 1744 1803 1808 1797 1688 1646 1727 1469 1397 1398 1562 1806 1777 1755
157 207 141 108 161 131 115 179 181 175 94 62 54 22 65 69 252 290 383 566 810 1273 1401 1599 1687 1754 2169 2116 2123 2051 2045 2044 2001 1935 1769 1766 1697 1556 1831 1779 1688 1562 1459 1380 1357 1539 1589 1609 1663
220 164 90 0 176 70 71 155 267 172 149 62 0 7 36 104 246 289 440 795 1115 1254 1458 1477 1584 1703 1584 1818 1999 1999 2152 2042 1926 1798 1671 1567 1588 1636 1623 2007 1872 1510 1441 1388 1414 1573 1628 1473 1827
120 179 134 115 71 43 50 249 206 230 142 95 208 6 40 143 192 277 365 587 789 1075 1216 1420 1431 1506 1486 1629 1495 2043 2060 1947 1827 1528 1787 1776 1348 1018 1145 1597 1544 1559 1483 1394 1475 1350 1333 1476 1820
178 89 185 122 35 89 87 236 62 375 143 171 77 29 62 89 132 256 232 279 536 797 1136 1152 1331 1333 1336 1563 1738 1661 1552 1459 1428 1356 1222 958 976 813 1053 1389 1451 1563 1719 1721 1465 1338 1607 1136 761
151 143 57 123 230 94 101 178 129 196 124 137 53 42 65 58 68 147 143 271 382 656 917 1004 1200 1180 1254 1547 1600 1515 1443 1135 1168 997 787 852 817 1125 1131 1246 1126 1167 928 836 1088 925 669 726 615
90 35 66 25 348 342 205 24 71 163 491 312 61 76 58 69 57 73 57 157 330 397 694 798 927 1079 1197 1466 1405 1287 1242 851 530 583 581 657 578 834 838 758 733 703 370 231 187 374 477 528 643
72 16 7 10 0 570 107 45 0 16 152 182 64 79 72 60 84 66 70 80 228 46 324 533 687 756 991 1226 1171 1074 904 752 663 470 606 519 300 395 389 421 125 134 421 472 302 451 406 593 632
51 20 2 0 358 247 95 99 45 200 356 390 96 54 55 44 76 72 61 96 227 0 63 410 622 503 691 800 874 802 667 785 868 712 298 172 226 329 409 401 169 236 468 558 468 432 512 486 502
22 28 25 443 549 352 142 30 235 268 429 434 87 36 38 50 67 86 32 76 169 18 0 304 533 419 441 564 611 570 711 781 777 516 234 364 276 345 509 414 62 160 337 336 458 441 511 575 406
0 41 13 531 465 202 218 205 304 195 232 235 94 48 31 80 48 57 47 41 140 57 49 175 337 403 314 386 621 588 706 731 564 371 398 482 668 361 197 170 145 217 181 390 618 579 525 427 439
0 11 4 0 373 307 225 206 193 514 181 210 110 80 61 70 101 34 29 9 107 125 90 125 260 358 306 366 651 372 636 632 626 304 259 455 755 545 240 331 285 471 258 217 380 676 426 309 420
0 0 0 0 232 376 371 307 317 418 329 196 103 72 52 67 99 46 37 33 66 116 160 89 212 352 248 459 409 443 436 477 525 378 374 462 833 534 391 173 527 448 363 191 42 449 376 172 379
0 0 0 7 0 0 176 288 263 282 394 262 177 84 48 66 81 132 131 5 30 87 140 93 247 246 505 424 423 335 400 495 737 779 818 660 858 503 321 243 482 452 368 418 192 250 149 166 173
0 0 0 0 3 11 242 318 199 442 254 466 274 112 52 83 102 126 123 28 1 34 84 126 277 173 427 280 373 349 410 587 803 904 992 1015 880 511 521 666 798 707 64 386 252 239 68 111 175
0 0 0 0 0 244 146 310 286 286 279 372 425 291 90 23 57 132 124 71 0 5 41 130 147 102 188 246 320 337 488 629 797 855 806 1093 1008 394 179 562 735 378 73 457 435 38 26 55 116
0 0 0 0 0 0 161 98 265 171 253 268 494 443 256 71 49 115 138 99 37 0 32 175 209 151 75 186 153 305 414 560 770 755 837 1213 1189 924 535 658 802 719 231 475 313 97 21 16 27
0 0 0 0 0 0 0 0 0 179 232 269 536 481 374 226 85 100 172 182 96 0 0 64 158 135 84 96 111 186 376 369 407 741 767 648 1152 1304 910 814 886 727 647 547 633 704 42 20 54
0 0 0 0 0 0 0 0 0 76 140 202 426 498 489 280 209 89 136 206 171 90 85 57 0 36 82 110 78 142 206 422 487 414 465 546 898 1376 1188 985 821 924 711 669 726 945 804 866 209
0 0 0 0 0 0 0 0 0 5 44 76 151 393 500 445 139 169 150 202 203 173 110 54 60 82 107 97 97 90 157 223 357 554 474 595 857 989 1400 1164 1005 968 900 715 629 724 975 917 830
0 0 0 0 0 0 0 0 0 0 0 0 47 128 304 343 213 203 192 208 210 213 128 59 46 59 79 135 110 116 48 74 188 314 492 655 872 1013 1057 1244 1164 1227 726 886 651 1052 1145 937 876
0 0 0 0 0 0 0 0 0 0 0 6 24 40 385 355 230 231 207 212 233 267 257 162 101 57 64 100 114 122 72 30 115 118 434 704 798 1008 1186 1300 1418 1391 1098 845 1019 1050 1116 1123 1384
0 0 0 0 0 0 0 0 0 0 46 55 41 2 98 350 266 143 215 232 274 300 320 297 259 216 119 79 89 114 128 89 51 51 353 862 815 885 995 1347 1541 1531 1463 1182 1095 1199 1190 1050 1014
0 0 0 0 0 0 0 0 0 0 8 47 59 15 0 146 204 203 324 256 205 257 322 340 363 311 258 234 112 78 109 219 338 201 81 177 768 1020 913 996 1484 1513 1661 1404 1132 1107 1099 1009 983
0 0 0 0 0 0 0 0 0 0 0 18 69 55 0 88 165 191 265 312 282 242 248 350 346 314 240 237 252 106 30 50 159 289 310 260 159 615 1202 1026 1165 1311 1464 1508 1158 1112 1242 1222 989

GFSSGP_con_mucape_078.txt.gz
CAPE
13 0 0 0 0 56 2 3 51 168 62 23 3 0 1 45 75 0 0 0 0 354 1029 1525 2173 1854 1901 2219 2332 1993 1752 1753 2189 1990 2136 1840 1592 1515 1852 1465 1686 2155 1950 2245 2180 2377 2533 2406 2557
2 0 4 84 104 40 51 81 122 155 31 12 143 114 151 152 210 1 0 0 10 626 1176 1556 2455 2127 2051 2134 2121 2025 1757 2048 2095 1969 2107 2008 2064 1596 2128 1934 1993 1941 2073 2210 2149 2222 2320 2362 2451
0 2 29 176 152 0 14 35 149 106 8 199 126 146 93 83 116 0 14 0 357 797 1212 1622 2126 2037 2102 2042 2055 2051 1782 2098 2154 1987 1951 1961 1962 1837 1602 1962 1809 1857 2135 2183 2029 2109 2195 1935 2074
0 0 22 106 19 44 10 133 166 85 134 190 98 69 66 54 0 31 0 92 502 942 1289 2039 1912 1976 2203 2120 2146 2014 1963 2066 1937 1888 1957 1878 1968 1968 1938 1919 1821 1840 1920 2040 1991 2067 2127 1974 1990
0 117 171 136 173 82 18 180 265 227 187 103 103 59 64 50 93 8 0 278 629 1038 1396 1555 2242 1966 1802 1849 2025 1995 1982 1851 1855 1872 1838 1858 1906 1872 1792 1769 1821 1664 1674 1905 1849 1945 1942 1728 1832
207 103 159 154 34 46 95 241 249 226 130 76 70 58 57 77 33 15 56 358 667 938 1395 1578 1885 1780 1953 2029 2013 1972 1989 1932 1783 1794 1702 1776 1735 1762 1802 1682 1572 1371 1430 1563 1656 1952 1752 1847 2251
196 191 66 7 119 254 104 241 305 158 85 53 48 46 101 84 60 72 199 372 631 1058 1250 1426 1566 1662 1871 1861 2014 1932 1899 2026 1892 1904 1782 1681 1710 1611 1653 1486 1666 1361 991 1495 1784 1768 1922 1946 2078
204 146 60 0 75 134 96 324 268 259 112 46 47 22 48 109 124 202 297 583 963 1053 1276 1446 1571 1535 1492 1634 1956 1950 2003 1946 1833 1671 1741 1723 1608 1523 1477 1818 1901 1337 1285 1534 1677 1811 1674 2062 2281
108 95 111 117 91 94 54 330 239 184 90 39 58 16 41 116 148 256 375 528 708 1012 1166 1305 1447 1447 1493 1503 1697 1908 1998 1837 1751 1580 1719 1760 1102 1113 1403 1611 1735 1413 1362 1619 1654 1471 1480 2049 2194
137 36 83 88 70 90 131 47 93 62 120 31 86 68 69 133 137 119 341 571 111 767 981 1206 1171 1170 1336 1498 1607 1578 1509 1487 1294 1324 1179 1238 911 959 1359 1628 1760 1600 1485 1466 1356 1489 1846 1348 1662
137 83 107 158 106 201 142 7 115 163 165 77 30 42 83 127 119 182 116 93 67 429 785 1097 1008 1036 1274 1397 1398 1354 1234 1290 1200 1077 866 822 715 1064 1231 1292 1336 1064 1306 1168 1218 1172 855 784 768
75 45 39 110 273 158 143 139 128 210 260 176 36 14 77 101 113 91 44 32 194 314 668 820 916 937 1174 1321 1227 1195 866 914 863 745 689 673 779 904 1028 1035 942 580 407 254 374 456 567 658 741
52 14 15 16 43 372 159 74 47 190 241 124 46 22 33 46 90 58 47 54 176 309 527 645 807 789 1046 1210 1080 1006 858 544 409 455 549 490 403 508 546 482 379 420 544 350 463 489 505 667 712
20 9 3 33 16 211 184 40 27 12 374 50 50 24 13 26 60 29 11 43 74 154 288 451 613 672 771 1047 898 765 598 552 595 646 562 367 147 202 363 308 131 244 527 568 522 534 744 635 599
32 26 21 390 308 256 130 49 78 93 520 95 61 42 11 28 19 26 13 23 43 29 85 240 389 448 524 717 631 509 457 477 667 673 397 178 210 315 448 436 385 273 369 390 490 549 636 531 587
40 34 38 596 395 251 165 100 545 349 714 194 94 47 25 42 44 25 7 3 29 0 0 165 341 303 348 312 375 248 341 559 617 562 337 162 410 326 369 394 136 278 321 489 587 559 742 445 469
9 43 41 25 384 226 194 140 214 312 585 239 108 51 38 34 62 9 0 4 25 0 0 77 263 184 243 168 210 382 460 533 576 455 317 333 525 579 196 296 225 362 377 332 434 656 514 400 449
0 20 27 9 305 283 190 205 232 583 175 243 135 58 48 51 91 59 33 0 28 21 14 27 175 159 211 139 211 453 354 491 512 489 239 313 628 500 303 345 354 497 428 317 180 527 334 299 429
0 0 8 2 0 0 23 139 334 422 315 294 208 72 46 48 62 54 41 2 11 27 31 19 98 100 212 152 212 301 290 344 397 468 312 389 573 464 451 204 421 433 421 402 133 261 317 296 212
0 0 7 13 0 4 188 211 318 324 268 402 285 136 46 46 75 78 6 0 0 0 25 8 80 94 209 156 257 290 275 344 460 486 561 676 743 597 398 310 631 313 322 409 298 315 178 216 303
0 0 0 12 0 196 128 157 373 432 213 402 393 201 85 54 65 99 78 41 0 0 1 19 49 91 178 222 371 283 225 305 528 514 603 853 788 731 459 402 564 587 289 317 272 160 95 84 198
0 0 0 0 0 0 92 0 113 361 545 231 333 412 203 66 65 88 117 146 73 38 39 6 19 59 141 261 243 242 257 396 532 461 598 816 909 756 320 433 596 440 316 401 351 143 28 18 151
0 0 0 0 0 0 0 0 0 310 287 270 211 321 398 167 83 92 113 112 134 43 0 60 31 26 128 216 218 228 305 399 498 511 591 688 1027 1018 700 652 659 559 530 388 594 265 136 39 25
0 0 0 0 0 0 0 0 0 55 123 135 140 123 353 355 206 88 91 84 114 73 0 7 71 111 115 166 126 142 201 280 300 452 524 670 540 955 1103 766 748 727 510 554 558 843 350 384 173
0 0 0 0 0 0 0 0 0 0 0 0 0 78 320 417 289 137 89 99 114 113 40 7 71 101 82 49 72 91 97 183 237 238 254 446 455 678 1080 1140 1065 729 745 623 622 679 768 733 744
0 0 0 0 0 0 0 0 0 0 0 13 0 3 267 524 412 270 137 139 183 184 138 59 62 82 88 64 68 4 4 73 214 348 383 403 403 652 808 1057 1191 946 863 784 620 557 667 830 754
0 0 0 0 0 0 0 0 0 0 0 0 0 15 71 410 475 379 259 164 172 198 236 196 176 100 87 60 64 0 0 3 87 173 250 322 421 690 834 1058 1100 1093 986 758 730 697 783 981 1103
0 0 0 0 0 0 0 0 0 0 0 0 0 0 4 27 417 430 394 279 186 175 208 252 236 189 101 119 113 67 20 8 0 36 134 254 440 603 916 1143 1305 1069 1077 1039 898 756 860 928 958
0 0 0 0 0 0 0 0 0 0 0 0 0 3 35 45 288 443 355 366 175 231 201 254 269 259 148 177 226 188 49 28 0 0 41 302 424 675 800 953 1290 1175 995 1024 1096 991 936 1034 939
0 0 0 0 0 0 0 0 0 0 0 0 48 57 162 130 151 423 418 287 245 236 238 268 266 278 275 236 290 269 184 39 0 0 0 3 259 380 694 898 1036 1168 998 1085 1156 1179 1094 890 888

GFSSGP_con_mucape_081.txt.gz
CAPE
9 0 0 0 66 101 79 12 43 68 35 33 16 0 0 1 107 216 1 0 195 682 1270 1517 2327 1966 2298 2150 1927 1723 1781 2286 2105 2276 1868 1653 1551 1689 1558 1927 2243 2118 2292 2199 2643 2672 2526 2590 2544
0 0 2 67 22 58 97 90 127 182 34 14 44 4 136 90 172 0 0 0 359 666 1026 1265 2381 2201 2210 2355 2120 1822 2033 2241 2036 2167 2083 2189 1701 2150 1853 1933 2089 2048 2267 2280 2442 2427 2336 2613 2482
0 0 102 222 157 0 63 95 242 31 8 36 192 126 210 138 17 0 0 35 422 814 1017 1560 2002 2174 2108 2065 2068 1871 2099 2048 1911 1956 1964 1891 1738 1655 1905 1811 1897 2263 2290 2134 2332 2393 2251 2110 1890
0 0 133 86 30 102 33 272 67 77 152 173 131 135 55 119 0 0 0 191 426 816 975 1796 1878 1973 2014 2064 2084 1889 1993 1836 1887 1888 1847 1885 1974 1823 1871 1888 1952 2114 2067 2173 2184 2317 2056 1845 1691
0 290 324 368 271 119 101 301 91 125 204 115 171 43 41 66 47 0 16 185 416 713 1208 1452 2254 2082 2025 2228 1877 2059 1878 1596 1700 1836 1832 1958 1927 1795 1876 1881 1762 1823 1865 2031 2048 2007 1791 1569 1546
421 342 258 244 55 261 181 317 410 343 212 85 48 46 68 135 0 0 21 225 388 830 1072 1363 1938 1707 1622 1731 1992 1792 1891 1617 1769 1758 1753 1907 1794 1637 1716 1619 1445 1786 1706 1900 1978 1905 1650 2017 2087
336 290 44 0 234 257 186 380 367 244 189 70 33 59 68 32 0 0 107 373 500 915 1221 1576 1249 1785 1853 1900 1920 1820 1745 1943 1887 1860 1748 1833 1736 1660 1580 1598 1424 1216 1483 1916 1919 1965 2097 2320 2323
392 357 113 32 98 178 169 376 389 375 144 48 59 44 35 9 0 2 197 442 640 1039 1105 1116 1610 1720 1665 1824 1829 1695 1928 1716 1665 1758 1737 1690 1538 1511 1586 1662 1830 1362 1680 1799 1725 1904 2162 2029 2122
146 307 233 119 87 126 149 351 179 132 68 40 32 76 19 7 18 56 270 486 893 912 1134 1214 1288 1674 1866 1837 1866 1994 1791 1789 1618 1685 1809 1664 1531 1524 1398 1669 1700 1511 1787 1832 1678 1598 2200 2046 2122
196 77 223 99 122 191 70 156 223 63 136 78 37 74 29 25 30 75 200 266 555 655 988 1298 1587 1374 1442 1389 1892 1812 1773 1699 1697 1697 1932 1612 1570 1624 1575 1763 1520 1585 1693 1613 1583 1882 1879 1853 1942
240 230 191 149 214 255 76 23 182 168 210 99 51 64 43 25 22 68 101 261 207 539 756 1150 1447 1293 1230 1475 1412 1432 1676 1396 1617 1607 1406 1396 1399 1756 1978 1956 1554 1475 1654 1295 1379 1378 1485 1452 1479
114 46 113 203 378 267 165 48 155 94 347 102 49 20 26 13 32 70 106 156 60 466 674 973 1119 1273 1525 1395 1079 1411 1373 1300 1133 1345 1497 1348 1142 1711 1708 1549 1136 1216 928 1040 1275 1295 1588 1637 1627
20 24 15 16 248 381 226 171 125 196 151 86 30 62 23 20 59 112 144 104 72 357 706 956 1071 1255 1635 1650 1350 1329 1244 1128 1182 1209 1329 966 990 1316 1328 1474 1161 1267 1070 1135 1396 1471 1658 1719 1523
13 0 3 21 15 183 113 89 65 378 104 79 23 51 74 82 116 128 112 73 142 249 548 723 905 1070 1390 1287 1374 1255 1071 981 1108 1072 1235 1165 928 1255 995 1040 894 1227 1572 1409 1498 1596 1737 1529 1500
34 22 107 320 205 173 86 54 76 329 67 76 53 82 106 125 150 97 60 35 102 298 423 591 827 828 1275 1368 1164 1014 946 1125 1242 1235 1330 954 1023 1301 1446 1310 1036 1064 1445 1569 1616 1612 1662 1404 1406
46 56 36 528 462 213 150 160 363 308 70 106 61 77 82 96 91 86 72 0 37 116 286 571 461 616 919 1053 1125 905 1004 1143 1234 1233 1170 980 1062 1060 1413 1400 956 1102 1327 1399 1503 1498 1487 1494 1394
34 47 26 278 444 367 219 135 749 593 166 92 55 35 43 88 133 166 136 30 12 105 147 493 584 588 696 952 968 795 979 1304 1378 1168 1048 1073 1206 1541 1087 1139 1181 1456 1300 1140 1467 1500 1398 1400 1245
7 56 29 24 486 348 300 233 550 711 775 187 117 51 54 62 151 184 157 89 70 59 14 413 574 685 778 738 803 683 888 1150 1223 1176 928 1104 1578 1490 1107 1240 1404 1464 1306 1188 1087 1670 1110 1244 1183
0 51 39 4 5 0 0 1 199 752 256 383 195 118 63 58 124 171 139 130 21 57 45 260 632 791 732 679 519 817 1068 1119 1378 1388 1249 1129 1521 1537 1506 1181 1450 1588 1338 1442 1175 1301 1354 1085 984
0 1 2 0 0 0 200 257 281 376 357 313 373 154 189 116 95 89 104 109 70 83 142 289 576 820 830 683 728 909 1071 1094 1383 1520 1460 1121 1454 1651 1480 1463 1457 1493 1224 1701 1410 1224 858 961 978
0 0 0 0 0 322 295 337 345 555 549 614 614 333 172 193 169 116 67 88 125 126 176 355 645 834 869 849 846 931 1113 1238 1388 1463 1619 1636 1633 1636 1623 1520 1734 1651 1186 1233 1558 1051 1086 811 839
0 0 2 0 0 0 116 3 370 398 486 451 689 610 407 259 220 222 93 50 65 184 238 450 571 796 860 993 882 1119 1020 1011 1109 1401 1674 1717 1867 1622 1070 1539 1704 1653 1181 1504 1421 877 651 881 813
0 0 0 0 0 0 0 0 0 264 340 339 271 439 399 316 246 242 162 58 25 139 253 350 624 749 889 946 1174 1186 1453 1095 1301 1342 1670 1901 2232 1972 1235 1350 1780 1805 1572 1741 1681 1490 1297 680 549
0 0 0 0 0 0 0 0 0 0 6 23 35 235 349 469 304 244 205 151 117 126 204 303 547 831 881 973 1076 1277 1594 1363 1347 1482 1497 1560 1815 2127 2078 1726 1932 2092 1814 1739 1779 2071 1609 1256 1196
0 0 0 0 0 0 0 0 0 0 0 1 15 9 44 429 640 309 206 185 230 198 191 266 492 800 726 846 956 1086 1375 1635 1721 1701 1466 1537 1574 1587 2174 2363 2171 2064 2122 1845 1850 2186 2206 2082 1820
0 0 0 0 0 0 0 0 0 0 0 0 6 34 78 235 534 632 275 227 283 229 263 299 446 862 704 740 1251 1128 1217 1095 1172 1557 1216 1354 1470 1612 1987 2522 2450 2339 2139 2028 1966 1835 1811 1925 2055
0 0 0 0 0 0 0 0 0 0 0 16 36 75 103 73 616 732 534 229 304 259 268 358 558 746 668 693 1134 1154 1076 1036 1187 1311 1588 1362 1741 1452 1941 2109 2205 2316 2269 2148 2103 1676 1990 2180 2184
0 0 0 0 0 0 0 0 0 0 0 2 24 61 186 273 105 779 850 416 297 283 241 270 399 596 943 726 866 798 698 882 1058 1146 1492 1493 1622 1848 1731 2085 2257 2203 2351 2236 2208 1876 2002 2285 2052
0 0 0 0 0 0 0 0 0 0 5 2 86 177 344 621 235 480 844 771 438 298 260 251 291 386 553 604 1036 1011 768 609 745 799 1067 1444 1602 1884 2091 2236 2320 2415 2293 2463 2482 2314 1998 2211 2222
0 0 0 0 0 0 0 0 0 0 4 2 157 109 410 364 591 692 639 724 415 423 428 367 297 295 346 649 839 940 1042 805 582 689 807 1163 1490 1665 1958 2238 2318 2408 2436 2509 2451 2371 1910 2235 2181

GFSSGP_con_mucape_084.txt.gz
CAPE
0 0 0 8 137 150 299 59 253 118 304 137 15 1 2 24 426 725 67 179 693 1007 1122 1514 2415 2147 1768 1851 1649 1904 2486 2168 2519 1837 1590 1386 1515 1553 2092 2143 2270 2363 2384 2624 2681 2469 2628 2316 2490
0 0 43 73 83 110 311 342 289 277 229 57 13 0 96 648 363 59 39 328 740 1025 913 1153 2226 2566 1968 1894 1761 1774 2289 2090 2396 2285 2313 1827 2231 1878 1691 2234 2091 2056 2437 2495 2576 2617 2504 2192 2546
1 2 373 498 116 146 358 557 369 77 60 173 272 372 505 494 59 0 45 437 724 882 944 1659 2098 2248 2298 2153 1878 2170 2210 2094 2169 2169 1996 1751 1952 1975 1886 2024 1964 2003 2261 2415 2375 2249 1935 1835 2195
18 265 474 690 272 131 413 377 104 98 301 323 259 478 156 125 0 0 142 328 637 825 979 1722 2082 2109 2058 2075 2006 2174 2138 2019 2038 1976 2006 1932 1928 2011 1890 1711 2145 2226 2199 2245 2188 1959 1669 1569 2112
65 665 722 524 539 302 628 222 306 359 394 416 454 204 93 4 1 0 165 323 601 700 1013 1486 2369 2094 2116 2114 2138 2043 1835 1807 1933 1857 1826 1780 1851 1773 1715 1841 1840 1948 2105 2059 1968 1981 1643 1769 1917
492 444 617 404 425 404 639 586 253 532 429 99 197 195 202 47 0 22 174 365 416 645 786 1280 1977 2072 2040 2102 1928 1994 1645 1785 1904 1671 1815 1800 1744 1669 1569 1736 1884 1809 1984 1982 1871 1666 1743 2080 2356
425 581 385 417 369 512 520 407 544 598 501 215 89 276 134 0 0 23 197 347 552 656 787 1235 1356 1528 1747 1950 1831 1807 1781 1838 1696 1729 1714 1765 1718 1697 1590 1398 1548 1699 2008 1835 1894 2207 2252 2252 2385
581 648 286 274 274 622 507 341 328 526 356 82 238 207 6 0 0 78 249 394 625 632 917 968 1011 1506 1479 1491 1612 1827 1696 1621 1680 1705 1788 1547 1676 1673 1551 1935 1928 1828 1869 1903 1916 2140 2129 2265 2155
339 657 291 203 276 408 471 217 103 94 230 112 189 158 27 0 1 155 286 386 580 727 700 693 1353 1534 1639 1506 1724 1804 1777 1655 1585 1682 1636 1576 1130 1247 1418 1916 1741 1846 1903 1721 1716 2444 2397 2609 2282
550 546 201 108 280 427 358 83 31 130 164 156 220 39 17 0 7 128 222 290 504 551 466 860 1127 1304 1350 1035 1624 1562 1519 1210 1014 1036 1306 1275 1322 1606 1230 1509 1785 1801 1767 1686 2021 1840 1819 2028 1666
541 311 237 162 151 338 203 71 27 41 279 286 144 59 13 0 5 96 147 231 277 413 529 906 1082 1135 1007 973 1023 1357 838 1052 1334 1260 1190 1170 1201 1442 881 1243 1484 1520 1832 1409 1799 1745 1638 1694 1276
505 386 165 245 210 113 118 73 57 149 581 249 115 33 10 11 29 63 111 223 210 280 524 751 927 1079 749 800 813 736 669 573 640 1135 1275 1386 1093 961 751 952 1469 1353 1200 1466 1451 1616 1983 1990 1850
476 219 20 1 136 123 242 193 207 152 183 117 88 15 4 16 5 7 47 136 104 268 444 546 964 1264 911 1071 810 867 715 491 654 763 1089 860 853 1052 830 935 989 1039 1128 1350 1575 1725 2015 1842 1688
80 68 5 0 9 192 392 227 134 215 123 76 53 35 15 10 3 38 73 65 88 265 466 654 848 1167 969 1216 1395 1667 924 826 607 591 1044 1290 933 1129 1173 1321 1284 1417 1415 1571 1659 2076 1772 1556 1641
76 24 69 42 45 231 223 176 474 213 127 53 39 36 40 37 43 108 81 39 100 224 390 689 759 780 992 1379 1637 1756 1003 822 932 936 1308 1319 1324 1674 1324 1259 1282 1353 1795 1926 1893 1821 1605 1335 1311
87 66 45 314 535 355 463 381 840 243 187 111 57 64 104 110 105 18 0 0 62 140 453 609 395 511 731 880 1340 1189 967 899 1004 1016 1294 1410 1616 1766 1934 1448 1108 1443 1596 1450 1441 1389 1240 1205 1333
9 103 44 561 746 495 492 651 414 290 233 288 189 154 137 170 79 25 5 0 0 111 498 636 574 397 909 1356 1174 1195 1492 1360 1490 1187 1107 1551 1522 1892 1405 1187 1454 1737 1407 1344 1248 1380 1227 1261 1096
76 174 11 302 529 476 300 626 800 544 407 450 220 246 200 80 30 169 142 2 0 9 255 580 664 551 1031 1296 1370 1142 1354 1508 1512 1311 1169 1765 1585 1548 1661 1520 1778 1536 1257 1264 1344 1385 1288 1265 1220
46 93 56 281 350 63 10 258 1045 1054 779 388 255 272 202 35 86 304 311 154 0 0 70 493 676 875 1016 1050 990 1357 1372 1460 1502 1510 1566 1558 1665 1750 2054 1274 1280 1476 1277 1753 1706 1748 1518 999 1260
4 9 0 32 37 0 0 2 741 919 561 816 598 287 227 40 212 413 392 344 121 0 0 313 715 1002 945 790 1065 1111 1347 1333 1538 1471 1855 1569 1683 1547 1750 1386 1085 1330 1369 1918 1964 1863 936 940 1043
1 30 0 0 14 5 86 163 235 493 375 420 338 576 362 99 180 493 475 391 289 0 164 309 793 995 1137 1074 1359 1812 1774 1863 1929 1823 1751 1692 1892 1894 1728 1607 1650 1949 1733 1231 2056 1782 1441 785 1102
5 7 0 0 0 101 97 443 519 325 468 542 577 508 748 494 210 282 504 499 383 187 132 408 834 1050 1182 1441 1406 1588 1152 1011 1090 1392 1385 1900 1954 1841 1980 2105 2077 2276 1349 1387 1890 1445 1181 1588 429
14 0 0 0 0 0 0 100 338 381 341 649 507 678 710 605 557 423 491 558 432 453 311 293 888 1252 1275 1536 1639 1516 1716 1003 1113 1053 1839 1979 2186 2046 1606 1881 2181 2240 1889 2067 1646 1945 1795 755 696
0 0 0 0 0 0 0 48 52 88 139 140 137 236 706 890 811 666 602 597 534 439 547 550 959 1618 1802 1708 1938 1866 1565 1508 1207 1415 1516 1484 1609 1928 2212 2069 2341 2249 1834 2053 2064 2219 2175 1791 1431
0 0 0 4 0 0 0 0 34 0 0 37 175 227 179 914 735 874 910 758 628 475 494 676 964 1663 1670 1556 1714 1923 2045 2024 1787 1469 1283 1313 1374 1436 2637 2553 2591 2004 1950 1960 2012 1857 1706 1965 1632
0 0 0 1 0 4 0 18 0 0 0 95 224 344 296 376 993 894 731 941 783 688 660 860 979 1503 1721 1600 1709 1888 2063 1715 1656 1329 788 1247 1305 1506 1626 2663 2104 1894 1933 2234 2245 1585 1472 1682 1611
0 0 0 0 3 2 0 0 0 0 9 77 191 291 564 410 491 965 974 930 861 836 947 1028 1233 1567 1662 1570 1693 1924 2070 1980 1322 1127 1425 1246 1259 1300 1971 2297 1599 1787 2035 2367 2503 1708 2177 2078 2102
0 0 0 0 0 3 0 0 0 0 0 52 165 530 552 802 529 837 1225 1250 916 912 969 1123 1293 1548 1702 1546 1524 1675 1825 1996 1864 1580 1522 1477 983 1656 1638 2403 2425 1880 2294 2405 2515 1906 2233 2104 1580
0 0 0 0 0 0 9 0 0 2 7 36 338 442 845 650 804 967 1207 1206 1105 987 1027 981 1174 1411 1679 1546 1418 1479 1514 1598 1770 1598 1520 1532 1542 1739 2332 2396 2472 2033 2229 2530 2730 2132 1943 1937 1892
0 0 0 1 0 0 10 0 0 7 6 7 181 461 550 313 698 870 934 853 1165 981 1005 983 991 1036 1304 1527 1635 1556 1582 1540 1423 1554 1349 1382 1636 1609 2109 2439 2567 2383 2110 2454 2727 2255 1510 2164 2178

GFSSGP_con_mucape_087.txt.gz
CAPE
0 0 12 21 588 277 319 417 201 401 217 115 32 71 176 776 783 629 560 843 872 799 1011 1695 2335 1787 1726 1632 2135 2348 1991 2350 1810 1568 1328 1470 1548 2185 2055 2406 2394 2611 2488 2597 2565 2466 2364 2408 2140
4 2 33 139 764 328 489 547 304 367 213 45 18 22 488 559 353 171 407 779 742 716 857 1447 2522 2033 1842 1632 1729 2252 2107 2115 2265 2031 2001 2142 1807 1778 1786 2285 2193 2296 2586 2528 2475 2128 2431 2544 2423
126 3 350 307 315 505 629 637 400 234 110 58 152 485 707 137 97 222 472 656 593 550 891 1517 2125 2130 1762 1738 1929 1954 2033 2197 2131 2068 1767 2117 2028 1957 2112 1993 2047 2339 2487 2417 2076 1921 1921 2174 2129
25 177 328 234 384 410 563 138 236 207 318 296 394 489 270 114 60 317 444 652 585 688 875 1702 2137 1792 1935 1917 1860 2065 2067 2144 1889 1746 2042 1969 2028 1970 1911 2055 2135 2254 2209 1917 2144 1838 2059 2093 2015
84 379 984 664 637 608 294 256 346 278 252 226 449 413 27 9 49 314 445 483 554 758 902 1506 2398 2038 1903 1899 2104 2039 1960 2025 1994 2055 1941 2028 1917 1777 2005 1954 2101 2256 2167 2208 1947 1649 2025 2288 2205
547 882 919 737 650 634 634 779 307 402 445 306 445 223 64 6 86 239 300 415 468 546 1010 1293 1923 1962 2026 1902 2032 1735 1826 1968 1808 1847 1871 1783 1801 1671 2061 1902 2040 2110 2002 1626 1911 1860 2143 2485 2259
453 923 534 507 577 754 701 824 712 434 195 279 465 323 96 7 113 202 330 388 316 418 743 1215 1333 1670 1931 1782 1968 1810 1859 1716 1698 1663 1802 1748 1815 1617 1903 1811 1979 1962 1867 2111 2036 2156 2066 2350 2166
544 1122 534 585 768 744 796 463 565 452 401 144 360 36 7 5 109 213 244 369 366 415 583 921 699 1125 1564 1637 1757 1858 1794 1754 1700 1714 1766 1804 1805 1773 1495 2260 2284 1963 1671 1736 1945 2107 2145 2053 1931
589 768 262 302 485 769 736 222 178 217 199 296 484 16 0 2 84 174 242 375 325 442 591 956 992 1235 1520 1253 1731 1529 1382 1655 1778 1566 1544 1776 1745 1311 1411 2270 1987 1763 1604 1622 1584 2109 2196 2154 1933
812 704 157 296 475 764 851 93 163 303 344 355 217 26 0 13 92 141 215 343 423 397 385 778 1128 1023 1357 693 1541 1570 1078 1377 1223 959 1618 1935 1735 1161 926 1831 1973 1927 1899 1807 1814 1889 1639 1969 1617
554 458 217 345 485 526 643 147 58 233 361 431 67 34 8 43 94 83 181 171 257 271 614 833 1035 1194 850 933 962 1650 1064 584 483 1625 1978 1374 933 910 623 1500 1611 1671 1973 1316 2025 2128 1842 1531 801
716 428 226 177 254 162 337 108 49 106 497 423 134 18 0 44 51 49 83 168 210 355 567 556 595 637 459 563 595 541 451 314 860 1171 1226 1800 938 657 1588 1486 1322 1264 1479 1629 1077 1395 1794 1589 1158
493 409 56 55 272 269 320 290 109 330 303 367 171 10 1 14 35 52 74 201 195 278 381 498 685 848 641 1851 1466 851 384 638 724 994 1223 1634 1023 822 783 1058 1530 1346 1605 1556 2135 1896 1799 1324 1710
434 425 60 0 42 433 387 289 297 228 283 157 185 12 14 19 31 48 67 151 104 212 280 553 727 700 728 1747 1877 1097 897 373 518 717 964 1258 1685 2111 1086 1544 1470 1434 1792 1367 1768 1949 1472 1124 1222
169 173 36 8 89 564 368 211 403 218 211 95 61 36 44 24 28 38 86 41 111 184 358 433 643 535 1008 1164 1590 1727 446 805 666 1160 1325 1385 1355 1748 1427 1728 1953 1821 1817 1875 1662 1949 1672 859 1427
217 168 208 125 569 534 369 659 430 194 159 66 49 54 44 27 19 27 44 22 131 163 443 420 286 368 861 1470 1569 2165 1365 1506 1556 884 1344 1555 1717 1749 2705 1670 1702 1350 1835 2063 2588 1617 1309 1579 1811
177 321 249 410 615 547 552 813 478 466 182 50 47 54 64 75 70 34 17 15 47 218 508 470 407 328 701 1068 1321 1956 1833 2238 2226 1722 1756 1531 1614 1621 2027 1385 1753 1890 1569 1790 1362 1497 1628 1730 1565
79 161 275 372 541 403 294 925 680 613 253 160 88 88 85 80 98 18 11 5 12 210 502 605 442 587 898 917 1930 2151 1515 2010 2273 1686 1731 1601 1578 1313 2548 2375 1445 2176 1613 1909 1904 2836 2644 1416 1901
118 136 78 227 331 344 299 552 1043 299 484 423 376 179 141 141 113 28 91 22 10 11 402 660 637 907 1005 983 901 2175 1399 2293 2827 2445 1763 1662 1948 1600 2217 2111 1676 2000 1426 1836 1546 1509 1715 977 933
75 140 82 136 277 151 242 439 950 812 668 682 444 279 229 181 56 115 213 32 12 4 146 609 805 1146 1284 1123 1665 1027 1450 1793 1399 1592 1671 2215 1543 1629 1861 2014 1254 1695 1753 1872 1843 1993 2503 1307 1050
98 190 109 65 19 13 48 390 943 724 936 691 589 416 283 176 42 274 282 197 64 35 0 466 861 1292 1248 1435 1315 1234 1937 1767 1302 1583 1448 1543 1626 1552 1735 1666 1021 1854 2387 1532 2163 1839 1589 1083 377
59 101 40 90 81 146 168 235 524 871 671 826 493 525 510 271 123 328 242 443 178 2 0 369 950 1117 1108 1811 1941 2595 1269 1304 1456 2355 1915 1884 1588 1930 1757 1559 1674 2152 2236 2222 1948 1344 2507 1890 729
7 140 49 9 21 55 144 202 47 898 996 906 975 816 677 427 224 329 341 371 288 96 162 437 1066 1746 2094 2006 2521 1742 2360 1178 1093 1700 2415 2081 2255 1817 1666 1905 2033 1698 2046 1713 2475 2224 2012 1103 1239
21 80 53 16 29 70 48 171 251 442 455 426 628 756 985 866 428 374 496 516 697 184 192 392 1233 1921 1735 1753 1904 2257 1645 1738 1449 1523 1364 1377 1489 1754 1864 1883 2284 2454 2139 2132 1941 2035 2068 2218 2523
42 19 59 27 19 40 21 168 119 57 154 260 257 424 697 1025 713 694 357 639 893 330 264 400 1373 1960 1758 1694 1857 2078 2005 1771 1878 1793 1563 1193 1429 1534 2852 2554 2593 2115 2282 2027 2137 2425 2244 2017 1791
4 9 22 10 21 29 64 210 35 34 180 270 392 549 401 518 1009 741 817 719 872 741 333 574 1306 2149 2016 1842 2642 2881 2391 1794 1265 1513 2281 1022 2560 1291 3519 2610 2217 2072 1970 1930 2168 1978 1538 2477 1710
20 6 3 42 70 81 93 18 77 111 160 276 379 479 1278 502 1123 1061 1123 439 646 853 832 852 1587 1816 2080 2057 2284 2741 2870 2569 1800 2470 1889 1518 1698 1512 1744 1854 1967 1982 2042 2142 2306 2037 2013 2221 2039
0 2 47 10 68 98 130 56 131 97 158 357 374 321 771 1118 689 1163 928 664 222 508 700 710 1050 1581 2093 2161 2108 2046 2182 2402 2225 1538 1835 1656 1871 1266 1075 2001 2088 2038 1993 2000 2372 2935 2782 2012 1965
0 0 24 70 34 143 118 167 75 88 170 173 364 541 409 689 869 1275 786 339 768 985 840 992 1112 1442 1912 2155 2194 2237 2068 2120 2309 2009 1796 1818 1618 1711 1748 2711 2080 2436 2322 2383 2845 3275 2325 2346 2269
0 9 4 21 21 3 37 88 82 85 238 251 456 585 554 380 599 700 293 140 200 704 662 277 922 1237 1580 1966 2163 1974 1873 2029 1947 2200 2013 2244 2248 1791 2101 1966 2271 2211 2301 2887 2788 2234 1710 1885 2040

GFSSGP_con_mucape_090.txt.gz
CAPE
0 0 2 44 124 193 366 312 390 105 41 43 118 358 486 416 512 685 625 535 593 816 1043 1372 2212 1948 1795 2253 2039 2275 2361 1822 1841 1656 1633 1590 2185 2001 2496 2847 2527 2566 2523 2471 2330 2319 2138 2251 2190
0 2 42 257 212 156 253 330 282 254 56 39 282 293 220 248 334 599 628 484 600 491 432 917 2303 2122 1753 2101 2384 2470 2094 2182 2072 2238 2128 1825 1947 1744 2357 2328 2378 2449 2637 2427 2410 2521 2467 2195 2134
152 50 115 280 338 513 503 530 240 22 7 133 532 192 49 158 276 408 537 411 245 631 910 1399 2470 2372 1854 1908 1818 2130 2149 2105 1979 2109 2171 2009 2324 1942 1915 2009 2378 2406 2617 2607 2174 2196 1979 2168 1875
30 223 229 587 288 478 328 377 92 61 53 196 155 40 34 108 251 413 499 278 509 1057 1296 2193 2364 2011 1851 1887 1831 1684 1999 1972 1982 2059 2205 2180 1951 2070 2108 2208 2305 2131 2197 2152 2203 2203 2067 1482 1251
4 152 162 170 303 112 343 191 168 158 300 418 0 5 22 181 162 355 408 592 695 734 1009 1467 2345 2138 1680 1698 1937 1910 2022 2043 1905 2189 2217 1993 1946 2019 2151 2126 2143 2138 2206 1810 2123 2142 2195 1815 1492
186 507 203 270 247 388 772 756 226 229 399 160 0 0 29 112 93 340 266 417 576 618 746 1056 1893 2060 1977 1902 1825 1814 1912 1946 2143 2192 1749 1950 2326 1908 1936 2018 2032 2084 2148 2087 1972 2300 2376 1929 1699
94 724 415 486 588 650 607 636 588 346 359 102 0 0 18 81 78 180 385 472 262 588 824 1143 1404 1916 1853 2040 1791 1802 1796 1717 1777 1936 1862 2095 2195 1874 1847 2483 1946 1964 1831 1901 2257 2166 2216 1935 1806
550 939 597 466 853 667 717 664 534 380 202 374 76 0 5 54 81 156 197 244 326 427 678 971 1044 1167 1258 1459 1805 1826 1655 1717 1719 1816 1751 1519 1660 1596 1762 2323 2062 1593 2013 2066 2144 2082 2032 1788 1679
428 777 414 353 602 807 483 250 293 248 222 299 377 0 0 18 119 135 88 179 431 619 588 806 1011 1361 1873 1741 1609 1618 1695 1719 1704 1662 1301 1411 1573 1400 1614 2325 2010 1626 1708 2022 2037 811 1646 1739 1681
583 732 324 426 720 835 298 197 429 432 427 240 12 0 3 27 124 182 36 296 273 501 647 984 1198 1239 1231 766 1740 1217 1168 1284 1257 1340 1115 1824 1755 1410 1266 1895 2001 1677 2211 1906 918 141 127 1279 1454
604 490 231 314 623 857 335 161 205 409 400 21 22 33 3 23 93 196 54 98 71 482 875 685 1612 1468 1106 1382 1762 1168 1479 1039 1400 1403 2430 1930 876 1097 1379 1938 1867 1672 2055 1323 1388 461 490 862 1097
635 713 365 333 543 402 371 151 161 201 324 147 20 47 4 20 76 111 136 99 520 529 522 657 1041 704 1335 635 845 1113 1189 1034 612 1366 383 1997 2346 1771 610 1341 858 191 750 626 1091 1602 1381 1961 1312
408 500 392 383 302 430 245 113 67 369 496 250 2 31 8 32 65 112 111 96 340 452 262 330 1340 1688 2395 2117 1728 1040 632 1052 885 1522 1468 1205 2284 1518 637 1056 372 812 855 754 1438 1230 1680 1979 1294
233 462 251 258 403 485 379 98 237 301 335 167 12 7 9 31 54 81 103 96 255 427 206 844 890 1256 1148 2729 2354 838 651 989 1137 1120 1635 2383 2611 2930 2271 2209 477 769 762 1485 370 1606 779 2208 1787
346 643 226 86 659 534 308 217 383 353 200 239 20 13 15 32 40 37 54 83 127 296 518 849 500 577 1706 2653 2485 2607 886 1176 1051 1243 1948 1814 2262 1004 407 1875 1564 798 1376 1722 907 1538 1881 2227 1810
451 260 175 78 675 506 290 416 428 252 124 120 19 21 19 37 24 49 70 35 138 386 692 789 110 291 1474 2386 2697 2281 1486 1207 1687 1603 1901 2226 2169 2543 2601 1878 1311 2729 2133 2131 1464 2291 1849 917 2075
171 277 204 196 602 640 481 296 195 238 112 96 29 38 20 42 28 48 36 49 84 729 708 916 631 552 1763 2526 2513 1256 1887 1254 1625 1153 1761 2412 2366 2295 1394 1288 1693 2979 2338 644 1898 558 1838 2367 1473
10 194 166 253 116 545 566 545 314 290 62 60 45 25 43 53 28 23 19 34 94 492 894 1356 544 1453 2372 1832 2444 1614 2140 1471 2193 1929 1083 2819 2326 2015 999 1829 2433 1324 2129 1553 1723 2745 852 1956 993
28 97 241 132 454 681 652 434 451 232 45 25 51 50 44 66 95 18 15 18 73 379 824 1322 1522 2028 1791 1764 1521 1979 1537 2656 2470 540 899 2462 2368 1956 1062 2066 2717 1328 1116 2154 2705 2545 2453 2424 1842
6 52 148 21 44 151 620 518 501 392 190 124 124 42 70 54 71 25 27 16 30 368 817 1579 1927 2107 2350 1898 2431 2103 1657 2034 2183 1879 2615 2558 2425 2234 1547 753 1669 2070 1461 2828 2858 2674 1878 2550 629
0 2 139 127 43 23 149 280 514 376 739 423 237 167 82 85 49 49 128 56 30 294 750 1389 2125 1939 2185 2645 2098 408 394 296 788 2423 2389 2392 2277 2358 2296 1996 725 1895 2032 2260 2808 2785 1480 1394 2268
0 62 66 81 5 61 232 571 606 693 651 644 504 361 178 114 91 127 128 87 27 132 393 1369 2154 1795 1554 2632 2227 1918 876 886 1709 2270 1306 2397 2657 2457 2488 2813 1181 2028 1108 1041 2755 2670 917 1047 2494
0 146 7 36 22 27 15 352 202 259 545 670 678 499 167 95 83 130 189 221 116 147 140 1146 1812 2304 1654 2219 2560 2261 2037 832 434 1184 1759 2265 2839 2661 2547 2947 2411 1782 2050 1079 1347 2783 3143 2666 2157
17 17 63 32 45 19 3 25 391 79 65 586 587 450 414 410 80 212 223 146 179 13 51 917 1849 2385 2721 2345 2445 2028 1741 509 1141 2115 2642 2110 2295 2482 2855 2489 3144 3165 950 1743 1991 2990 2877 3211 3239
0 1 106 62 0 3 37 66 275 3 28 256 875 712 615 608 592 126 207 232 242 15 222 1087 1871 2241 2244 2360 2367 2545 1904 2101 794 1331 521 1227 1069 1763 2541 3407 3641 2469 2626 2441 2695 3417 2706 3393 3086
0 23 99 53 31 11 1 258 69 0 241 104 735 563 207 411 794 356 238 563 568 347 257 896 1904 2310 2275 2377 2676 3128 3055 2451 1859 2225 1968 926 1795 1568 2580 2388 3003 3178 2894 3013 3032 3214 2834 3018 3046
6 0 54 73 38 65 224 68 86 222 293 375 420 627 801 574 775 1049 604 656 750 404 211 708 1921 2392 2471 2305 2831 3142 3221 2963 1947 2765 3297 2600 2226 902 1226 1796 3118 3207 2639 2736 3032 2881 3101 2844 3138
5 7 5 29 88 114 280 174 287 323 382 263 234 370 456 609 868 757 460 495 674 720 417 1151 1758 2310 2720 2458 2554 2753 2957 3166 3265 3344 2244 3102 1870 496 748 763 1276 2627 3094 2656 2818 2580 2328 2819 3155
0 0 0 22 63 90 189 201 274 242 307 214 149 262 387 455 634 391 306 164 551 385 232 290 823 2180 2623 2790 2801 2670 2644 2873 3179 3092 3231 2824 2584 1219 636 0 261 1844 2912 3081 3476 2375 1627 2514 2495
10 32 27 8 45 151 241 151 114 164 235 133 193 172 168 106 504 368 254 172 225 187 108 257 308 719 1692 2579 2958 2907 2806 2779 2901 3003 2987 3334 3288 3045 2309 1307 1599 2509 3086 2574 2665 3162 2350 2536 2790

GFSSGP_con_mucape_093.txt.gz
CAPE
0 0 1 1 32 17 222 254 242 109 91 71 157 177 277 307 401 342 425 569 791 1129 1556 1800 2438 1849 1450 1490 2288 1877 1544 1307 1382 1373 1713 2137 2216 2308 2843 2619 2683 2640 2718 2493 2298 2279 2184 1771 1846
0 1 27 118 84 67 122 289 133 177 107 41 41 137 288 318 287 311 343 535 707 913 1011 1293 2022 2156 2250 1998 2325 2278 2123 2007 2325 1993 1839 1955 1941 2427 2461 2452 2473 2645 2943 2668 2460 2225 2160 2126 1816
23 42 13 120 126 84 166 606 289 199 262 12 30 56 212 205 185 202 310 358 327 412 968 1284 2047 2133 1887 1971 2022 2104 1977 1787 2041 2030 1908 2072 1886 1894 2332 2367 2296 2220 2709 2727 2063 1919 1961 1734 1789
47 128 96 39 41 361 467 280 111 66 47 0 0 61 147 180 150 98 231 86 99 585 1159 2054 1921 1730 1923 1815 1630 1934 1957 2016 2036 2059 1965 1963 1836 1999 2298 2310 2342 2252 2075 2209 2012 1838 1432 1514 1767
46 151 103 0 87 315 401 348 259 145 3 0 0 59 136 117 66 65 368 747 896 1038 1234 1480 2363 2127 1712 1686 1845 1932 1919 1828 1896 2148 2013 1964 2015 2176 2186 2077 2120 2125 2152 2108 2168 1965 1587 1615 1538
35 248 0 3 287 240 224 373 253 46 5 0 0 10 144 110 102 187 400 436 717 899 1182 1307 1775 1820 1902 1857 1761 1891 1910 1822 1980 1734 1853 1924 1942 1968 2090 1878 1996 1733 1808 2235 2193 2174 1926 1561 1598
14 115 89 162 303 207 147 320 466 37 31 0 0 0 77 144 177 270 294 342 552 650 815 1234 1410 1630 1826 1605 1729 1709 1700 1738 1762 1783 1917 2155 1825 1934 2042 1778 1882 1852 2040 2079 2135 1973 1846 1671 1684
334 183 193 238 305 262 310 393 181 393 158 1 0 0 3 85 147 179 258 356 435 633 922 1163 1360 1280 1318 1452 1721 1621 1628 1694 1769 1712 1687 1867 1826 1957 1860 2100 2570 1788 1906 1895 1907 1867 1703 1434 1382
150 158 216 356 243 612 355 46 191 220 332 61 0 0 0 46 147 61 130 245 357 499 606 912 952 972 1130 1275 1463 1547 1656 1721 1583 1597 1465 1707 1100 1354 1365 1790 2035 1864 1989 2065 2039 1934 1881 1714 1565
327 102 394 693 352 472 223 96 109 311 409 185 1 2 24 44 98 47 48 276 337 391 362 580 807 886 978 1005 1213 1224 1243 896 986 970 721 999 951 1220 1281 1509 1855 1693 1954 1783 597 352 713 1437 1336
255 162 383 780 478 189 111 105 169 362 227 46 0 0 10 52 71 70 86 83 203 336 617 555 635 802 650 733 975 886 884 837 744 688 809 758 1011 1175 1164 1204 1059 1142 1388 730 335 717 498 718 875
0 97 395 761 523 167 93 367 396 188 110 77 8 0 7 30 43 59 43 133 371 397 590 805 639 759 761 851 1009 610 811 738 582 1029 1281 594 610 705 764 475 356 266 391 175 641 871 969 743 1023
428 552 302 654 446 312 144 127 312 162 171 459 13 0 10 18 43 24 118 147 111 210 532 657 485 950 658 606 482 654 845 277 720 579 540 968 722 51 469 457 28 344 256 241 546 699 1085 1546 713
381 302 306 414 323 302 27 68 62 66 67 256 17 0 13 29 50 52 145 81 54 156 336 144 712 611 1133 1076 546 512 472 474 575 425 965 1235 650 352 381 339 338 615 227 50 444 714 831 1180 522
116 180 210 475 408 180 69 127 137 194 179 8 9 1 10 24 68 52 122 169 38 87 199 22 421 286 1179 1240 1084 589 286 537 529 1060 828 1053 583 620 765 395 528 589 488 734 621 827 1247 923 729
135 289 152 615 436 273 230 203 322 200 294 35 12 6 10 38 26 45 69 126 18 78 15 0 485 629 1014 1062 1083 517 661 533 549 767 1120 1445 824 1389 1388 853 731 626 882 1198 943 1295 1122 868 574
149 293 250 627 432 264 397 330 292 157 136 47 12 2 13 26 39 48 24 64 76 95 43 0 133 536 1075 973 1293 836 337 610 931 954 1161 1026 1406 939 1032 817 882 1254 906 626 1090 658 796 1077 947
0 176 151 201 125 164 172 186 232 147 80 24 0 3 13 14 9 23 20 33 25 7 83 7 11 655 901 871 817 1181 654 1031 899 905 1233 1258 1355 706 629 832 1175 1220 802 1056 1215 991 712 711 535
0 78 131 55 32 1 185 158 198 143 49 9 4 5 14 10 1 9 24 32 129 0 139 109 81 834 303 980 741 733 815 937 632 620 834 1283 965 622 483 812 1077 1043 837 852 1509 1706 1034 1415 780
0 4 185 132 63 64 148 212 199 195 53 14 11 5 7 4 5 0 15 20 91 70 91 540 184 520 126 722 873 871 884 948 821 547 672 1143 1057 952 948 775 1062 1114 1126 1415 1752 1358 1275 1177 319
5 3 90 57 61 90 156 81 276 237 113 123 78 52 4 6 1 1 0 5 23 83 203 694 558 653 877 635 646 530 566 494 612 883 1035 1379 1393 1117 925 1002 863 684 786 1103 1550 982 613 502 1106
2 3 36 101 53 21 13 3 8 131 173 147 56 101 42 9 5 3 0 0 4 83 305 836 690 426 440 893 541 381 98 371 360 765 1178 1049 1181 1447 1268 775 385 1190 685 777 1395 1307 1532 1312 1286
1 122 244 124 65 239 96 38 111 84 197 148 77 215 121 51 23 28 5 0 5 97 281 852 580 403 132 758 652 342 391 362 451 807 1213 1328 1220 1475 1492 1132 1048 648 398 674 1056 1625 1461 1643 1849
12 23 117 90 62 9 159 137 91 122 227 337 378 280 253 146 113 80 57 16 10 62 252 533 910 557 393 654 879 653 511 362 418 642 949 1067 1244 1301 1640 1627 1002 1033 852 856 1032 1402 1618 1501 1538
0 0 4 59 41 10 0 200 99 147 205 136 271 242 368 216 129 143 150 107 42 46 284 426 985 1022 1022 814 935 619 689 319 618 623 743 943 1295 1381 979 1474 1530 1375 745 1058 1297 1916 1275 1835 1577
16 14 1 2 2 1 39 95 69 105 55 213 447 299 324 382 216 197 204 127 99 85 217 454 762 1174 910 1147 1160 919 790 827 457 643 358 734 765 1041 1307 1436 1689 1434 1577 1504 1619 1186 1642 1357 1468
4 7 0 27 21 22 243 74 7 7 16 137 283 113 164 272 859 439 262 176 160 125 168 491 899 915 926 1738 1281 1721 1120 871 984 981 1227 705 1014 1757 1905 1546 1797 1800 1461 1292 1624 1508 1785 1253 1305
0 0 41 19 24 77 170 119 134 253 259 363 316 167 273 384 592 477 471 379 164 188 183 789 1013 1229 1238 1084 1621 1749 1440 1108 1172 1503 1603 1200 778 929 1129 1135 1745 1733 1704 1296 1507 1287 1373 1403 1492
0 0 1 20 15 37 79 66 164 225 222 327 324 255 278 373 377 398 377 208 172 258 144 431 439 561 773 1449 1656 1789 1785 1697 1582 1566 1755 1577 830 685 463 612 1056 1102 1331 1589 1389 1356 1292 1091 1287
35 0 27 33 25 89 110 90 279 66 89 138 156 214 162 540 322 428 368 225 126 45 72 238 235 230 381 673 1118 1725 2042 1912 1797 1824 2115 1480 1087 962 929 723 402 869 898 1633 1714 1499 1459 1135 1031

GFSSGP_con_mucape_099.txt.gz
CAPE
18 0 8 17 43 60 64 97 305 82 1 36 24 86 158 148 224 0 224 277 902 1273 1436 1427 1927 1944 1704 1650 1432 1496 1560 1991 2261 2357 2162 2395 2379 2352 2516 2513 2321 2362 2541 1907 2135 1693 1815 1838 1824
0 1 27 34 42 35 157 121 209 55 22 37 110 173 203 278 336 318 322 752 1075 1381 1532 1598 2142 1724 2199 1633 1596 1679 1446 1493 2148 2091 2297 2437 2460 2468 2327 2426 2481 2446 2604 2136 2004 1748 1720 1704 1708
0 14 13 77 8 17 51 80 121 127 60 71 157 151 244 397 254 298 397 914 1180 1463 1534 1199 1631 2102 2123 2102 2146 2037 2127 1738 1839 1929 2222 2397 2394 2307 2388 2527 2535 2609 2293 2248 2025 1728 1575 1476 1458
9 102 5 2 37 94 116 20 46 74 66 130 159 155 163 188 215 360 693 867 1062 1205 1082 2132 2120 1989 2110 2097 1907 1940 2088 1994 1910 2046 2085 2245 2242 2380 2507 2649 2326 2091 2047 2159 2057 1862 1541 1415 1438
103 141 108 79 0 44 111 33 54 84 112 73 79 90 81 239 392 412 590 611 739 746 1186 1562 2241 2008 1955 2123 1979 2038 2157 2028 2020 1994 1830 2100 2228 2380 2398 2266 2449 2135 1969 1899 1902 1829 1453 1560 1921
134 24 19 35 0 115 67 67 27 122 99 61 16 31 80 279 259 294 311 396 681 970 1108 1568 2016 1866 1857 1983 2005 2018 1924 1902 1954 1921 1753 1762 2184 2281 2232 2356 2297 2189 2089 1872 1888 1999 1672 2203 2295
135 4 0 16 113 50 77 80 61 81 47 0 0 0 92 153 141 69 212 445 840 1033 1284 1450 1502 1617 1633 1964 1876 1916 1947 1755 1941 1782 1837 2046 2151 2160 2110 2037 2170 2420 2333 1953 1691 1516 1690 1521 2044
238 171 16 0 84 112 335 208 184 68 28 0 0 19 67 21 43 320 279 500 909 1149 1283 1225 1465 1604 1496 1590 1872 1847 1748 1685 1690 1802 1845 1990 1962 2045 2117 2385 2628 2106 1841 1859 1772 1609 1717 1714 1839
194 141 64 116 165 45 143 72 193 180 8 0 18 14 14 153 340 370 439 666 873 966 1014 1271 1385 1221 1388 1462 1425 1663 1767 1621 1685 1663 1829 1897 1319 1403 1585 2033 2220 2016 2178 1789 1825 1570 1715 1681 1675
40 58 155 116 110 135 147 49 181 69 16 44 14 60 153 205 257 288 281 354 577 746 1017 1165 1148 1061 1236 1440 1364 1186 1150 1265 1162 1363 1305 1129 1096 1318 1599 1906 2176 2293 1628 1331 1139 1705 1194 754 688
106 145 130 91 60 170 106 105 317 19 71 10 37 100 119 135 183 215 263 312 380 528 944 877 965 1023 1223 1306 1092 950 679 570 704 735 829 999 1185 1533 1440 1445 1662 1472 659 172 546 516 540 408 347
24 42 148 273 139 192 135 153 398 62 83 37 101 103 112 135 135 157 110 191 273 502 618 666 799 830 984 1106 910 802 628 577 505 699 794 868 965 1054 883 716 966 591 160 83 385 603 846 993 1076
43 39 240 410 338 156 143 173 172 23 135 35 79 36 73 123 135 164 147 221 294 443 457 606 712 664 447 657 623 708 722 535 621 689 661 803 594 572 387 295 350 325 119 193 452 754 824 866 550
44 142 55 455 261 176 67 125 116 149 149 28 54 86 86 121 161 159 192 259 330 359 426 535 521 558 369 487 536 601 674 579 558 691 599 391 448 206 187 84 0 187 99 261 450 675 923 1024 439
367 185 195 536 244 189 73 55 56 55 40 14 35 59 72 96 145 165 204 293 300 389 377 360 485 528 466 548 478 495 653 394 358 352 418 560 404 145 131 139 378 484 421 477 527 706 933 508 570
269 231 154 359 225 243 118 83 59 43 61 25 36 51 68 38 110 150 206 276 336 434 416 518 583 572 529 361 310 369 432 407 560 610 614 571 327 535 401 352 333 340 494 598 751 919 989 501 511
128 99 181 308 264 205 119 54 46 60 152 48 28 34 40 68 83 145 243 247 400 411 482 450 712 689 534 433 350 260 285 495 619 607 448 432 433 841 680 597 527 549 535 717 957 810 697 713 670
80 32 183 229 307 200 115 134 70 49 70 13 13 28 45 70 119 179 234 276 403 362 320 318 513 559 541 373 351 183 310 597 639 822 610 746 745 758 615 598 797 980 797 585 785 798 977 816 702
22 84 151 132 270 79 149 173 65 77 118 8 1 9 33 94 163 178 241 265 343 232 302 271 387 727 422 344 263 288 257 493 665 933 773 820 659 531 565 810 731 975 807 839 993 1204 872 923 800
78 54 229 147 73 156 240 214 154 173 105 34 6 14 29 100 189 188 144 228 226 189 260 245 367 604 389 346 334 358 371 466 604 698 799 947 821 526 465 597 756 797 760 1043 1129 1118 884 613 445
0 16 252 272 94 100 82 90 282 189 187 146 14 27 27 91 117 187 157 193 199 108 164 175 333 536 400 425 519 478 492 469 528 560 490 807 649 469 616 634 798 833 800 868 1163 900 597 636 860
26 25 69 196 141 66 16 29 63 115 159 109 64 13 16 64 140 196 210 175 175 112 104 160 241 232 420 363 388 455 430 314 421 523 461 781 923 846 498 676 752 661 514 536 1016 934 1143 1007 969
56 82 127 119 99 55 8 9 0 25 99 98 44 42 31 23 69 137 173 177 163 131 87 154 267 141 267 424 418 366 353 440 355 472 621 769 1016 1043 848 699 612 681 570 586 882 1381 1162 1354 1407
82 55 177 132 126 47 23 0 0 35 80 86 115 97 40 12 35 130 163 170 134 187 114 230 269 175 208 278 376 412 418 127 345 288 587 635 895 840 1036 795 230 514 549 420 802 830 1231 1135 1196
25 10 47 46 63 12 12 33 0 4 0 110 109 109 34 34 34 78 107 106 122 239 209 145 171 203 485 521 560 517 291 326 283 427 554 609 732 850 1109 1030 826 805 399 623 617 1147 1079 1331 1442
0 0 4 5 0 3 27 20 14 79 49 118 114 179 297 84 114 32 68 135 162 163 372 222 155 146 489 600 532 512 377 359 276 492 599 693 700 783 1009 938 1025 930 865 303 784 1061 1273 1191 1135
0 0 0 0 0 0 49 9 1 156 258 179 137 206 185 147 178 135 55 138 165 169 387 381 176 143 118 211 436 533 532 490 385 421 589 694 701 699 953 958 1099 1012 1052 963 1182 1202 1188 1417 1178
0 0 0 0 0 0 24 0 32 124 317 209 182 193 146 322 385 306 103 48 75 160 259 573 425 262 217 240 294 494 555 557 529 467 469 427 373 461 773 899 1001 1179 1252 1225 1181 1291 1342 1170 1100
0 0 0 0 1 0 11 0 284 81 189 186 169 150 137 129 295 294 305 159 69 194 299 412 577 488 474 657 588 509 575 492 561 456 529 770 888 805 961 1017 1060 1156 1307 1324 1178 1205 1226 1087 1109
0 0 0 0 0 0 43 34 228 151 120 131 300 149 170 133 111 188 215 187 109 156 308 299 257 267 264 557 723 826 761 815 824 722 524 931 1021 950 925 928 1070 974 1254 1340 1498 1348 1094 1114 1163

GFSSGP_con_mucape_102.txt.gz
CAPE
1 0 5 21 38 33 41 142 166 0 0 2 0 20 47 175 167 0 102 244 634 1029 1282 1475 1938 2016 1698 1666 1675 1833 2144 2235 2253 2342 2238 2219 2235 2357 2323 2272 2202 2533 2540 1977 1751 1878 1822 1908 1705
0 0 38 43 21 28 62 95 72 0 0 4 29 130 194 301 270 223 209 671 993 1230 1277 1261 2088 1814 1614 1342 1261 1335 1734 2131 2280 2113 2008 2295 2396 2199 2080 2362 2514 2155 2271 2496 1953 2095 1873 1846 1436
0 19 18 95 59 56 69 104 96 21 21 24 153 226 279 305 125 143 425 951 1206 1279 1345 1484 1522 2109 1586 1740 2033 1909 1331 1878 1929 1816 2266 2348 2233 2327 2303 2144 2345 2437 2222 2170 1882 1811 1752 1894 1915
8 61 10 159 59 132 118 106 43 40 38 125 122 146 154 79 174 351 834 937 1059 1274 927 1435 1954 1946 1960 2004 1955 1987 1841 1657 1895 1843 2198 2202 2395 2276 2262 2273 2416 2315 2178 1834 1636 1702 1549 1642 1634
71 136 71 57 58 81 156 75 62 50 100 120 146 97 40 345 316 687 709 803 1022 802 1318 1643 2105 1989 2070 1964 1935 1866 1837 1913 1939 1831 2004 2109 2436 2455 2220 2097 2109 2217 2195 2017 1817 1605 1636 1724 1949
189 18 21 42 2 177 59 88 153 119 82 53 108 71 133 237 374 482 539 675 594 959 1443 1656 1911 1849 1983 1959 1909 1929 1773 1556 1542 1814 1766 2249 2258 2449 2578 2313 1995 1902 1923 1938 1839 1667 1886 2106 2149
118 25 5 1 79 112 107 120 126 64 52 31 47 54 200 79 261 303 387 502 767 934 1242 1544 1574 1571 1871 1796 1772 1827 1661 1685 1728 1868 1993 2036 1999 2218 2292 2345 2377 2126 2046 1753 1661 1563 1776 1898 1991
169 13 29 1 114 57 219 190 65 51 21 0 0 0 64 90 62 196 337 616 872 1035 1287 1290 1362 1261 1424 1330 1738 1648 1716 1555 1720 1889 1991 2105 2067 1761 2159 2193 2170 2007 1920 1875 1663 1763 1790 1970 1932
168 149 70 0 102 92 162 97 189 45 1 0 23 1 62 99 142 177 381 614 862 1094 1062 1174 1461 1271 1394 1392 1421 1458 1499 1599 1549 1678 1936 1371 1120 1456 1728 2494 2209 2106 1888 1813 1656 1827 1935 2055 1830
25 63 52 38 94 55 112 114 108 0 0 9 61 53 147 195 110 84 154 164 683 820 863 1106 1079 1078 1258 1451 1147 1150 1234 1211 1340 1239 1016 996 1278 1590 2006 2231 2286 1812 1126 1538 1913 1709 1302 754 891
18 138 181 98 75 44 51 119 135 19 3 0 72 128 184 166 115 64 109 237 448 596 879 994 884 956 1113 1119 774 760 811 776 887 912 902 914 1358 1383 1364 1564 1368 670 393 1130 549 508 732 455 403
56 72 61 177 58 140 66 172 67 116 30 44 135 166 151 156 161 87 106 202 302 494 783 730 765 842 989 814 694 534 367 526 633 761 863 948 1045 974 736 948 637 131 191 281 450 703 828 895 1048
54 54 221 308 85 159 166 75 30 46 79 109 135 168 152 155 165 137 95 147 203 391 543 517 632 659 739 771 617 581 604 406 514 640 670 795 675 487 246 373 337 320 117 374 624 743 787 803 558
65 115 82 342 265 159 57 71 13 55 85 114 117 133 141 167 162 138 88 138 163 332 346 470 545 517 307 382 466 582 560 499 598 728 634 495 466 344 258 48 0 320 174 392 637 843 886 663 350
400 235 243 278 234 182 142 108 85 40 139 121 100 110 169 180 155 134 132 187 202 294 333 423 475 442 200 230 418 502 542 491 443 578 498 285 391 110 50 79 340 452 528 673 729 1007 675 385 450
375 216 100 549 205 146 101 60 139 45 116 96 77 87 145 158 172 157 189 215 235 244 297 374 406 452 279 332 383 397 536 340 283 312 418 543 403 365 281 267 297 353 500 726 839 872 693 491 479
180 115 119 207 330 181 117 43 79 61 47 85 100 117 121 151 139 190 208 225 215 253 267 265 447 530 421 297 256 302 362 386 486 498 469 444 348 683 490 415 448 557 503 762 759 754 802 805 644
15 33 136 123 151 315 115 38 44 51 25 74 101 134 95 138 123 181 216 249 239 303 291 395 467 592 437 399 296 205 225 523 539 409 383 351 602 726 594 552 814 924 709 658 822 860 826 676 586
19 33 201 118 254 70 81 64 30 35 16 21 70 113 94 101 134 177 200 230 240 303 364 364 367 392 286 300 236 147 243 535 570 747 579 549 691 642 469 750 746 804 695 738 1036 1088 930 733 455
42 121 224 192 129 144 57 116 58 33 18 12 17 78 81 98 114 173 179 194 258 297 329 294 301 454 257 278 217 174 196 359 513 637 760 749 703 419 455 661 724 782 889 1026 1059 951 653 465 727
66 16 174 183 209 125 82 129 63 103 61 32 4 18 50 80 109 151 176 221 268 247 241 189 342 479 222 234 250 267 294 332 449 498 566 750 596 382 451 539 505 770 817 843 1005 728 812 855 711
25 26 305 193 97 56 25 0 109 67 105 117 2 28 20 73 128 136 173 195 252 184 227 191 198 412 218 285 259 227 226 327 441 438 440 490 700 723 542 459 618 575 500 441 1045 986 967 982 1204
30 3 230 205 84 35 14 6 2 110 110 48 25 28 20 46 137 130 141 158 201 185 148 161 137 320 276 299 348 318 288 220 199 409 474 624 775 947 847 568 565 620 524 532 850 1143 1050 1247 1411
55 65 154 147 80 29 5 0 0 57 82 60 13 4 23 21 83 133 141 115 112 158 72 58 114 254 286 282 248 260 315 331 358 352 497 533 754 794 875 900 574 434 536 391 712 948 1050 1117 1079
0 18 36 68 76 27 5 11 0 0 0 61 82 16 44 35 39 112 114 133 118 140 40 16 104 112 71 244 273 316 330 378 108 276 328 484 610 708 757 982 582 357 473 344 559 922 1079 1304 1323
0 0 0 0 11 8 5 0 2 0 40 29 99 70 16 22 35 73 111 135 142 148 99 75 96 139 114 118 189 286 405 226 259 284 334 436 443 612 733 938 926 874 751 408 482 824 1075 956 978
0 0 0 1 0 54 50 35 24 149 42 117 156 151 65 46 17 42 83 109 112 101 207 136 137 138 165 263 315 354 329 313 312 176 313 440 551 585 671 845 820 845 835 543 946 1002 953 1095 1066
0 0 0 0 0 0 31 15 2 160 233 132 183 149 144 247 114 93 34 67 101 98 137 322 128 129 102 339 431 381 346 361 377 404 429 480 556 508 513 601 750 841 910 900 832 1079 1190 1123 1063
0 0 0 0 0 0 0 0 213 94 236 128 150 186 196 209 268 281 216 49 73 142 182 356 247 173 175 155 130 204 275 398 452 470 307 357 477 591 568 615 776 965 930 1065 1092 1022 1021 1144 958
0 0 0 0 0 0 0 0 148 196 299 213 179 177 164 200 198 393 306 134 63 192 182 364 454 234 222 251 327 266 306 447 413 388 421 391 684 666 657 718 786 933 878 1075 1100 1062 1041 984 943

GFSSGP_con_mucape_105.txt.gz
CAPE
0 0 3 35 255 254 225 272 75 0 0 0 0 0 23 261 244 1 175 514 598 794 1393 1493 2058 1910 1731 1754 2052 2256 2186 2273 2405 2380 2400 2364 2397 2382 2327 2291 2188 2091 2022 1996 1977 2024 1761 1836 1803
0 0 41 102 180 156 208 246 0 0 0 0 69 81 255 516 246 170 323 620 702 967 1364 1433 2121 1905 1519 1444 1513 1848 1985 1776 2223 2334 2326 2270 2345 2383 2217 2032 2251 2205 2297 1970 2113 1809 1600 1194 1019
0 6 58 382 161 162 180 192 0 0 0 12 317 335 375 207 53 171 420 713 840 1253 1346 1797 1928 1732 1507 1593 1676 1340 1778 2008 1971 2141 2299 2346 2079 2074 2125 2182 2253 2151 2365 2101 1917 1834 1973 1953 1565
0 94 81 100 64 125 130 167 0 0 0 211 241 244 131 77 97 342 671 722 946 1209 1210 1316 2149 2058 2174 1927 1702 1752 1514 1916 1674 2148 2259 2272 2130 1967 2192 2447 2325 2035 1997 1915 1898 1714 1845 1746 1698
159 300 224 53 26 126 71 37 20 6 21 211 150 69 61 398 556 599 729 685 979 857 420 1601 2235 2143 2053 1910 1856 1831 1618 1699 1868 2167 2071 2075 2170 1870 2074 2327 2280 2053 2077 1988 1830 1785 1846 2059 2109
358 37 23 28 49 125 46 94 51 126 188 62 85 24 112 596 465 623 624 804 618 706 1378 1544 2006 2050 1784 1854 1779 1662 1484 1785 1963 1981 2135 2029 2476 2226 2725 2127 2226 2061 1927 1878 1903 2002 2145 2212 2119
142 66 31 57 58 91 96 135 137 130 104 48 68 66 210 233 422 562 684 693 316 1312 1388 1613 1361 1714 1847 1736 1831 1673 1590 1806 1927 1805 2238 2101 2077 2033 2410 2432 2154 1952 1818 1794 1813 1925 1812 1971 1864
184 73 49 0 86 99 182 106 42 40 35 75 83 21 79 223 373 529 536 205 542 877 1370 1637 1702 1641 1498 1691 1667 1753 1681 1908 1909 1842 2058 1925 1970 1850 1985 2198 2452 2083 1863 1827 1786 1810 1796 1861 1775
202 168 14 9 65 37 125 39 87 34 35 0 10 5 35 203 295 397 176 168 461 1097 1272 1540 1487 1557 1615 1572 1622 1688 1626 1778 1924 2026 1938 1973 2131 1994 2022 2025 2345 2109 2031 1777 1789 1942 1996 1854 1789
40 135 57 33 71 61 146 34 8 7 7 21 38 57 77 201 224 100 0 158 355 965 971 1377 1375 1260 1354 1347 1766 1841 1772 1824 1904 1808 1961 1841 1869 2292 2042 2071 1902 1427 1718 1946 1921 1561 1305 1063 1651
11 141 188 97 84 85 93 70 8 29 30 5 62 59 103 138 143 0 0 8 244 856 989 1224 1220 1409 1401 1636 1557 1374 1369 1569 1610 1645 1583 2043 2089 2127 2438 2085 953 985 1582 1040 965 1187 1344 1280 1088
118 145 122 115 101 44 74 43 51 101 0 0 33 96 127 69 0 0 0 104 437 581 953 1043 1010 1350 1574 1675 1169 970 969 1055 1177 1467 1602 1779 1537 1648 1813 1316 1099 808 976 1300 1555 1538 1702 1775 1808
62 62 132 150 90 153 39 51 38 58 0 18 104 76 33 31 76 73 20 220 326 413 685 820 1057 1392 1394 1153 999 953 1050 973 1115 1303 1479 1351 1244 1251 1155 1119 988 1061 782 1236 1528 1648 1755 1605 1269
80 114 108 243 135 170 36 23 3 41 73 88 64 59 98 230 293 190 159 204 291 375 537 700 862 1141 1130 1181 1337 1349 1192 1087 1180 1337 1281 1345 1180 1278 1030 533 885 706 920 1072 1597 2012 1682 1182 1364
155 157 290 261 177 152 49 4 73 121 96 156 136 201 207 222 221 161 159 248 291 449 566 690 742 834 953 1020 1231 1183 1140 999 1100 1368 1240 1078 1183 924 1169 1165 1357 1453 1705 1795 1834 1884 1437 1229 1136
264 182 167 408 185 97 96 90 128 98 220 188 198 239 276 259 244 230 244 220 333 446 691 806 514 697 558 1007 1171 1151 1142 1005 900 989 1089 828 779 844 771 1170 1272 1408 1647 1857 1848 1715 1295 1304 1255
37 58 93 401 294 136 102 152 47 75 173 153 204 211 270 301 310 306 315 328 351 578 769 855 923 954 870 1141 1004 1025 1089 1160 1148 1076 1067 1345 1088 1429 1272 1244 1500 1649 1634 1806 1617 1853 1966 1782 1436
51 72 159 20 177 275 224 233 110 15 46 196 167 198 273 258 326 348 371 384 438 536 711 844 985 1293 1260 1116 1069 916 940 1290 1487 1402 1320 1269 1082 1738 1536 1512 1985 1920 1610 1882 2036 2093 1918 1817 1662
10 16 156 390 181 149 162 309 99 14 45 145 135 158 222 242 288 325 380 449 449 541 672 786 1080 1408 1179 1044 1005 998 1020 1318 1404 1437 1443 1421 1778 1679 1699 1841 2103 1843 1848 2205 2450 1991 2108 1494 1632
172 324 245 154 60 108 24 140 294 151 142 163 157 200 189 187 234 328 385 419 447 566 740 981 1169 1386 1223 1083 1051 908 1179 1175 1627 1682 1695 1706 1641 1543 1616 2018 1899 1991 2131 2536 2520 2077 1389 1582 1908
17 29 232 239 156 161 24 106 93 96 59 86 63 175 204 201 237 340 303 386 436 504 770 916 1189 1199 1139 1057 1052 1103 1182 1340 1468 1574 1568 1732 1555 1107 1586 1575 1766 2123 2004 1940 2228 2167 2193 1788 1773
33 17 316 172 97 56 23 0 111 140 36 90 80 39 131 194 249 350 380 412 385 483 630 786 1107 1239 1040 1159 1133 1344 1086 1726 2047 2260 1370 1567 1552 1363 1356 1631 1747 1955 1587 1953 2378 2147 2258 2339 2256
53 17 334 293 210 157 111 1 71 203 166 48 28 56 38 143 210 290 355 436 408 459 489 646 927 1204 978 1104 1241 1179 1017 1118 1692 1323 1692 1417 2089 1671 1438 1591 1792 1820 1402 1913 2370 2547 2602 2384 2273
49 140 229 175 152 100 119 115 54 237 320 226 88 68 51 56 174 249 330 414 413 433 394 466 772 994 1114 1032 1201 1408 1320 1119 988 1188 1503 2126 1662 2306 1974 1786 1661 1828 1792 1700 1935 2491 2435 2342 2265
68 48 48 15 39 0 0 126 62 129 98 266 171 140 72 47 145 291 321 372 368 367 361 389 676 841 957 936 982 1097 1144 1379 1375 1200 1118 1419 1461 1637 2119 2114 1579 1218 1735 1589 1858 2206 2365 2446 2190
6 15 14 5 0 1 23 119 108 86 95 135 304 206 103 55 83 256 331 337 358 342 366 356 467 708 794 910 1005 1000 1047 992 879 972 1044 1237 1525 1914 1817 2099 2081 1627 1688 1522 1587 1893 2130 2138 2020
0 0 0 6 0 39 160 75 50 218 375 191 235 290 68 18 69 233 339 394 250 198 381 367 418 622 664 612 889 962 905 876 921 1128 1191 1226 1480 1268 1606 1849 1947 1818 1863 1609 1497 1814 2102 2287 2207
0 0 0 0 15 1 110 132 183 408 267 300 393 352 126 50 123 178 198 310 309 225 410 414 408 378 467 700 856 969 1102 1056 1092 1067 1211 1304 1328 1558 1505 1665 1820 1997 2013 2033 2030 2267 2379 2386 2062
0 0 0 0 0 30 92 166 203 457 522 639 603 443 304 101 211 306 381 405 423 399 609 657 687 703 246 552 984 1038 1204 1148 1255 1199 1134 1264 1294 1386 1252 1509 1490 1679 1988 2001 2290 2161 2198 2289 2320
0 0 0 0 0 17 72 149 418 407 556 391 419 561 636 410 384 518 506 462 402 268 442 712 794 663 696 678 781 827 913 1088 1165 1255 1225 1119 1218 1565 1663 1717 1808 1953 1835 1966 2298 2089 1975 2141 2013

GFSSGP_con_mucape_108.txt.gz
CAPE
0 0 48 324 918 560 242 250 0 0 0 0 0 0 156 508 308 278 69 243 448 906 1167 1507 2052 1914 1952 2303 2334 2105 2241 2209 2386 2473 2500 2414 2390 2329 2266 2096 2130 2026 1896 1971 1975 1894 1766 1840 1680
0 3 248 563 776 348 285 70 0 0 0 0 0 49 399 633 106 87 231 206 552 945 1050 1362 2244 1620 1582 1698 2056 2058 1914 2288 2433 2300 2332 2324 2239 2150 2236 2230 2196 2152 2098 1991 1820 1379 1166 1125 1157
0 84 644 795 470 416 262 5 0 0 0 282 426 480 679 278 10 75 153 420 742 1045 1345 1792 1810 1415 1267 1382 1343 1806 1987 2105 2108 2425 2471 1970 2004 2321 2246 2258 2213 2295 2350 2026 1908 1796 1837 1557 1611
125 663 475 430 352 248 215 0 0 0 142 531 528 583 293 12 91 182 374 581 1108 1234 1426 1913 1758 1831 1934 1699 1587 1594 1813 1606 2327 2254 2272 2035 1894 1985 2396 2273 2029 2089 1838 1885 1925 1984 1839 2147 1785
663 840 526 152 526 198 251 0 13 1 269 505 487 442 78 238 249 390 628 762 997 636 495 1668 2054 1783 1998 1963 1999 1637 1559 1665 2260 2268 2045 2163 2147 1965 2334 2242 2003 2219 2144 2047 2007 2097 2246 2157 1787
609 380 297 19 118 323 253 7 22 15 293 328 276 83 97 357 354 628 681 842 189 66 572 1210 1692 1888 1769 1754 1834 1833 2013 2026 2060 2157 2011 2359 2516 2337 2420 2248 2193 2049 2045 2048 2176 2224 2250 2102 1592
125 149 91 52 85 370 277 111 77 311 332 166 71 21 256 426 539 582 692 212 395 733 1010 1052 1427 1700 1856 1814 1685 1718 1954 1920 1952 2015 2072 1922 2031 2250 2295 2285 2087 1955 1964 2029 2013 1906 1914 1758 1399
349 96 226 126 68 225 382 272 333 358 328 65 13 28 323 504 477 531 218 119 473 631 1200 1137 1339 1395 1348 1530 1864 1861 1877 1826 1758 2218 2015 1833 1661 2057 2204 2524 2600 2022 2005 1812 1846 1776 1865 1862 1388
332 282 342 163 65 180 215 253 247 151 69 53 26 10 177 319 365 158 56 212 356 787 922 884 1107 1422 1622 1614 1813 1783 1902 1920 1958 1920 1984 1992 1819 1645 1915 2605 2292 2208 1885 1845 2002 1998 1954 1877 1800
163 302 103 63 49 164 245 155 130 158 93 33 0 50 161 248 172 31 18 150 313 661 711 1107 1101 1337 1155 939 1524 1431 1368 1422 1401 1492 1797 1594 1769 2161 1976 2082 1770 1884 1922 2069 1911 1560 1272 1488 999
103 168 160 65 54 122 188 106 59 207 185 116 122 131 129 105 101 0 0 90 312 526 714 956 1066 972 782 1039 945 913 1077 1390 1760 1773 1680 1595 1313 1306 1175 1003 969 1461 1893 1292 1442 1492 1336 1399 909
246 159 117 98 58 108 148 70 215 100 88 10 61 104 86 76 21 0 0 40 338 443 627 506 740 953 1016 840 475 593 884 996 1247 1607 1614 1563 1420 1407 1130 960 1007 1205 1304 1650 1838 1602 1984 1745 1652
120 110 212 95 70 106 83 88 123 129 50 0 2 38 58 43 0 0 0 111 267 328 462 477 659 1054 1236 1045 570 634 772 1009 1015 1122 1292 1097 1264 1396 1212 1391 1277 1246 1357 1582 1718 1711 1925 1670 1445
45 155 301 71 86 142 72 12 15 54 3 1 1 35 25 0 44 30 57 151 126 302 415 439 739 1164 1146 1086 983 900 861 1090 1040 950 1438 1502 1267 1307 1158 894 1083 1152 1402 1555 1855 2127 1357 1091 1114
91 213 440 366 209 148 25 11 5 26 29 7 22 42 54 129 194 130 133 133 164 353 347 469 857 1044 1169 1220 1212 875 851 938 984 1080 1495 1549 1181 1689 1256 1266 1083 1464 2082 2166 2114 1523 1500 1003 866
181 320 313 221 177 138 76 19 50 89 38 41 36 39 156 204 176 115 70 74 311 379 281 533 446 716 1009 1212 1437 1160 1019 831 870 927 1177 1463 1453 1449 1442 1155 1374 1728 1821 1734 1376 1100 1013 1083 1153
109 12 201 226 158 101 90 43 53 188 139 137 67 69 247 278 246 196 107 180 395 509 468 557 602 616 876 1410 1158 1219 1446 1037 999 1140 1336 1824 1720 1899 1336 1330 1766 2203 1744 1536 1247 1272 1267 1319 1112
183 148 109 274 329 161 103 140 64 68 212 209 193 128 269 285 302 353 163 238 517 630 780 914 878 1000 1078 1288 1396 1084 1115 1234 1287 1124 1287 1821 1783 2204 1728 1704 2037 2016 1661 1516 1515 2030 1651 1449 1350
109 223 146 298 293 118 94 116 95 76 196 204 225 192 204 177 285 407 354 231 456 739 945 1077 1086 1333 1327 1204 892 871 918 1061 1292 1267 1635 1833 2104 2138 2319 1693 2225 1968 1691 2289 2350 1779 1814 1028 1549
38 150 343 271 199 120 29 173 14 6 64 254 210 162 156 177 282 400 478 423 368 577 781 992 1115 1495 1938 1114 1005 844 1001 994 1008 1357 1319 1546 1947 2196 2020 1797 1623 2025 1702 1453 2227 2478 942 1216 2210
228 227 300 278 156 59 8 37 203 1 55 198 227 193 205 245 288 377 487 548 468 589 912 1171 1215 1158 1382 1144 1368 1290 1989 1820 1800 1431 1030 1258 1606 1774 1909 1601 1900 1737 2063 1592 2002 2109 2434 1289 1987
1 35 297 297 206 75 22 0 80 0 5 222 211 265 261 196 330 409 450 503 527 565 943 1300 1379 1315 1132 1612 1255 1357 1417 1607 738 962 1112 1493 1773 1470 1555 1986 1852 2274 1702 2216 2141 2037 2172 2993 1738
2 18 68 220 142 145 85 52 7 160 66 77 117 157 237 260 253 353 520 522 463 555 778 1182 1587 1567 1170 1682 1404 1872 790 623 825 804 1401 1715 1674 1451 1461 1939 2192 2279 1778 2208 2230 2413 2790 2007 2133
27 42 45 207 160 22 167 168 0 115 359 23 71 192 154 232 274 315 422 513 537 543 694 954 1562 1751 1500 1562 1256 1278 1000 895 1095 1127 2180 1071 1171 1451 1723 1883 2153 2287 2066 2017 1880 2561 2515 2652 2535
62 121 117 26 89 84 49 147 94 105 177 418 86 110 158 154 237 328 389 579 650 691 723 857 1335 1785 1562 1379 1213 1213 928 1068 1046 1251 1055 1189 1050 1253 1583 1741 2020 1777 2308 2140 1949 2608 2483 2341 2258
37 64 94 82 89 141 120 195 245 168 306 418 530 236 235 275 199 212 423 566 681 753 830 774 1145 1498 1498 1425 1326 1399 1366 793 1567 1317 1157 1028 2325 1119 1469 1505 1241 1563 2046 1943 2182 1974 1804 1672 1850
0 15 30 57 110 122 129 196 309 237 324 398 558 579 385 268 260 251 409 590 770 792 903 864 947 1359 1250 1153 1508 1382 1337 927 1995 1014 1975 1381 1545 1458 1603 1493 1491 1660 1581 2016 2047 1540 1811 1987 2220
0 0 46 24 77 136 276 201 130 544 516 560 481 663 579 358 356 310 403 680 743 839 832 878 987 1173 1127 938 1151 914 889 1283 1091 965 726 1328 1625 1831 1596 1479 1463 1679 2060 2206 1967 1598 1584 1882 1670
0 0 1 11 28 105 182 223 486 677 662 789 600 682 774 588 343 405 617 714 829 721 470 713 1061 1122 946 983 1009 884 894 711 1273 1247 908 1005 1358 2115 1459 1455 1513 1330 1612 2028 2160 1861 1477 1744 1836
0 0 0 0 0 40 85 327 716 671 861 1005 1072 979 929 738 412 513 513 628 666 980 952 772 754 995 1180 990 902 1291 924 776 635 1001 817 1082 992 1595 1336 1360 1745 1481 1559 1825 1873 1692 1395 1737 1688

GFSSGP_con_mucape_111.txt.gz
CAPE
0 0 76 373 833 1162 214 68 27 0 0 2 7 81 452 585 329 318 214 545 749 887 1154 1646 2089 2185 2337 2308 1933 2253 2297 2408 2513 2428 2345 2346 2349 2315 2101 2173 2013 2129 2001 2017 1937 1859 1679 1936 1809
2 6 352 676 875 267 84 22 1 0 0 0 3 184 443 235 64 149 304 569 724 758 984 1437 2027 1500 1780 2180 2018 2009 2279 2431 2306 2382 2310 2220 2271 2392 2082 1995 2119 2162 2179 1836 1421 1254 1070 1572 1666
0 166 872 1163 562 477 49 19 15 0 4 75 171 703 307 20 10 56 251 504 638 1229 1416 1568 1429 1175 1158 1443 1863 1966 2048 2040 2350 2239 1790 2086 2513 2010 2278 2177 2154 2218 2081 2010 1903 1794 1754 1400 1695
148 799 1052 889 415 538 17 16 0 5 325 421 590 412 0 97 85 62 234 646 689 1149 1030 1537 1451 2036 1900 1420 1691 1892 1711 2258 2186 2162 1953 1930 2317 2359 1949 1853 1700 1787 1780 2054 1978 1987 2039 1589 1631
319 1171 1022 620 246 173 29 19 4 370 436 460 449 15 0 58 48 182 641 671 876 741 954 1452 1952 1906 1846 1976 1455 1630 1440 2310 2259 2198 2192 2254 2452 2362 1967 1524 2003 2245 2125 2127 2329 2290 2076 1578 1511
912 638 536 302 242 282 31 33 30 338 552 545 329 66 134 59 146 444 535 701 118 280 772 1107 1689 1766 1821 1823 1855 1730 1960 2184 2170 2194 2619 2077 2148 2437 2255 2198 2159 2145 2247 2186 2229 2032 1761 1438 1513
589 840 288 79 122 445 40 59 67 331 403 337 37 111 62 107 356 529 535 27 114 702 569 909 1379 1813 1863 1766 1866 2022 1960 2113 2058 2150 2098 2817 2653 2427 2314 2129 2155 2087 2124 2027 2027 1875 1695 1425 1499
664 630 344 186 181 259 158 84 168 264 268 213 28 75 106 386 322 484 34 327 940 798 1126 1091 1393 1504 1510 1637 1895 1812 1778 1939 1727 1765 1929 2400 2366 2381 2270 2592 2622 2105 1929 1886 1823 1957 1952 1553 1668
599 794 600 269 284 345 244 459 503 319 239 214 143 46 257 238 217 68 77 226 668 498 624 854 1221 1256 1690 1420 1730 1663 1642 1915 2167 1640 1909 2307 1485 1707 2196 2499 2275 1981 1925 2067 2016 1985 1970 1916 2099
224 518 230 331 137 232 296 380 525 394 246 231 86 164 104 186 96 12 112 182 424 419 746 940 750 1049 1290 978 1540 1443 1136 1266 798 1090 1269 1943 1614 2611 1578 2176 2130 2025 2108 2113 1869 1670 2064 2360 1946
128 315 236 190 84 259 234 422 357 341 194 160 174 175 126 71 28 7 92 159 278 639 526 956 973 1540 807 909 992 1404 1394 1086 957 1910 1467 1644 1508 1345 568 1092 1598 1843 2202 1616 1547 1675 1501 772 360
279 218 292 173 119 242 209 216 277 241 220 135 203 145 79 19 15 13 78 141 180 281 598 383 519 1464 1197 444 616 1129 1298 1117 1459 2153 1845 1395 1742 1022 858 846 1535 1679 2251 1458 920 906 1121 846 912
269 319 217 78 64 146 182 183 205 181 44 103 128 32 26 21 17 34 52 135 160 248 287 460 624 1777 828 405 615 1180 1006 1279 1153 1118 959 1481 1566 1150 1359 1371 1345 2221 1800 1286 1730 1290 1205 1017 960
250 238 211 90 48 100 120 56 72 35 30 63 16 18 17 15 14 17 55 153 119 276 358 340 1093 1637 977 680 860 1297 1014 926 1508 935 1205 1705 1058 1850 1245 1438 1216 1232 2125 2136 2106 2180 1052 902 632
87 248 309 85 89 112 24 29 47 12 31 22 16 39 34 12 22 8 75 93 160 337 275 662 1029 542 706 741 844 1306 637 1236 1056 1381 1629 1631 1437 1677 1300 1160 1165 1327 1655 1980 1458 1223 989 526 466
132 340 272 163 137 119 50 25 1 62 32 41 50 40 38 63 62 45 73 30 301 353 333 504 266 422 473 843 1193 1203 1411 1693 1234 1111 1400 1533 1655 1602 1985 1295 1269 1454 1945 1702 931 1271 549 521 629
212 98 224 173 164 61 106 77 9 88 71 74 70 67 95 122 103 101 35 140 370 366 364 580 418 580 828 1173 1676 1871 1393 1154 1751 1474 1416 1843 1788 1920 1599 1113 1846 2264 1405 1003 1188 823 2415 567 585
187 219 131 176 167 135 105 53 2 69 114 58 71 70 103 105 129 77 72 192 343 348 484 493 497 924 1260 1082 1206 1081 1509 1471 1078 2066 2141 1833 1785 1835 2121 1793 1658 2745 1865 981 2269 3491 1312 1289 928
31 55 85 104 242 0 0 18 2 134 191 89 64 86 142 119 118 71 117 152 266 458 606 1270 1456 1248 1232 1129 1356 1221 2012 1435 1612 1725 1619 1762 1911 1980 2286 2270 2002 2535 1665 2312 1453 1899 1534 1340 851
0 180 66 191 181 0 0 107 16 71 193 122 88 104 163 122 103 143 108 165 193 424 703 1363 1435 1376 1799 1147 1846 1377 1125 1895 1572 1630 1568 1693 2123 2091 1888 2675 1998 2493 1475 1752 2237 2583 1231 859 1319
16 179 237 257 106 103 0 0 27 8 181 257 101 96 82 147 107 124 323 167 240 310 597 815 1794 1348 1628 1969 1324 1645 1841 2301 1379 1755 1361 1705 1729 1907 1985 1819 2699 2185 2603 1557 2209 1629 2129 2233 1359
10 245 164 192 139 117 76 0 9 23 116 80 119 91 111 184 119 161 414 377 229 389 473 1056 1119 1833 1082 1891 1969 1678 909 1239 1272 1166 1248 2265 1593 1432 1651 1803 1838 2344 1219 2976 1901 1545 3448 3415 1694
15 8 305 211 126 101 26 21 0 0 0 44 182 140 120 197 185 215 240 457 418 466 485 704 1128 1514 1610 1457 1468 1378 1918 1135 990 1533 2285 1790 1778 1656 1494 1930 1855 2137 2173 2333 2628 2229 3367 2275 3401
0 2 178 182 121 122 66 65 120 206 38 63 100 245 107 117 204 182 412 335 344 331 349 624 1063 1447 1501 1437 1390 1451 1773 1437 1389 1198 1453 1329 1684 1465 1726 1703 2185 2433 2291 2082 1987 2437 2454 3198 3723
0 66 223 160 137 153 103 120 53 133 87 109 125 150 257 161 168 204 415 221 476 448 269 507 1176 1446 1314 1301 1165 1198 1406 1208 1277 1508 1305 1317 1093 1342 2140 1994 2112 1908 2342 2195 2078 2528 2454 2305 2767
8 114 207 148 113 100 144 158 155 61 122 166 129 126 175 282 261 254 274 308 406 399 387 370 1103 1545 1399 1149 1165 1221 1259 934 1087 1079 993 861 1399 930 2506 1628 1885 1704 1936 2048 2216 2026 1992 2311 1917
1 83 207 40 63 174 165 230 394 282 274 401 291 157 119 318 225 283 412 428 442 551 584 614 1389 1543 1345 1106 1297 1415 1315 1068 1182 1395 1537 2066 1501 1653 1475 1219 1386 1636 1919 1935 2186 1826 1849 2297 2165
0 26 67 142 78 26 144 98 140 456 496 556 605 231 222 298 340 319 244 288 785 494 653 713 1110 1400 1278 962 1124 1120 938 1107 1069 1236 1134 1578 647 1994 2070 1401 1320 1533 1684 2001 2116 2637 1962 1863 1791
0 0 10 74 108 64 90 273 318 615 520 577 641 702 406 392 534 531 282 498 664 776 975 856 1043 1538 1456 1176 1222 1008 732 684 986 1087 1106 1267 1404 1589 1782 1720 1560 1679 1769 1738 1937 2704 2423 1835 1768
0 0 0 7 32 23 3 88 57 709 797 842 749 699 826 772 450 458 383 756 1134 1253 1403 1366 1167 1306 1556 1931 2284 1375 1218 814 562 776 945 1123 1425 1497 1620 1795 1779 1641 1727 2387 1947 1713 1772 1897 1618

GFSSGP_con_mucape_117.txt.gz
CAPE
1 13 92 238 217 132 4 33 19 91 96 65 95 71 67 282 150 103 531 615 687 1364 1952 2174 2541 2316 2285 2325 2336 2289 2320 2307 2425 2653 2632 2295 2217 2050 1902 1942 2042 2210 2137 2168 1977 1910 1318 1478 1265
0 41 197 565 232 152 15 14 70 153 85 43 48 32 34 121 184 360 372 495 708 1383 1668 2066 2765 2616 2094 2244 2630 2697 2357 2357 2264 2443 2699 2466 2298 2542 2523 1639 1759 1944 1823 1405 1567 1862 1285 1202 1494
15 76 181 119 152 138 29 12 155 228 84 26 42 47 116 157 231 305 278 279 964 1007 1155 1434 2269 2742 2009 2187 2243 2526 2676 2194 2241 2457 2256 2411 2274 2380 2313 2118 2026 2133 2068 2002 1350 1821 1607 1612 1730
122 265 52 229 133 475 10 25 40 53 46 18 0 0 43 184 350 617 649 735 743 539 926 1594 1474 1801 2013 2114 2172 2246 2237 2139 2369 2848 2430 2685 2103 2277 1963 1752 2021 2011 2056 2044 1438 1585 1364 1420 1432
134 269 111 104 176 280 36 80 96 74 22 0 0 1 101 246 315 625 820 815 456 688 1464 1736 2398 1740 1928 1892 1939 2377 2193 2096 2681 2625 2434 2585 2355 1719 1996 2074 2054 2032 2043 2046 1350 1341 1153 1240 1317
328 259 95 91 30 121 90 79 140 52 27 3 0 0 154 238 240 158 659 545 237 1058 1319 1493 2121 2164 2045 1843 2086 2371 2194 2138 2283 2464 2389 1560 1877 2454 2782 2252 2102 2064 1575 1367 1330 1259 1179 1101 996
172 171 142 25 103 147 112 44 68 18 3 0 0 0 121 231 321 523 593 374 578 823 1173 1424 1501 1694 1980 2100 2232 2171 2181 2085 2157 2233 2487 2075 1807 2714 2641 2913 2092 1788 1792 1589 1207 1145 1133 932 747
572 208 89 38 18 75 397 108 183 19 2 0 17 0 47 88 145 156 241 285 454 664 956 1207 1361 1478 1683 1655 2098 2065 2102 2184 2017 2248 2384 2501 2323 2224 2153 2894 2538 1937 1936 1803 1670 1389 1102 846 821
412 139 162 29 27 93 181 283 154 121 18 12 13 19 70 27 120 265 418 364 261 634 735 874 998 1171 1145 1284 1524 1937 1994 1933 2076 1849 2149 2274 1686 1772 1856 2083 2228 1860 1786 1806 1879 1712 1486 1507 1455
395 79 157 155 44 160 373 260 207 98 39 21 7 58 31 110 123 111 508 458 174 138 618 676 802 1031 971 1070 1290 1228 1410 980 485 546 787 788 1386 1690 1727 1996 1959 2008 1921 1813 1872 1923 1891 1847 1499
309 239 482 352 82 138 289 204 117 99 44 2 0 30 34 40 55 138 147 222 348 258 507 491 802 871 621 881 797 969 712 378 74 34 58 398 1095 1798 1861 1831 1785 1680 1896 1425 1358 1723 1830 1932 1818
256 383 428 587 285 220 235 406 60 150 52 34 0 21 26 31 76 141 250 357 334 312 378 380 479 429 625 931 763 459 319 0 0 24 98 385 803 1009 1125 1234 1256 1482 1305 412 490 953 1001 603 1043
353 544 339 316 182 127 121 70 242 255 110 52 15 24 10 0 26 70 88 243 256 216 295 328 412 627 383 859 565 440 24 0 24 89 42 479 660 1000 753 847 637 451 684 745 874 781 1018 780 631
352 486 236 172 102 86 62 186 184 126 71 12 16 23 0 5 33 147 114 99 122 284 488 358 534 838 930 782 678 528 293 194 0 211 393 669 807 1081 1330 402 752 506 754 947 868 804 1028 708 511
487 373 129 66 104 127 38 111 186 68 90 37 16 1 15 24 44 45 46 55 136 348 392 345 330 681 882 545 381 421 618 618 459 507 871 1081 1377 1298 672 879 971 1086 842 1134 1318 1005 1301 718 524
234 139 73 112 89 58 94 73 154 74 70 16 18 7 31 18 41 27 31 111 264 293 147 117 412 98 355 578 560 563 784 868 1035 1210 1460 1195 1098 1236 1585 811 812 1187 1622 1601 1753 1721 1211 737 506
88 97 57 0 46 50 62 78 111 123 58 36 26 16 14 27 34 25 25 180 249 215 174 130 28 17 524 538 631 890 519 835 1340 1135 1131 1040 1146 1362 1801 1853 1228 964 1060 999 1018 704 660 1120 658
0 105 57 92 81 88 45 50 31 77 116 60 39 33 30 36 23 14 57 24 100 410 357 359 121 613 197 355 945 747 776 1064 1093 1674 1373 1287 1195 1587 1460 1212 740 624 781 1176 1772 945 1676 1340 558
192 281 103 110 143 0 0 19 44 41 69 107 64 28 40 23 39 15 75 21 37 183 224 182 213 569 567 862 537 619 296 734 1286 1288 1409 1426 1240 1497 1694 1268 236 297 720 1236 1563 1135 1725 1732 1171
57 193 102 141 53 57 0 0 0 25 44 105 123 75 34 40 26 69 76 30 33 262 712 378 766 652 541 729 890 944 582 793 1172 1659 1264 1193 1460 1276 1540 1007 75 350 750 1341 1711 1920 2213 1702 569
39 115 80 138 80 19 0 0 0 12 47 59 67 125 72 53 26 64 90 21 87 442 561 687 837 758 763 475 374 573 932 892 989 1321 1257 1131 1268 1745 1402 1265 353 316 796 1034 1584 2315 2035 2064 1586
173 215 145 166 31 0 0 0 0 0 24 38 34 64 85 70 35 72 56 34 139 195 356 490 598 757 674 517 242 283 492 431 627 808 1045 1124 1464 1341 1293 1388 930 690 459 790 1440 2255 2194 1754 1517
213 112 141 70 6 1 0 0 0 0 0 0 30 64 67 34 9 61 41 69 150 284 473 474 705 632 475 465 566 138 539 584 943 1175 1207 1132 1465 994 1037 1343 1261 740 843 1020 1677 1948 1815 1166 1130
384 383 123 86 9 0 10 3 0 0 0 5 11 33 46 41 33 78 73 139 291 207 336 510 570 1034 715 690 505 484 394 381 816 1138 874 1034 883 1306 1403 1205 1254 952 1074 1206 1715 2050 1909 1466 846
231 112 44 39 1 0 27 25 50 37 0 3 0 8 63 32 34 58 98 107 292 349 473 673 427 668 633 813 535 589 339 314 538 655 605 712 691 929 888 1357 1061 1151 1264 1223 1806 1885 2023 2134 1649
233 184 29 40 0 68 6 21 39 47 2 4 11 6 95 103 54 68 76 154 86 506 492 725 560 803 372 820 785 569 184 35 553 755 605 497 543 636 964 1175 1185 1427 1528 1216 1661 1480 1763 1597 1996
53 38 0 95 60 21 16 17 0 38 38 0 0 48 93 111 39 71 130 100 239 212 236 751 862 944 398 775 1041 733 796 756 623 775 443 264 839 1229 1165 1034 1042 997 1378 1229 1504 1516 1371 1247 1817
0 25 68 194 56 0 80 9 0 45 65 86 2 28 103 169 144 118 135 74 165 177 158 851 860 969 599 961 1097 598 750 866 848 734 212 617 568 741 677 841 985 1016 1274 1487 1438 1286 1132 1410 1411
0 5 0 37 76 62 27 126 83 83 204 136 81 20 56 136 140 119 151 168 154 234 167 961 962 997 816 1038 926 796 772 1043 740 1099 851 831 492 344 0 421 675 853 1082 1006 1141 1067 838 1014 1131
0 1 0 0 0 46 77 21 242 61 236 159 116 103 49 140 139 88 189 315 154 121 300 1095 1188 1008 916 885 851 777 958 787 1055 715 908 988 648 98 596 674 1033 1033 1077 1434 1313 1448 1139 989 1060

GFSSGP_con_mucape_120.txt.gz
CAPE
49 37 155 288 148 81 19 19 27 48 30 24 42 76 137 169 20 61 302 454 891 1352 1551 2170 2686 2391 2427 2537 2522 2088 2314 2279 2170 2300 2447 2135 2065 2020 1967 1983 2007 2067 1964 1882 1597 1617 1556 1589 1593
12 15 127 258 90 33 83 71 32 42 47 38 50 133 212 315 417 500 453 610 1278 1514 1535 1885 2698 2769 2322 2453 2446 2471 2386 2410 2189 2184 1971 1960 1933 1915 2048 2003 1926 1730 2036 1774 1487 1532 1659 1532 1592
52 40 116 59 117 158 108 59 31 42 44 60 82 144 221 296 427 425 493 1004 1465 1565 2012 2021 2547 2560 2330 2419 2398 2456 2385 2326 2131 2074 2157 2108 2133 1844 1765 1694 1326 1604 1297 1861 1388 1559 1847 1582 1411
93 80 2 147 149 198 131 97 55 48 50 66 64 145 254 342 276 389 496 1177 1232 1514 1760 2428 2361 2000 2403 2201 2448 2358 2216 2373 2388 2373 2242 2258 2214 1919 1831 1994 1851 2184 1560 1638 1743 1644 1735 1750 1723
119 97 0 69 148 169 120 95 80 52 8 70 104 130 333 314 222 324 694 873 659 999 1151 1456 2526 2357 2029 2272 2293 2276 2155 2318 2301 2566 2187 2086 1851 1856 2032 2112 1974 2019 1857 1384 1473 1372 1531 1632 1671
282 47 0 0 63 178 142 138 44 36 17 51 85 140 341 533 419 403 547 297 782 1318 1553 1380 1893 2041 1967 2250 2228 2271 2154 2485 2487 2626 2082 2019 2106 2444 2183 2021 2016 1675 1484 1421 1190 1147 1274 1223 1372
115 58 0 67 74 158 101 146 123 33 21 23 34 73 252 435 491 547 314 877 1172 1326 1547 1540 1335 1664 2063 2349 2190 2209 2081 2302 2467 2337 1762 2322 2402 2247 2172 1856 1756 1516 1304 1019 1063 996 982 929 1047
291 281 59 75 84 131 69 139 141 29 7 19 33 87 69 108 355 166 486 727 968 1291 1468 1358 1558 1600 1709 1929 2175 2086 2281 1905 2404 2313 1892 2296 2257 2106 2033 2656 2422 1889 1710 1485 1256 1125 1139 1021 1013
672 102 14 6 59 84 327 61 108 34 14 5 0 74 122 241 318 261 430 608 748 1007 1197 1344 1530 1573 1542 1649 1668 1909 2125 2118 2242 2160 2219 1795 1764 1728 1787 2110 2039 1861 1787 1774 1802 1718 1555 1571 1771
242 83 102 15 32 101 391 337 23 15 17 6 18 44 170 173 336 245 319 505 582 810 965 1054 1176 1092 1206 1408 1404 1395 1207 908 1236 1324 1262 1280 1308 1399 1605 1882 2007 1966 1923 1888 1994 2124 2010 1819 1364
281 130 550 58 28 212 131 150 71 44 10 59 49 53 49 115 157 241 183 280 633 679 804 903 924 859 1053 1227 1119 1030 509 314 453 618 644 990 1134 1620 1677 1585 1695 1472 1738 1433 1155 1404 1653 1594 1581
471 526 671 468 244 147 281 144 134 83 47 56 49 61 49 88 260 285 200 121 369 392 506 652 827 613 814 828 727 547 288 62 61 115 355 598 770 973 1098 1026 989 1149 1288 371 482 787 1101 543 434
345 463 495 433 240 145 89 79 209 139 126 75 48 80 37 31 98 181 244 244 346 469 406 651 731 489 565 416 237 324 0 0 0 0 117 473 559 679 663 765 637 476 601 626 508 551 607 729 788
561 391 258 184 89 106 25 8 84 161 66 38 43 51 20 29 100 227 269 235 436 299 318 441 321 509 560 329 156 0 0 0 61 63 252 386 512 814 601 219 278 313 541 775 825 647 811 750 456
505 296 206 168 67 57 49 0 74 117 54 54 54 57 4 31 109 147 189 213 272 252 320 377 797 645 587 503 390 0 15 56 2 219 479 466 809 846 418 458 665 808 932 1351 1565 1557 1081 896 411
312 104 77 111 132 37 56 2 102 90 79 32 49 21 7 60 78 120 172 171 200 228 173 361 619 543 443 470 432 374 455 286 439 792 834 866 908 1230 1029 563 694 1107 1332 1037 1039 1087 1336 917 579
9 40 117 96 122 82 48 2 65 55 110 32 22 19 33 79 110 81 126 176 196 103 180 306 333 335 394 216 307 484 637 513 552 720 947 905 912 1214 1140 1528 1205 879 757 945 1488 1419 1274 836 514
0 6 30 39 0 49 1 74 58 59 59 88 36 30 40 50 53 79 173 186 129 85 138 212 93 288 334 555 690 477 686 850 914 846 771 766 1085 893 1158 928 547 613 1145 1164 928 1277 1768 529 586
145 86 62 56 100 0 0 17 45 75 54 114 136 53 44 58 41 166 184 150 123 82 126 42 364 247 201 557 594 410 641 724 1139 1075 958 1254 1050 1085 1018 908 182 484 828 1427 1357 1742 1680 995 1226
157 104 128 122 81 80 0 0 39 55 62 79 115 88 40 47 67 112 62 122 183 149 147 74 351 187 336 420 542 406 481 493 1112 1121 1247 1310 1173 1319 1140 540 10 457 801 1179 1732 1803 1703 1122 846
60 57 85 121 114 41 21 0 0 35 61 68 89 105 23 31 50 62 44 139 212 199 74 161 233 231 512 387 615 536 503 686 833 872 912 1068 1141 1342 1218 821 1 514 546 896 1447 1855 1733 1609 1042
222 304 188 196 88 23 6 0 0 1 46 42 58 75 69 39 61 93 74 106 245 152 147 209 216 431 452 331 389 474 404 392 533 725 871 898 1100 1312 1172 1033 455 580 369 931 1595 1651 1245 1203 861
263 302 304 176 61 28 0 0 0 0 132 32 55 57 69 31 57 92 108 75 244 201 247 233 468 532 463 296 269 290 291 309 439 663 830 845 1146 1070 1162 1223 903 296 515 1075 1638 1701 930 759 1033
326 188 115 63 44 0 0 0 0 0 0 17 44 42 64 43 55 78 117 56 170 239 218 187 484 383 358 294 411 283 288 433 655 837 769 762 903 1061 1026 1039 1050 754 856 1263 1573 1691 1470 522 542
281 178 22 12 0 0 25 0 0 0 24 0 16 32 51 52 36 59 75 80 127 238 260 265 521 274 245 259 420 287 411 331 585 764 767 749 815 743 1097 1022 840 875 935 1115 1562 1630 1502 1327 1171
266 108 0 0 0 0 14 3 0 0 6 18 10 61 47 74 85 32 84 108 128 170 273 384 356 452 495 436 393 456 406 220 473 605 551 510 539 608 870 1057 780 700 992 965 1445 1246 1374 1397 1467
208 137 48 71 80 31 0 20 6 0 0 0 1 31 35 92 85 68 118 169 227 195 307 396 325 497 525 467 387 392 218 134 328 640 529 539 479 665 611 895 976 1124 1239 950 1239 1288 975 820 1438
78 37 9 120 76 0 0 0 0 0 20 0 0 9 30 51 106 72 49 213 248 337 398 417 378 325 302 406 649 488 305 432 629 691 614 374 658 861 914 816 563 752 795 1006 1020 1136 1043 1032 1228
0 0 2 66 104 107 0 0 2 0 13 27 0 3 7 4 40 98 82 84 229 382 442 634 463 471 302 342 888 557 575 592 810 531 455 208 526 629 693 596 663 842 893 1130 1131 932 661 724 828
0 36 41 0 0 28 24 0 53 0 68 20 30 5 35 4 77 95 143 159 99 325 503 725 651 631 395 400 732 560 384 787 716 635 877 662 611 392 490 125 452 837 846 793 918 809 992 714 763

GFSSGP_con_mucape_123.txt.gz
CAPE
83 70 57 228 53 18 16 14 39 43 68 39 48 133 147 251 15 6 198 433 962 1292 1645 1975 2263 2344 2303 2371 2322 2246 2055 2193 2040 1736 1745 1649 1609 2040 2022 2010 2133 1992 1903 1851 1594 1668 1680 1702 1563
36 61 64 220 12 17 22 37 35 90 83 58 200 223 307 425 572 244 291 636 1120 1326 1794 2025 2410 2443 2460 2272 2256 2256 2176 2095 1967 2009 1945 2105 2108 2094 2081 2071 2043 1940 1606 1796 1772 1768 1627 1339 1541
81 69 68 32 92 29 37 21 61 95 120 153 238 271 314 441 416 261 412 1033 1306 1437 1646 2049 2416 2411 2447 2334 2030 2172 2247 1933 2124 2123 2103 2123 1975 1958 1594 1327 1391 1650 1774 1580 1829 1722 1648 1494 1503
93 0 22 53 78 126 47 38 57 62 75 128 234 276 314 444 398 456 689 1426 1477 1720 1903 2164 2368 2260 2339 2388 2042 2149 2343 1949 2203 2195 2160 1963 2015 1940 2174 1751 2189 1348 1845 1779 1954 1817 1584 1743 1717
82 9 26 63 127 152 22 42 62 68 118 122 167 305 401 317 414 460 1122 1262 1499 1791 1963 1910 2374 2179 2271 2230 2189 2276 2189 2198 2255 2137 2139 1967 1906 1880 2052 1988 1999 1622 1524 1779 1723 1816 1778 1853 2125
123 2 0 37 75 154 66 69 40 102 150 197 245 269 393 291 320 756 974 980 1296 1530 1704 1874 2058 2123 2196 2406 2212 2246 2206 2210 2132 2234 1988 1950 1997 2199 2116 1955 2020 1780 1349 1312 1405 1545 1507 1571 2281
90 8 9 48 75 113 114 72 92 131 96 143 157 296 318 305 457 670 752 678 1007 1360 1341 1457 1832 1725 2149 2253 2301 2252 2329 2206 2114 2156 1992 2249 2178 2109 2172 1983 1428 1299 1107 1116 1158 1213 1187 1227 1780
307 86 45 66 84 73 80 199 84 48 76 113 150 268 287 310 385 443 830 1127 1330 1478 1424 1259 1380 1685 1803 1878 2286 2153 2326 2291 2156 1999 2113 2356 2421 2147 1948 2410 2072 1744 1445 1150 1093 1199 1423 1379 1483
220 107 59 6 60 103 294 151 53 38 109 93 149 154 240 260 416 463 734 947 1241 1449 1246 1292 1546 1631 1847 1734 1803 2069 2051 2339 2475 1914 2167 1991 1813 1905 1803 2034 2004 1906 1846 1862 1849 1645 1492 1593 1717
199 73 88 40 41 127 358 154 24 30 24 127 127 147 242 276 239 405 486 662 1000 1193 1211 1371 1415 1540 1614 1541 1523 1254 1312 1351 1723 1877 1701 1667 1444 1420 1711 1886 2086 2048 2066 2091 2164 2213 2242 1883 1034
193 116 180 19 24 151 226 89 2 17 38 80 138 144 213 182 258 305 360 467 694 864 1107 1192 1270 1327 1323 1394 1263 977 748 1220 1397 1155 1091 1129 1181 1546 1330 1477 1364 1268 1765 991 803 601 1044 1222 1085
371 623 365 170 43 105 106 115 128 80 68 67 137 155 224 224 235 292 340 465 665 741 884 1018 824 1020 1166 1121 990 490 307 411 436 579 700 958 797 949 999 938 889 982 1134 312 192 287 399 428 524
216 586 489 299 69 117 112 123 173 105 243 41 147 179 202 277 262 244 258 377 554 548 820 911 629 751 879 845 615 313 67 204 109 238 476 536 520 560 490 624 677 364 569 537 616 602 604 656 493
489 381 226 95 115 72 54 48 93 217 292 69 113 125 153 239 276 240 141 273 386 403 648 694 581 616 556 359 392 213 26 0 2 45 245 344 407 472 574 522 273 397 523 876 1172 968 752 824 409
344 246 138 150 47 34 43 14 3 144 165 82 87 86 114 182 251 241 176 237 296 328 483 603 459 560 364 150 46 0 0 0 3 94 242 469 695 700 410 356 540 733 965 1099 1258 1178 1216 1176 355
269 98 59 134 98 54 63 26 42 130 76 53 70 86 107 151 265 275 229 229 311 250 351 355 619 494 484 289 117 0 8 0 64 342 426 562 688 712 605 600 779 1124 803 680 1133 1129 862 778 555
0 2 107 82 46 37 38 59 78 67 41 53 50 48 94 167 187 255 234 208 231 255 262 430 707 538 539 527 314 203 242 244 451 620 707 848 929 981 1092 1049 1073 795 771 1206 1013 1703 706 566 409
13 63 104 79 7 22 11 43 13 40 83 40 83 32 33 149 176 217 198 169 199 191 251 273 298 382 385 378 366 365 478 482 387 547 842 835 1068 1078 1005 829 532 612 941 870 1328 1584 926 507 494
70 123 84 56 3 0 7 10 27 14 19 88 98 48 103 162 147 133 126 168 149 93 188 190 155 167 180 329 409 349 552 675 693 841 754 804 877 837 669 857 308 452 1192 1569 1871 1620 684 924 1121
149 201 130 131 47 43 0 0 0 37 55 60 75 48 60 120 112 95 128 160 124 85 194 76 106 178 389 458 400 400 527 671 913 1004 1014 905 948 989 1123 855 36 528 842 1335 1846 1591 1256 772 1056
153 157 85 102 120 64 32 0 0 13 53 72 70 73 31 67 77 114 119 121 67 63 127 0 120 131 294 332 448 359 431 605 858 905 956 1160 1019 1036 891 733 67 350 642 1142 1629 1477 1337 1173 697
70 265 226 172 122 73 5 0 0 2 64 59 49 57 1 24 107 111 81 93 3 82 68 18 169 119 352 287 439 368 383 488 458 528 768 980 1105 1097 960 818 63 398 505 1251 1726 1116 1018 888 716
229 285 273 161 27 37 0 0 0 0 26 6 26 50 6 24 59 115 108 83 66 83 24 91 105 244 309 218 312 318 391 369 390 490 672 780 843 1092 962 912 580 283 428 1260 1591 1210 673 883 820
473 253 156 91 29 0 5 0 0 0 11 10 34 52 41 44 67 123 94 119 158 58 98 91 122 258 304 254 236 313 303 308 342 474 592 624 691 883 962 1018 826 274 708 1195 1445 1320 555 509 892
314 183 21 3 15 0 18 0 0 0 0 0 30 35 53 26 75 76 56 160 133 43 154 173 185 304 265 238 188 198 223 227 345 462 565 565 657 803 905 912 816 645 768 1161 1342 1320 992 681 1062
316 165 15 2 0 51 32 0 0 0 0 3 14 42 27 23 64 72 108 112 178 118 147 190 271 281 254 237 295 283 182 268 309 479 602 552 586 630 629 941 841 560 541 906 1262 1272 1150 1190 1226
458 240 64 69 90 52 70 35 1 0 0 0 0 7 13 13 32 85 123 115 167 209 208 173 231 225 220 173 242 253 255 240 240 419 534 481 403 442 490 772 880 615 827 940 1118 1166 842 859 1232
277 218 127 109 5 0 19 0 0 0 3 0 8 1 5 24 43 38 114 131 120 188 215 245 208 254 177 233 243 294 337 316 199 359 462 436 403 413 794 552 792 817 921 880 802 990 1105 728 1112
93 148 21 83 112 0 0 0 0 0 8 19 3 2 31 46 31 38 86 145 166 131 170 248 282 240 275 344 359 318 276 208 269 507 574 561 322 555 631 640 658 552 614 714 947 988 868 680 821
0 0 0 0 0 23 6 0 4 0 31 16 5 0 63 62 46 31 109 151 211 203 237 309 302 244 293 332 363 366 384 284 545 659 504 399 312 455 541 611 530 507 659 735 882 956 778 525 620

GFSSGP_con_mucape_126.txt.gz
CAPE
9 65 50 289 67 7 2 31 22 0 1 5 31 156 164 363 97 5 174 496 1000 1304 1442 2044 2397 2205 2207 2236 2292 2166 2083 1913 1444 1262 1202 1816 1875 1807 1901 1773 1558 1861 1566 1665 1528 1499 1551 1626 1530
19 97 76 224 25 0 13 42 22 9 48 60 201 233 394 419 503 170 270 870 1138 1344 1745 1749 2356 2367 2179 2162 2246 2051 2188 1753 1749 2135 1891 1917 2106 2100 1868 1882 1845 1842 1919 1801 1633 1613 1719 1731 1669
93 48 48 41 88 36 27 36 44 41 56 158 260 338 377 385 174 178 405 1066 1195 1561 1794 1791 2231 2321 2235 2254 2246 2076 1901 1858 1971 2164 2226 2179 2129 2092 1903 1853 1882 1884 1736 1626 1713 1733 1601 1975 1989
114 10 35 65 96 119 13 23 53 85 128 219 261 379 329 337 241 437 960 1209 1267 1508 1783 2195 2322 2390 2277 2075 2110 1587 2091 2127 2185 2160 1935 1916 1760 1384 1257 1644 1544 1863 1816 1572 1601 1395 1633 1796 2072
44 10 42 62 167 113 1 35 35 63 136 207 224 319 298 359 393 782 1280 1217 1282 1493 1721 2007 2265 2364 2323 2049 2200 2100 1968 2133 2191 2241 2124 2124 1901 1935 1874 1679 1539 1622 1912 1873 1753 1719 1702 2058 2085
70 0 18 47 94 145 13 30 64 124 189 225 181 290 335 317 460 1049 1145 1242 1368 1620 1825 1708 2137 2277 2296 2107 2090 2257 2181 2139 2073 1763 1782 1842 1789 1954 2067 1863 1593 1391 1509 1584 1679 1554 1775 2102 2144
35 0 8 26 90 102 105 74 116 97 124 145 198 264 214 239 622 851 961 1207 1434 1676 1764 1709 1696 1685 2193 2218 2201 2203 2245 2068 2046 1917 2056 1928 2075 2096 1996 1459 1335 1254 1222 1345 1366 1347 1500 2011 2036
177 1 40 56 3 64 172 255 109 80 93 109 127 110 228 247 392 641 756 935 1106 1229 1292 1735 1665 1615 1772 1717 2207 2243 1980 1918 2153 2059 2326 2208 2177 1955 2013 2259 1864 1248 1038 1119 1244 1474 1604 1783 2133
205 28 60 46 90 56 133 89 115 122 91 60 125 144 159 215 342 591 705 876 1201 1347 1124 1248 1433 1563 1729 1568 1572 1756 1937 2169 2119 2098 2361 1864 1747 1873 1715 2008 1880 1708 1512 1466 1472 1476 1564 1611 1679
63 69 92 89 91 71 51 232 69 127 75 80 122 184 179 173 339 319 474 612 1113 1246 1099 1205 1283 1569 1485 1583 854 1144 1259 1248 1596 1623 1629 1550 1495 1524 1751 1963 2041 2142 2202 1990 1920 2364 2152 1443 990
90 93 102 22 129 72 105 212 54 97 111 39 92 152 141 250 227 247 420 557 712 1031 1071 1328 1256 1551 1305 1009 724 885 1036 1150 1432 1298 1245 1118 1071 1431 1180 1191 963 980 1357 617 423 370 919 1096 806
157 453 110 51 111 139 154 195 98 62 117 105 115 153 184 187 215 237 265 394 613 922 1050 1224 1190 1209 1146 882 734 709 831 924 825 821 882 784 857 817 729 637 753 546 583 376 427 267 305 486 540
72 299 97 101 50 111 88 131 274 211 169 134 135 148 126 98 162 195 206 312 493 628 841 969 845 963 919 719 513 241 267 316 283 468 683 443 419 453 470 603 324 301 432 613 677 482 669 785 317
276 161 122 85 131 90 88 106 79 110 132 162 111 129 103 135 129 204 228 305 501 581 734 850 551 700 803 695 357 91 99 134 96 265 237 384 324 363 494 461 316 489 656 945 1189 1203 1016 871 178
224 173 118 114 69 43 60 50 13 122 148 145 147 147 155 179 155 177 202 244 447 442 634 656 520 571 435 357 254 163 20 6 37 91 224 298 534 619 332 404 611 820 989 851 907 865 904 872 241
153 171 75 94 72 72 61 16 34 107 96 113 181 152 155 208 182 159 90 179 282 309 507 542 453 437 306 10 82 0 0 0 6 118 233 454 658 613 637 573 944 986 670 1201 1210 1173 842 496 414
70 88 96 169 69 68 48 22 20 39 66 137 152 131 113 133 168 149 133 140 219 229 368 457 418 456 390 134 0 0 2 0 91 290 328 582 848 888 917 684 859 653 948 732 1338 1341 537 378 388
0 51 128 68 30 51 34 4 41 33 69 101 132 101 81 75 170 163 137 153 192 203 239 305 460 533 421 394 212 65 214 166 204 441 630 784 920 991 1041 729 557 834 1019 1579 1549 847 476 428 397
49 119 94 30 9 0 3 50 22 49 55 35 82 67 57 62 125 146 140 102 172 115 178 255 404 382 369 385 237 211 366 412 432 417 717 710 841 657 639 548 326 817 1176 1675 1537 1088 778 859 951
134 160 115 105 26 32 1 0 11 37 43 36 73 40 5 60 89 128 112 109 135 134 132 159 191 212 236 204 251 286 348 519 825 791 716 647 799 641 786 670 98 701 980 1521 1522 1152 1035 728 825
200 167 130 89 104 73 54 0 14 48 30 32 34 23 14 26 61 121 83 94 88 127 105 112 73 65 128 246 355 292 393 518 817 921 881 821 853 887 735 677 104 398 806 1148 1365 1269 1066 975 604
102 211 142 148 118 50 51 0 0 0 6 43 36 18 9 51 68 134 80 80 72 64 63 49 91 109 212 269 235 200 264 330 469 797 724 947 840 855 833 691 62 207 753 1087 1480 815 862 694 933
29 359 248 151 6 50 54 0 0 0 0 1 29 18 0 23 27 87 83 78 55 57 7 52 7 43 166 263 217 177 156 234 278 338 572 614 856 920 719 678 304 145 584 1143 1296 640 602 716 631
548 436 197 108 52 11 0 0 0 0 0 0 0 7 0 0 35 57 74 79 71 36 20 0 0 6 200 205 251 243 207 231 266 275 409 599 626 767 799 799 629 263 370 1065 1241 761 372 660 824
539 168 52 48 7 1 28 0 0 0 0 0 0 0 0 0 19 39 44 48 47 37 29 27 11 48 192 144 171 199 212 241 210 217 309 446 514 640 744 755 778 625 392 968 1149 985 461 286 868
594 208 20 0 7 29 49 17 0 0 0 0 27 2 1 1 1 6 36 49 61 31 29 63 51 52 158 164 138 168 229 230 213 181 287 344 457 503 637 764 763 675 454 752 1149 1075 913 893 981
575 343 102 37 63 68 58 36 14 2 9 0 11 26 1 4 9 3 30 51 89 60 64 61 60 44 107 134 139 125 145 166 167 201 334 453 421 460 497 539 751 701 490 776 840 1025 836 938 994
659 389 207 159 23 58 17 0 8 0 2 0 8 18 24 28 30 34 34 42 97 118 72 55 68 56 92 145 144 201 192 157 172 227 298 417 407 268 542 434 673 655 725 824 744 894 960 712 686
470 265 24 82 99 90 0 0 48 17 3 12 7 6 8 12 4 25 43 43 82 122 103 89 113 100 93 171 116 86 180 154 187 170 257 388 324 299 353 549 534 548 589 641 710 732 792 810 650
323 97 27 11 0 30 25 0 123 52 25 13 15 14 0 24 39 36 62 52 79 116 143 150 129 125 119 126 107 99 153 221 253 146 253 387 434 337 318 434 514 480 487 549 777 825 958 671 558